[[{"header":{"parameterUnit":"m.s-1","parameterCategory":1,"la1":31.0,"la2":29.5877,"lo1":-88.7671,"lo2":-86.6584,"dy":0.0162,"dx":0.0185,"nx":115,"ny":88,"refTime":"2024-02-29T18:00:00:Z","depth":0,"parameterNumber":2,"parameterNumberName":"U-component_of_WINDS"},"data":[0.0,0.0,0.0,0.0,0.0,0.0,0.0,0.0,0.0,0.0,0.0,0.0,0.0,0.0,0.0,0.0,0.0,0.0,0.0,0.0,0.0,0.0,0.0,0.0,0.0,0.0,0.0,0.0,0.0,0.0,0.0,0.0,0.0,0.0,0.0,0.0,0.0,0.0,0.0,0.0,0.0,0.0,0.0,0.0,0.0,0.0,0.0,0.0,0.0,0.0,0.0,0.0,0.0,0.0,0.0,0.0,0.0,0.0,0.0,0.0,0.0,0.0,0.0,0.0,0.0,0.0,0.0,0.0,0.0,0.0,0.0,0.0,0.0,0.0,0.0,0.0,0.0,0.0,0.0,0.0,0.0,0.0,0.0,0.0,0.0,0.0,0.0,0.0,0.0,0.0,0.0,0.0,0.0,0.0,0.0,0.0,0.0,0.0,0.0,0.0,0.0,0.0,0.0,0.0,0.0,0.0,0.0,0.0,0.0,0.0,0.0,0.0,0.0,0.0,0.0,0.0,0.0,0.0,0.0,0.0,0.0,0.0,0.0,0.0,0.0,0.0,0.0,0.0,0.0,0.0,0.0,0.0,0.0,0.0,0.0,0.0,0.0,0.0,0.0,0.0,0.0,0.0,0.0,0.0,0.0,0.0,0.0,0.0,0.0,0.0,0.0,0.0,0.0,0.0,0.0,0.0,0.0,0.0,0.0,0.0,0.0,0.0,0.0,0.0,0.0,0.0,0.0,0.0,0.0,0.0,0.0,0.0,0.0,0.0,0.0,0.0,0.0,0.0,0.0,0.0,0.0,0.0,0.0,0.0,0.0,0.0,0.0,0.0,0.0,0.0,0.0,0.0,0.0,0.0,0.0,0.0,0.0,0.0,0.0,0.0,0.0,0.0,0.0,0.0,0.0,0.0,0.0,0.0,0.0,0.0,0.0,0.0,0.0,0.0,0.0,0.0,0.0,0.0,0.0,0.0,0.0,0.0,0.0,0.0,0.0,0.0,0.0,0.0,0.0,0.0,0.0,0.0,0.0,0.0,0.0,0.0,0.0,0.0,0.0,0.0,0.0,0.0,0.0,0.0,0.0,0.0,0.0,0.0,0.0,0.0,0.0,0.0,0.0,0.0,0.0,0.0,0.0,0.0,0.0,0.0,0.0,0.0,0.0,0.0,0.0,0.0,0.0,0.0,0.0,0.0,0.0,0.0,0.0,0.0,0.0,0.0,0.0,0.0,0.0,0.0,0.0,0.0,0.0,0.0,0.0,0.0,0.0,0.0,0.0,0.0,0.0,0.0,0.0,0.0,0.0,0.0,0.0,0.0,0.0,0.0,0.0,0.0,0.0,0.0,0.0,0.0,0.0,0.0,0.0,0.0,0.0,0.0,0.0,0.0,0.0,0.0,0.0,0.0,0.0,0.0,0.0,0.0,0.0,0.0,0.0,0.0,0.0,0.0,0.0,0.0,0.0,0.0,0.0,0.0,0.0,0.0,0.0,0.0,0.0,0.0,0.0,0.0,0.0,0.0,0.0,0.0,0.0,0.0,0.0,0.0,0.0,0.0,0.0,0.0,0.0,0.0,0.0,0.0,0.0,0.0,0.0,0.0,0.0,0.0,0.0,0.0,0.0,0.0,0.0,0.0,0.0,0.0,0.0,0.0,0.0,0.0,0.0,0.0,0.0,0.0,0.0,0.0,0.0,0.0,0.0,0.0,0.0,0.0,0.0,0.0,0.0,0.0,0.0,0.0,0.0,0.0,0.0,0.0,0.0,0.0,0.0,0.0,0.0,0.0,0.0,0.0,0.0,0.0,0.0,0.0,0.0,0.0,0.0,0.0,0.0,0.0,0.0,0.0,0.0,0.0,0.0,0.0,0.0,0.0,0.0,0.0,0.0,0.0,0.0,0.0,0.0,0.0,0.0,0.0,0.0,0.0,0.0,0.0,0.0,0.0,0.0,0.0,0.0,0.0,0.0,0.0,0.0,0.0,0.0,0.0,0.0,0.0,0.0,0.0,0.0,0.0,0.0,0.0,0.0,0.0,0.0,0.0,0.0,0.0,0.0,0.0,0.0,0.0,0.0,0.0,0.0,0.0,0.0,0.0,0.0,0.0,0.0,0.0,0.0,0.0,0.0,0.0,0.0,0.0,0.0,0.0,0.0,0.0,0.0,0.0,0.0,0.0,0.0,0.0,0.0,0.0,0.0,0.0,0.0,0.0,0.0,0.0,0.0,0.0,0.0,0.0,0.0,0.0,0.0,0.0,0.0,0.0,0.0,0.0,0.0,0.0,0.0,0.0,0.0,0.0,0.0,0.0,0.0,0.0,0.0,0.0,0.0,0.0,0.0,0.0,0.0,0.0,0.0,0.0,0.0,0.0,0.0,0.0,0.0,0.0,0.0,0.0,0.0,0.0,0.0,0.0,0.0,0.0,0.0,0.0,0.0,0.0,0.0,0.0,0.0,0.0,0.0,0.0,0.0,0.0,0.0,0.0,0.0,0.0,0.0,0.0,0.0,0.0,0.0,0.0,0.0,0.0,0.0,0.0,0.0,0.0,0.0,0.0,0.0,0.0,0.0,0.0,0.0,0.0,0.0,0.0,0.0,0.0,0.0,0.0,0.0,0.0,0.0,0.0,0.0,0.0,0.0,0.0,0.0,0.0,0.0,0.0,0.0,0.0,0.0,0.0,0.0,0.0,0.0,0.0,0.0,0.0,0.0,0.0,0.0,0.0,0.0,0.0,0.0,0.0,0.0,0.0,0.0,0.0,0.0,0.0,0.0,0.0,0.0,0.0,0.0,0.0,0.0,0.0,0.0,0.0,0.0,0.0,0.0,0.0,0.0,0.0,0.0,0.0,0.0,0.0,0.0,0.0,0.0,0.0,0.0,0.0,0.0,0.0,0.0,0.0,0.0,0.0,0.0,0.0,0.0,0.0,0.0,0.0,0.0,0.0,0.0,0.0,0.0,0.0,0.0,0.0,0.0,0.0,0.0,0.0,0.0,0.0,0.0,0.0,0.0,0.0,0.0,0.0,0.0,0.0,0.0,0.0,0.0,0.0,0.0,0.0,0.0,0.0,0.0,0.0,0.0,0.0,0.0,0.0,0.0,0.0,0.0,0.0,0.0,0.0,0.0,0.0,0.0,0.0,0.0,0.0,0.0,0.0,0.0,0.0,0.0,0.0,0.0,0.0,0.0,0.0,0.0,0.0,0.0,0.0,0.0,0.0,0.0,0.0,0.0,0.0,0.0,0.0,0.0,0.0,0.0,0.0,0.0,0.0,0.0,0.0,0.0,0.0,0.0,0.0,0.0,0.0,0.0,0.0,0.0,0.0,0.0,0.0,0.0,0.0,0.0,0.0,0.0,0.0,0.0,0.0,0.0,0.0,0.0,0.0,0.0,0.0,0.0,0.0,0.0,0.0,0.0,0.0,0.0,0.0,0.0,0.0,0.0,0.0,0.0,0.0,0.0,0.0,0.0,0.0,0.0,0.0,0.0,0.0,0.0,0.0,0.0,0.0,0.0,0.0,0.0,0.0,0.0,0.0,0.0,0.0,0.0,0.0,0.0,0.0,0.0,0.0,0.0,0.0,0.0,0.0,0.0,0.0,0.0,0.0,0.0,0.0,0.0,0.0,0.0,0.0,0.0,0.0,0.0,0.0,0.0,0.0,0.0,0.0,0.0,0.0,0.0,0.0,0.0,0.0,0.0,0.0,0.0,0.0,0.0,0.0,0.0,0.0,0.0,0.0,0.0,0.0,0.0,0.0,0.0,0.0,0.0,0.0,0.0,0.0,0.0,0.0,0.0,0.0,0.0,0.0,0.0,0.0,0.0,0.0,0.0,0.0,0.0,0.0,0.0,0.0,0.0,0.0,0.0,0.0,0.0,0.0,0.0,0.0,0.0,0.0,0.0,0.0,0.0,0.0,0.0,0.0,0.0,0.0,0.0,0.0,0.0,0.0,0.0,0.0,0.0,0.0,0.0,0.0,0.0,0.0,0.0,0.0,0.0,0.0,0.0,0.0,0.0,0.0,0.0,0.0,0.0,0.0,0.0,0.0,0.0,0.0,0.0,0.0,0.0,0.0,0.0,0.0,0.0,0.0,0.0,0.0,0.0,0.0,0.0,0.0,0.0,0.0,0.0,0.0,0.0,0.0,0.0,0.0,0.0,0.0,0.0,0.0,0.0,0.0,0.0,0.0,0.0,0.0,0.0,0.0,0.0,0.0,0.0,0.0,0.0,0.0,0.0,0.0,0.0,0.0,0.0,0.0,0.0,0.0,2.6386,0.0,0.0,0.0,0.0,0.0,0.0,0.0,0.0,0.0,0.0,0.0,0.0,0.0,0.0,0.0,0.0,0.0,0.0,0.0,0.0,0.0,0.0,0.0,0.0,0.0,0.0,0.0,0.0,0.0,0.0,0.0,0.0,0.0,0.0,0.0,0.0,0.0,0.0,0.0,0.0,0.0,0.0,0.0,0.0,0.0,0.0,0.0,0.0,0.0,0.0,0.0,0.0,0.0,0.0,0.0,0.0,0.0,0.0,0.0,0.0,0.0,0.0,0.0,0.0,0.0,0.0,0.0,0.0,0.0,0.0,0.0,0.0,0.0,0.0,0.0,0.0,0.0,0.0,0.0,0.0,0.0,0.0,0.0,0.0,0.0,0.0,0.0,0.0,0.0,0.0,0.0,0.0,0.0,0.0,0.0,0.0,0.0,0.0,0.0,0.0,0.0,0.0,0.0,0.0,0.0,0.0,0.0,0.0,0.0,0.0,2.9065,2.8958,2.8525,2.7763,2.6627,0.0,0.0,0.0,0.0,0.0,0.0,0.0,0.0,0.0,0.0,0.0,0.0,0.0,0.0,0.0,0.0,0.0,0.0,0.0,0.0,0.0,0.0,0.0,0.0,0.0,0.0,0.0,0.0,0.0,0.0,0.0,0.0,0.0,0.0,0.0,0.0,0.0,0.0,0.0,0.0,0.0,0.0,0.0,0.0,0.0,0.0,0.0,0.0,0.0,0.0,0.0,0.0,0.0,0.0,0.0,0.0,0.0,0.0,0.0,0.0,0.0,0.0,0.0,0.0,0.0,0.0,0.0,0.0,0.0,0.0,0.0,0.0,0.0,0.0,0.0,0.0,0.0,0.0,0.0,0.0,0.0,0.0,0.0,0.0,0.0,0.0,0.0,0.0,0.0,0.0,0.0,0.0,0.0,0.0,0.0,0.0,0.0,0.0,0.0,0.0,0.0,0.0,0.0,0.0,0.0,0.0,0.0,0.0,0.0,0.0,0.0,0.0,2.8986,2.811,2.6459,0.0,0.0,0.0,0.0,0.0,0.0,0.0,0.0,0.0,0.0,0.0,0.0,0.0,0.0,0.0,0.0,0.0,0.0,0.0,0.0,0.0,0.0,0.0,0.0,0.0,0.0,0.0,0.0,0.0,0.0,0.0,0.0,0.0,0.0,0.0,0.0,0.0,0.0,0.0,0.0,0.0,0.0,0.0,0.0,0.0,0.0,0.0,0.0,0.0,0.0,0.0,0.0,0.0,0.0,0.0,0.0,0.0,0.0,0.0,0.0,0.0,0.0,0.0,0.0,0.0,0.0,0.0,0.0,0.0,0.0,0.0,0.0,0.0,0.0,0.0,0.0,0.0,0.0,0.0,0.0,0.0,0.0,0.0,0.0,0.0,0.0,0.0,0.0,0.0,0.0,0.0,0.0,0.0,0.0,0.0,0.0,0.0,0.0,0.0,0.0,0.0,0.0,0.0,0.0,0.0,0.0,0.0,0.0,0.0,0.0,2.9382,2.9382,2.9164,0.0,2.6038,0.0,0.0,0.0,0.0,0.0,0.0,0.0,0.0,0.0,0.0,0.0,0.0,0.0,0.0,0.0,0.0,0.0,0.0,0.0,0.0,0.0,0.0,0.0,0.0,0.0,0.0,0.0,0.0,0.0,0.0,0.0,0.0,0.0,0.0,0.0,0.0,0.0,0.0,0.0,0.0,0.0,0.0,0.0,0.0,0.0,0.0,0.0,0.0,0.0,0.0,0.0,0.0,0.0,0.0,0.0,0.0,0.0,0.0,0.0,0.0,0.0,0.0,0.0,0.0,0.0,0.0,0.0,0.0,0.0,0.0,0.0,0.0,0.0,0.0,0.0,0.0,0.0,0.0,0.0,0.0,0.0,0.0,0.0,0.0,0.0,0.0,0.0,0.0,0.0,0.0,0.0,0.0,0.0,0.0,0.0,0.0,0.0,0.0,0.0,0.0,0.0,0.0,0.0,0.0,0.0,0.0,0.0,0.0,0.0,0.0,2.9538,2.9538,2.8422,2.7143,0.0,0.0,0.0,0.0,0.0,0.0,0.0,0.0,0.0,0.0,0.0,0.0,0.0,0.0,0.0,0.0,0.0,0.0,0.0,0.0,0.0,0.0,0.0,0.0,0.0,0.0,0.0,0.0,0.0,0.0,0.0,0.0,0.0,0.0,0.0,0.0,0.0,0.0,0.0,0.0,0.0,0.0,0.0,0.0,0.0,0.0,0.0,0.0,0.0,0.0,0.0,0.0,0.0,0.0,0.0,0.0,0.0,0.0,0.0,0.0,0.0,0.0,0.0,0.0,0.0,0.0,0.0,0.0,0.0,0.0,0.0,0.0,0.0,0.0,0.0,0.0,0.0,0.0,0.0,0.0,0.0,0.0,0.0,0.0,0.0,0.0,0.0,0.0,0.0,0.0,0.0,0.0,0.0,0.0,0.0,0.0,0.0,0.0,0.0,0.0,0.0,0.0,0.0,0.0,0.0,0.0,0.0,0.0,0.0,0.0,2.9523,2.9554,2.9404,2.7788,2.652,2.5704,0.0,0.0,0.0,0.0,0.0,0.0,0.0,0.0,0.0,0.0,0.0,0.0,0.0,0.0,0.0,0.0,0.0,0.0,0.0,0.0,0.0,0.0,0.0,0.0,0.0,0.0,0.0,0.0,0.0,0.0,0.0,0.0,0.0,0.0,0.0,0.0,0.0,0.0,0.0,0.0,0.0,0.0,0.0,0.0,0.0,0.0,0.0,0.0,0.0,0.0,0.0,0.0,0.0,0.0,0.0,0.0,0.0,0.0,0.0,0.0,0.0,0.0,0.0,0.0,0.0,0.0,0.0,0.0,0.0,0.0,0.0,0.0,0.0,0.0,0.0,0.0,0.0,0.0,0.0,0.0,0.0,0.0,0.0,0.0,0.0,0.0,0.0,0.0,0.0,0.0,0.0,0.0,0.0,0.0,0.0,0.0,0.0,0.0,0.0,0.0,0.0,0.0,0.0,0.0,0.0,0.0,0.0,0.0,2.9101,2.9444,2.9444,2.9117,2.7665,2.6581,0.0,0.0,0.0,0.0,0.0,0.0,0.0,0.0,0.0,0.0,0.0,0.0,0.0,0.0,0.0,0.0,0.0,0.0,0.0,0.0,0.0,0.0,0.0,0.0,0.0,0.0,0.0,0.0,0.0,0.0,0.0,0.0,0.0,0.0,0.0,0.0,0.0,0.0,0.0,0.0,0.0,0.0,0.0,0.0,0.0,0.0,0.0,0.0,0.0,0.0,0.0,0.0,0.0,0.0,0.0,0.0,0.0,0.0,0.0,0.0,0.0,0.0,0.0,0.0,0.0,0.0,0.0,0.0,0.0,0.0,0.0,0.0,0.0,0.0,0.0,0.0,0.0,0.0,0.0,0.0,0.0,0.0,0.0,0.0,0.0,0.0,0.0,0.0,0.0,0.0,0.0,0.0,0.0,0.0,0.0,0.0,0.0,0.0,0.0,0.0,0.0,0.0,0.0,0.0,0.0,0.0,0.0,0.0,0.0,2.9275,2.9491,2.946,2.9073,2.7665,2.6536,0.0,0.0,0.0,0.0,0.0,0.0,0.0,0.0,0.0,0.0,0.0,0.0,0.0,0.0,0.0,0.0,0.0,0.0,0.0,0.0,0.0,0.0,0.0,0.0,0.0,0.0,0.0,0.0,0.0,0.0,0.0,0.0,0.0,0.0,0.0,0.0,0.0,0.0,0.0,0.0,0.0,0.0,0.0,0.0,0.0,0.0,0.0,0.0,0.0,0.0,0.0,0.0,0.0,0.0,0.0,0.0,0.0,0.0,0.0,0.0,0.0,0.0,0.0,0.0,0.0,0.0,0.0,0.0,0.0,0.0,0.0,0.0,0.0,0.0,0.0,0.0,0.0,0.0,0.0,0.0,0.0,0.0,0.0,0.0,0.0,0.0,0.0,0.0,0.0,0.0,0.0,0.0,0.0,0.0,0.0,0.0,0.0,0.0,0.0,0.0,0.0,0.0,0.0,0.0,0.0,0.0,0.0,0.0,0.0,2.9369,0.0,2.9397,2.9058,2.7603,2.6432,0.0,0.0,0.0,0.0,0.0,0.0,0.0,0.0,0.0,0.0,0.0,0.0,0.0,0.0,0.0,0.0,0.0,0.0,0.0,0.0,0.0,0.0,0.0,0.0,0.0,0.0,0.0,0.0,0.0,0.0,0.0,0.0,0.0,0.0,0.0,0.0,0.0,0.0,0.0,0.0,0.0,0.0,0.0,0.0,0.0,0.0,0.0,0.0,0.0,0.0,0.0,0.0,0.0,0.0,0.0,0.0,0.0,0.0,0.0,0.0,0.0,0.0,0.0,0.0,0.0,0.0,0.0,0.0,0.0,0.0,0.0,0.0,0.0,0.0,0.0,0.0,0.0,0.0,0.0,0.0,0.0,0.0,0.0,0.0,0.0,0.0,0.0,0.0,0.0,0.0,0.0,0.0,0.0,0.0,0.0,0.0,0.0,0.0,0.0,0.0,0.0,0.0,0.0,0.0,0.0,0.0,0.0,0.0,2.8427,2.9354,2.9441,2.9358,2.9085,2.7523,2.6413,0.0,0.0,0.0,0.0,0.0,0.0,0.0,0.0,0.0,0.0,0.0,0.0,0.0,0.0,0.0,0.0,0.0,0.0,0.0,0.0,0.0,0.0,0.0,0.0,0.0,0.0,0.0,0.0,0.0,0.0,0.0,0.0,0.0,0.0,0.0,0.0,0.0,0.0,0.0,0.0,0.0,0.0,0.0,0.0,0.0,0.0,0.0,0.0,0.0,0.0,0.0,0.0,0.0,0.0,0.0,0.0,0.0,0.0,0.0,0.0,0.0,0.0,0.0,0.0,0.0,0.0,0.0,0.0,0.0,0.0,0.0,0.0,0.0,0.0,0.0,0.0,0.0,0.0,0.0,0.0,0.0,0.0,0.0,0.0,0.0,0.0,0.0,0.0,0.0,0.0,0.0,0.0,0.0,0.0,0.0,0.0,0.0,0.0,0.0,0.0,0.0,0.0,0.0,0.0,0.0,0.0,0.0,0.0,0.0,2.9801,3.0233,3.0135,2.9509,2.8421,2.7242,0.0,0.0,0.0,0.0,0.0,0.0,0.0,0.0,0.0,0.0,0.0,0.0,0.0,0.0,0.0,0.0,0.0,0.0,0.0,0.0,0.0,0.0,0.0,0.0,0.0,0.0,0.0,0.0,0.0,0.0,0.0,0.0,0.0,0.0,0.0,0.0,0.0,0.0,0.0,0.0,0.0,0.0,0.0,0.0,0.0,0.0,0.0,0.0,0.0,0.0,0.0,0.0,0.0,0.0,0.0,0.0,0.0,0.0,0.0,0.0,0.0,0.0,0.0,0.0,0.0,0.0,0.0,0.0,0.0,0.0,0.0,0.0,0.0,0.0,0.0,0.0,0.0,0.0,0.0,0.0,0.0,0.0,0.0,0.0,0.0,0.0,0.0,0.0,0.0,0.0,0.0,0.0,0.0,0.0,0.0,0.0,0.0,0.0,0.0,0.0,0.0,0.0,0.0,0.0,0.0,0.0,0.0,0.0,0.0,3.1114,3.0892,3.0641,3.0455,2.9016,2.764,2.6269,0.0,0.0,0.0,0.0,0.0,0.0,0.0,0.0,0.0,0.0,0.0,0.0,0.0,0.0,0.0,0.0,0.0,0.0,0.0,0.0,0.0,0.0,0.0,0.0,0.0,0.0,0.0,0.0,0.0,0.0,0.0,0.0,0.0,0.0,0.0,0.0,0.0,0.0,0.0,0.0,0.0,0.0,0.0,0.0,0.0,0.0,0.0,0.0,0.0,0.0,0.0,0.0,0.0,0.0,0.0,0.0,0.0,0.0,0.0,0.0,0.0,0.0,0.0,0.0,0.0,0.0,0.0,0.0,0.0,0.0,0.0,0.0,0.0,0.0,0.0,0.0,0.0,0.0,0.0,0.0,0.0,0.0,0.0,0.0,0.0,0.0,0.0,0.0,0.0,0.0,0.0,0.0,0.0,0.0,0.0,0.0,0.0,0.0,0.0,0.0,0.0,0.0,0.0,0.0,0.0,0.0,0.0,0.0,3.3146,3.1474,3.096,3.1731,2.9479,2.7766,0.0,0.0,0.0,0.0,0.0,0.0,0.0,0.0,0.0,0.0,0.0,0.0,0.0,0.0,0.0,0.0,0.0,0.0,0.0,0.0,0.0,0.0,0.0,0.0,0.0,0.0,0.0,0.0,0.0,0.0,0.0,0.0,0.0,0.0,0.0,0.0,0.0,0.0,0.0,0.0,0.0,0.0,0.0,0.0,0.0,0.0,0.0,0.0,0.0,0.0,0.0,0.0,0.0,0.0,0.0,0.0,0.0,0.0,0.0,0.0,0.0,0.0,0.0,0.0,0.0,0.0,0.0,0.0,0.0,0.0,0.0,0.0,0.0,0.0,0.0,0.0,0.0,0.0,0.0,0.0,0.0,0.0,0.0,0.0,0.0,0.0,0.0,0.0,0.0,0.0,0.0,0.0,0.0,0.0,0.0,0.0,0.0,0.0,0.0,0.0,0.0,0.0,0.0,0.0,0.0,0.0,0.0,0.0,0.0,3.3751,3.2307,3.1948,3.2888,3.15,2.9519,0.0,0.0,0.0,0.0,0.0,0.0,0.0,0.0,0.0,0.0,0.0,0.0,0.0,0.0,0.0,0.0,0.0,0.0,0.0,0.0,0.0,0.0,0.0,0.0,0.0,0.0,0.0,0.0,0.0,0.0,0.0,0.0,0.0,0.0,0.0,0.0,0.0,0.0,0.0,0.0,0.0,0.0,0.0,0.0,0.0,0.0,0.0,0.0,0.0,0.0,0.0,0.0,0.0,0.0,0.0,0.0,0.0,0.0,0.0,0.0,0.0,0.0,0.0,0.0,0.0,0.0,0.0,0.0,0.0,0.0,0.0,0.0,0.0,0.0,0.0,0.0,0.0,0.0,0.0,0.0,0.0,0.0,0.0,0.0,0.0,0.0,0.0,0.0,0.0,0.0,0.0,0.0,0.0,0.0,0.0,0.0,0.0,0.0,0.0,0.0,0.0,0.0,0.0,0.0,0.0,0.0,0.0,0.0,3.2011,3.4033,3.3428,3.3268,3.3637,3.206,3.0069,0.0,0.0,0.0,0.0,0.0,0.0,0.0,0.0,0.0,0.0,0.0,0.0,0.0,0.0,0.0,0.0,0.0,0.0,0.0,0.0,0.0,0.0,0.0,0.0,0.0,0.0,0.0,0.0,0.0,0.0,0.0,0.0,0.0,0.0,0.0,0.0,0.0,0.0,0.0,0.0,0.0,0.0,0.0,0.0,0.0,0.0,0.0,0.0,0.0,0.0,0.0,0.0,0.0,0.0,0.0,0.0,0.0,0.0,0.0,0.0,0.0,0.0,0.0,0.0,0.0,0.0,0.0,0.0,0.0,0.0,0.0,0.0,0.0,0.0,0.0,0.0,0.0,0.0,0.0,0.0,0.0,0.0,0.0,0.0,0.0,0.0,0.0,0.0,0.0,0.0,0.0,0.0,0.0,0.0,0.0,0.0,0.0,0.0,0.0,0.0,0.0,0.0,0.0,0.0,0.0,0.0,0.0,0.0,3.2632,3.3784,3.4198,3.4218,3.3848,3.1798,2.9959,0.0,0.0,0.0,0.0,0.0,0.0,0.0,0.0,0.0,0.0,0.0,0.0,0.0,0.0,0.0,0.0,0.0,0.0,0.0,0.0,0.0,0.0,0.0,0.0,0.0,0.0,0.0,0.0,0.0,0.0,0.0,0.0,0.0,0.0,0.0,0.0,0.0,0.0,0.0,0.0,0.0,0.0,0.0,0.0,0.0,0.0,0.0,0.0,0.0,0.0,0.0,0.0,0.0,0.0,0.0,0.0,0.0,0.0,0.0,0.0,0.0,0.0,0.0,0.0,0.0,0.0,0.0,0.0,0.0,0.0,0.0,0.0,0.0,0.0,0.0,0.0,0.0,0.0,0.0,0.0,0.0,0.0,0.0,0.0,0.0,0.0,0.0,0.0,0.0,0.0,0.0,0.0,0.0,0.0,0.0,0.0,0.0,0.0,0.0,0.0,0.0,0.0,0.0,0.0,0.0,0.0,0.0,0.0,3.1921,3.3177,3.228,3.2182,3.3103,3.2268,3.0704,0.0,0.0,0.0,0.0,0.0,0.0,0.0,0.0,0.0,0.0,0.0,0.0,0.0,0.0,0.0,0.0,0.0,0.0,0.0,0.0,0.0,0.0,0.0,0.0,0.0,0.0,0.0,0.0,0.0,0.0,0.0,0.0,0.0,0.0,0.0,0.0,0.0,0.0,0.0,0.0,0.0,0.0,0.0,0.0,0.0,0.0,0.0,0.0,2.0546,0.0,0.0,0.0,0.0,0.0,0.0,0.0,0.0,0.0,0.0,0.0,0.0,0.0,0.0,0.0,0.0,0.0,0.0,0.0,0.0,0.0,0.0,0.0,0.0,0.0,0.0,0.0,0.0,0.0,0.0,0.0,0.0,0.0,0.0,0.0,0.0,0.0,0.0,0.0,0.0,0.0,0.0,0.0,0.0,0.0,0.0,0.0,0.0,0.0,0.0,0.0,0.0,0.0,0.0,0.0,0.0,0.0,0.0,0.0,3.131,3.1734,3.0966,3.0863,3.1412,3.1066,3.0024,0.0,0.0,0.0,0.0,0.0,0.0,0.0,0.0,0.0,0.0,0.0,0.0,0.0,0.0,0.0,0.0,0.0,0.0,0.0,0.0,0.0,0.0,0.0,0.0,0.0,0.0,0.0,0.0,0.0,0.0,0.0,0.0,0.0,0.0,0.0,0.0,0.0,0.0,0.0,0.0,0.0,0.0,0.0,0.0,0.0,0.0,0.0,0.0,0.0,0.0,0.0,0.0,0.0,0.0,0.0,0.0,0.0,0.0,0.0,0.0,0.0,0.0,0.0,0.0,0.0,0.0,0.0,0.0,0.0,0.0,0.0,0.0,0.0,0.0,0.0,0.0,0.0,0.0,0.0,0.0,0.0,0.0,0.0,0.0,0.0,0.0,0.0,0.0,0.0,0.0,0.0,0.0,0.0,0.0,0.0,0.0,0.0,0.0,0.0,0.0,0.0,0.0,0.0,0.0,0.0,0.0,0.0,3.0588,3.0876,3.0216,3.0119,2.9978,2.9691,2.9374,2.879,2.7855,0.0,0.0,0.0,0.0,0.0,0.0,0.0,0.0,0.0,0.0,0.0,0.0,0.0,0.0,0.0,0.0,0.0,0.0,0.0,0.0,0.0,0.0,0.0,0.0,0.0,0.0,0.0,0.0,0.0,0.0,0.0,0.0,0.0,0.0,0.0,0.0,0.0,0.0,1.7602,1.8484,0.0,0.0,0.0,0.0,0.0,0.0,0.0,0.0,2.1832,0.0,0.0,0.0,0.0,0.0,0.0,0.0,0.0,0.0,0.0,0.0,0.0,0.0,0.0,0.0,0.0,0.0,0.0,0.0,0.0,0.0,0.0,0.0,0.0,0.0,0.0,0.0,0.0,0.0,0.0,0.0,0.0,0.0,0.0,0.0,0.0,0.0,0.0,0.0,0.0,0.0,0.0,0.0,0.0,0.0,0.0,0.0,0.0,0.0,0.0,0.0,0.0,0.0,0.0,0.0,0.0,2.8821,3.0395,3.0692,2.9645,2.963,2.9478,2.9216,2.8728,2.79,2.6728,0.0,0.0,0.0,0.0,0.0,0.0,0.0,0.0,0.0,0.0,0.0,0.0,0.0,0.0,0.0,0.0,0.0,0.0,0.0,0.0,0.0,0.0,0.0,0.0,0.0,0.0,0.0,0.0,0.0,0.0,0.0,0.0,0.0,0.0,0.0,0.0,0.0,0.0,0.0,2.0201,2.0429,0.0,0.0,0.0,0.0,0.0,0.0,0.0,0.0,2.3397,0.0,0.0,0.0,0.0,0.0,0.0,0.0,0.0,0.0,0.0,0.0,0.0,0.0,0.0,0.0,0.0,0.0,0.0,0.0,0.0,0.0,0.0,0.0,0.0,0.0,0.0,0.0,0.0,0.0,0.0,0.0,0.0,0.0,0.0,0.0,0.0,0.0,0.0,0.0,0.0,0.0,0.0,0.0,0.0,0.0,0.0,0.0,0.0,0.0,0.0,0.0,0.0,0.0,0.0,0.0,2.8552,2.949,2.9724,2.9146,2.9141,2.8931,2.8552,2.8018,2.7195,0.0,0.0,0.0,0.0,0.0,0.0,0.0,0.0,0.0,0.0,0.0,0.0,0.0,0.0,0.0,0.0,0.0,0.0,0.0,0.0,0.0,0.0,0.0,0.0,0.0,0.0,0.0,0.0,0.0,0.0,0.0,0.0,0.0,0.0,0.0,0.0,0.0,0.0,0.0,0.0,2.1982,2.2454,2.4104,0.0,0.0,0.0,0.0,0.0,0.0,2.4288,2.372,0.0,0.0,0.0,0.0,0.0,0.0,0.0,0.0,0.0,0.0,0.0,0.0,0.0,0.0,0.0,0.0,0.0,0.0,0.0,0.0,0.0,0.0,0.0,0.0,0.0,0.0,0.0,0.0,0.0,0.0,0.0,0.0,0.0,0.0,0.0,0.0,0.0,0.0,0.0,0.0,0.0,0.0,0.0,0.0,0.0,0.0,0.0,0.0,0.0,0.0,0.0,0.0,0.0,0.0,0.0,2.86,2.9132,2.9345,2.9181,2.9132,2.8825,2.8229,2.7513,2.6672,0.0,0.0,0.0,0.0,0.0,0.0,0.0,0.0,0.0,0.0,0.0,0.0,0.0,0.0,0.0,0.0,0.0,0.0,0.0,0.0,0.0,0.0,0.0,0.0,0.0,0.0,0.0,0.0,0.0,0.0,0.0,0.0,0.0,0.0,0.0,0.0,0.0,0.0,0.0,0.0,0.0,2.4285,2.5872,2.5255,0.0,0.0,0.0,0.0,2.5475,2.5177,0.0,0.0,0.0,0.0,0.0,0.0,0.0,0.0,0.0,0.0,0.0,0.0,0.0,0.0,0.0,0.0,0.0,0.0,0.0,0.0,0.0,0.0,0.0,0.0,0.0,0.0,0.0,0.0,0.0,0.0,0.0,0.0,0.0,0.0,0.0,0.0,0.0,0.0,0.0,0.0,0.0,0.0,0.0,0.0,0.0,0.0,0.0,0.0,0.0,0.0,0.0,0.0,0.0,0.0,0.0,0.0,2.936,3.0589,3.0939,3.044,3.0205,2.9743,2.8898,2.7603,2.6541,0.0,0.0,0.0,0.0,0.0,0.0,0.0,0.0,0.0,0.0,0.0,0.0,0.0,0.0,0.0,0.0,0.0,0.0,0.0,0.0,0.0,0.0,0.0,0.0,0.0,0.0,0.0,0.0,0.0,0.0,0.0,0.0,0.0,0.0,0.0,0.0,0.0,0.0,0.0,0.0,0.0,2.4548,2.5927,2.5485,2.4746,0.0,0.0,2.6715,2.6881,2.8451,0.0,0.0,0.0,0.0,0.0,0.0,0.0,0.0,0.0,0.0,0.0,0.0,0.0,0.0,0.0,0.0,0.0,0.0,0.0,0.0,0.0,0.0,0.0,0.0,0.0,0.0,0.0,0.0,0.0,0.0,0.0,0.0,0.0,0.0,0.0,0.0,0.0,0.0,0.0,0.0,0.0,0.0,0.0,0.0,0.0,0.0,0.0,0.0,0.0,0.0,0.0,0.0,0.0,0.0,0.0,2.8453,3.0072,3.0421,3.0629,3.0796,3.0291,2.9626,2.8786,2.7656,2.6628,0.0,0.0,0.0,0.0,0.0,0.0,0.0,0.0,0.0,0.0,0.0,0.0,0.0,0.0,0.0,0.0,0.0,0.0,0.0,0.0,0.0,0.0,0.0,0.0,0.0,0.0,0.0,0.0,0.0,0.0,0.0,0.0,0.0,0.0,0.0,0.0,0.0,0.0,0.0,0.0,0.0,0.0,2.6064,2.6627,0.0,0.0,0.0,2.7419,2.6986,0.0,0.0,0.0,0.0,0.0,0.0,0.0,0.0,0.0,0.0,0.0,0.0,0.0,0.0,0.0,0.0,0.0,0.0,0.0,0.0,0.0,0.0,0.0,0.0,0.0,0.0,0.0,0.0,0.0,0.0,0.0,0.0,0.0,0.0,0.0,0.0,0.0,0.0,0.0,0.0,0.0,0.0,0.0,0.0,0.0,0.0,0.0,0.0,0.0,0.0,0.0,0.0,0.0,0.0,0.0,0.0,0.0,3.0803,3.0519,3.0694,3.1389,3.046,2.9569,2.8677,2.7404,0.0,0.0,0.0,0.0,0.0,0.0,0.0,0.0,0.0,0.0,0.0,0.0,0.0,0.0,0.0,0.0,0.0,0.0,0.0,0.0,0.0,0.0,0.0,0.0,0.0,0.0,0.0,1.3569,0.0,0.0,0.0,0.0,0.0,0.0,0.0,0.0,0.0,0.0,0.0,0.0,0.0,0.0,2.6572,2.6254,2.732,2.7998,0.0,0.0,2.7922,2.7555,2.8849,2.8795,0.0,0.0,0.0,0.0,0.0,0.0,0.0,0.0,0.0,0.0,0.0,0.0,0.0,0.0,0.0,0.0,0.0,0.0,0.0,0.0,0.0,0.0,0.0,0.0,0.0,0.0,0.0,0.0,0.0,0.0,0.0,0.0,0.0,0.0,0.0,0.0,0.0,0.0,0.0,0.0,0.0,0.0,0.0,0.0,0.0,0.0,0.0,0.0,0.0,0.0,0.0,0.0,0.0,0.0,2.9618,3.1559,3.1763,3.2109,3.2592,3.1197,2.9943,2.8881,2.67,2.5399,0.0,0.0,0.0,0.0,0.0,0.0,0.0,0.0,0.0,0.0,0.0,0.0,0.0,0.0,0.0,0.0,0.0,0.0,0.0,0.0,0.0,0.0,0.0,0.0,0.0,0.0,0.0,0.0,0.0,0.0,0.0,0.0,0.0,0.0,0.0,0.0,0.0,0.0,0.0,0.0,0.0,2.6186,2.6526,2.6923,2.789,0.0,0.0,2.8646,2.9355,3.1608,3.147,2.5888,0.0,0.0,0.0,0.0,0.0,0.0,0.0,0.0,0.0,0.0,0.0,0.0,0.0,0.0,0.0,0.0,0.0,0.0,0.0,0.0,0.0,0.0,0.0,0.0,0.0,0.0,0.0,0.0,0.0,0.0,0.0,0.0,0.0,0.0,0.0,0.0,0.0,0.0,0.0,0.0,0.0,0.0,0.0,0.0,0.0,0.0,0.0,0.0,0.0,0.0,0.0,0.0,0.0,3.0092,3.1562,3.1804,3.198,3.2012,3.0841,2.9709,2.8669,2.7102,2.5811,0.0,0.0,0.0,0.0,0.0,0.0,0.0,0.0,0.0,0.0,0.0,0.0,0.0,0.0,0.0,0.0,0.0,0.0,0.0,0.0,0.0,0.0,0.0,0.0,0.0,0.0,0.0,0.0,1.5681,1.5487,1.5321,0.0,0.0,0.0,0.0,0.0,0.0,0.0,0.0,0.0,0.0,2.6943,2.8305,2.9087,0.0,0.0,3.0384,2.9966,2.8626,2.9583,2.8839,2.3979,2.2429,0.0,0.0,0.0,0.0,0.0,0.0,0.0,0.0,0.0,0.0,0.0,0.0,0.0,0.0,0.0,0.0,0.0,0.0,0.0,0.0,0.0,0.0,0.0,0.0,0.0,0.0,0.0,0.0,0.0,0.0,0.0,0.0,0.0,0.0,0.0,0.0,0.0,0.0,0.0,0.0,0.0,0.0,0.0,0.0,0.0,0.0,0.0,0.0,0.0,0.0,0.0,0.0,3.0314,3.1492,3.1693,3.1709,3.1615,3.037,2.9262,2.8358,2.7261,2.604,0.0,0.0,0.0,0.0,0.0,0.0,0.0,0.0,0.0,0.0,0.0,0.0,0.0,0.0,0.0,0.0,0.0,0.0,0.0,0.0,0.0,0.0,0.0,0.0,0.0,0.0,0.0,0.0,1.5749,1.5354,1.5261,0.0,0.0,0.0,0.0,0.0,0.0,0.0,0.0,0.0,0.0,2.7553,2.8585,2.9322,2.9713,2.9564,2.9359,2.8704,2.7173,2.7068,2.588,2.2219,0.0,0.0,0.0,0.0,0.0,0.0,0.0,0.0,0.0,0.0,0.0,0.0,0.0,0.0,0.0,0.0,0.0,0.0,0.0,0.0,0.0,0.0,0.0,0.0,0.0,0.0,0.0,0.0,0.0,0.0,2.2337,0.0,0.0,0.0,0.0,0.0,0.0,0.0,0.0,0.0,0.0,0.0,0.0,0.0,0.0,0.0,0.0,0.0,0.0,0.0,0.0,0.0,0.0,3.0127,3.1446,3.146,3.1489,3.152,2.9979,2.8735,2.7935,2.6928,2.5788,2.4413,0.0,0.0,0.0,0.0,0.0,0.0,0.0,0.0,0.0,0.0,0.0,0.0,0.0,0.0,0.0,0.0,0.0,0.0,0.0,0.0,0.0,0.0,0.0,0.0,0.0,0.0,1.4545,1.4756,1.5063,0.0,0.0,0.0,0.0,0.0,0.0,0.0,0.0,0.0,0.0,2.5474,2.7812,2.667,2.6799,2.7261,2.7587,2.5418,2.4124,2.5371,2.4718,2.3292,0.0,0.0,0.0,0.0,0.0,0.0,0.0,0.0,0.0,0.0,0.0,0.0,0.0,0.0,0.0,0.0,0.0,0.0,0.0,0.0,0.0,0.0,0.0,0.0,0.0,0.0,0.0,2.4747,2.4221,0.0,0.0,0.0,0.0,0.0,0.0,0.0,0.0,0.0,0.0,0.0,2.4159,2.521,0.0,0.0,0.0,0.0,0.0,0.0,0.0,0.0,0.0,0.0,0.0,0.0,2.8926,2.9754,3.0106,3.0228,3.0041,2.9001,2.8273,2.7915,2.6626,2.5047,2.3203,0.0,0.0,0.0,0.0,0.0,0.0,0.0,0.0,0.0,0.0,0.0,0.0,0.0,0.0,0.0,0.0,0.0,0.0,0.0,0.0,0.0,0.0,0.0,0.0,0.0,1.486,0.0,0.0,0.0,0.0,0.0,0.0,0.0,0.0,0.0,0.0,0.0,2.0998,2.3156,2.4379,2.5375,2.626,2.6907,2.7343,0.0,0.0,0.0,0.0,0.0,0.0,0.0,0.0,0.0,0.0,0.0,0.0,0.0,0.0,1.821,1.7304,1.771,1.8239,1.841,0.0,0.0,0.0,0.0,0.0,0.0,0.0,0.0,0.0,0.0,0.0,0.0,0.0,0.0,2.5435,0.0,2.4421,0.0,0.0,0.0,0.0,0.0,0.0,0.0,0.0,2.4976,2.4952,2.4628,2.5859,2.619,0.0,2.602,2.549,0.0,0.0,0.0,0.0,0.0,0.0,0.0,0.0,2.8297,2.8993,2.9217,2.9271,2.9116,2.8468,2.8064,2.7943,2.6655,2.5132,2.3457,2.2916,2.187,0.0,0.0,0.0,0.0,0.0,0.0,0.0,0.0,0.0,0.0,0.0,0.0,0.0,0.0,0.0,0.0,0.0,0.0,0.0,0.0,0.0,0.0,0.0,1.5072,0.0,0.0,0.0,0.0,0.0,0.0,0.0,0.0,0.0,2.0237,2.0747,2.1964,2.4482,2.4771,2.4904,2.5248,0.0,0.0,0.0,0.0,0.0,0.0,0.0,1.8721,1.6527,1.6106,1.6177,1.6549,1.749,1.8307,1.852,0.0,0.0,1.8472,1.8808,1.9312,1.9664,1.972,1.9918,2.0644,2.1514,2.2423,0.0,0.0,0.0,0.0,0.0,0.0,0.0,0.0,2.4558,2.4438,0.0,2.3401,0.0,0.0,0.0,0.0,0.0,2.4256,0.0,0.0,2.4492,2.4994,2.6084,2.7088,2.7382,2.7075,2.7146,2.6924,2.6411,2.573,0.0,0.0,0.0,0.0,0.0,0.0,2.8245,2.9166,2.8735,2.8659,2.888,2.8339,2.8059,2.802,2.7013,2.6021,2.5141,2.4136,2.2975,2.1722,2.025,0.0,0.0,0.0,0.0,0.0,0.0,0.0,0.0,0.0,0.0,0.0,0.0,0.0,0.0,0.0,0.0,0.0,0.0,0.0,0.0,1.4854,0.0,0.0,0.0,0.0,0.0,0.0,0.0,0.0,0.0,0.0,2.0775,2.2064,2.365,2.5377,0.0,0.0,0.0,0.0,2.386,2.0253,1.8918,1.8164,1.7481,1.7122,1.6914,1.6852,0.0,0.0,1.7985,1.8011,1.8136,1.8092,1.9582,2.0496,2.0007,1.9943,2.0077,2.0621,2.0736,2.1439,2.3187,2.3293,2.3653,2.3806,0.0,0.0,0.0,0.0,2.461,2.4661,2.4517,2.5162,2.4925,2.4065,2.4122,0.0,0.0,0.0,0.0,0.0,0.0,2.4808,2.554,2.5996,2.6518,2.7096,2.8397,2.875,2.8324,2.8349,2.8166,2.775,2.7251,2.6615,2.5893,0.0,0.0,0.0,0.0,2.7364,2.7889,2.7486,2.7692,2.8597,2.7756,2.729,2.7316,2.7024,2.6582,2.6035,2.5396,2.4493,2.319,2.1246,0.0,0.0,0.0,0.0,0.0,0.0,0.0,0.0,0.0,0.0,0.0,0.0,0.0,0.0,0.0,0.0,0.0,0.0,0.0,1.5208,1.5519,1.5554,0.0,0.0,0.0,0.0,0.0,0.0,0.0,0.0,0.0,2.1549,2.1174,2.1365,0.0,0.0,2.1545,2.0553,2.1299,2.1502,2.0229,1.9966,0.0,1.9269,1.8685,1.8115,1.7599,1.8189,1.8818,1.9004,1.9972,2.0824,2.1042,2.1515,2.1905,2.1978,2.1664,2.1435,2.1598,2.1644,2.2139,2.365,2.4805,2.604,2.3354,2.3419,2.3449,2.3787,2.4287,2.4674,2.4634,2.4362,2.4969,2.4754,2.3914,2.3972,2.4002,2.3978,2.4463,0.0,0.0,0.0,2.5774,2.6363,2.6958,2.7437,2.7846,2.8813,2.9116,2.8851,2.8729,2.8535,2.8281,2.7727,2.7341,2.7012,0.0,0.0,2.7451,2.7183,2.7317,2.7766,2.7142,2.7309,2.8261,2.7767,2.7519,2.7519,2.7493,2.7117,2.6231,2.5939,2.4983,2.3268,2.1404,1.9949,0.0,0.0,0.0,0.0,0.0,0.0,0.0,0.0,0.0,0.0,0.0,1.2882,1.2956,0.0,0.0,0.0,1.4317,1.496,1.5703,1.5759,0.0,0.0,0.0,0.0,0.0,0.0,0.0,1.8149,2.0106,2.153,2.1577,2.0614,2.0512,2.2191,2.1424,2.0469,1.9877,0.0,2.0884,2.0098,1.9992,1.987,1.9459,1.9172,1.8906,1.8752,1.9166,1.9586,1.9866,2.0915,2.1731,2.1958,2.2238,2.2472,2.2659,2.2519,2.2358,2.2372,2.2826,2.3719,2.5213,2.6706,2.816,2.2825,2.3287,2.4396,2.489,2.5012,2.5235,2.4742,2.3895,2.4161,2.4024,2.3481,2.32,2.3593,2.4509,2.5147,0.0,2.5944,2.6505,2.677,2.6942,2.7403,2.7955,2.8502,2.8782,2.8937,2.8996,2.8555,2.834,2.8327,2.7569,2.7623,2.8399,2.7819,2.7844,2.8418,2.7893,2.7871,2.8464,2.7594,2.7388,2.791,2.8094,2.823,2.8242,2.8123,2.7378,2.5976,2.5725,2.463,2.2435,2.0917,1.9739,1.8909,0.0,0.0,0.0,0.0,0.0,0.0,0.0,0.0,0.0,0.0,0.0,0.0,0.0,0.0,0.0,1.4919,0.0,1.6219,1.5855,0.0,0.0,0.0,1.6487,1.6739,1.8677,2.005,2.0267,0.0,0.0,2.1094,2.0328,2.0668,2.3171,2.2673,2.1658,2.0663,2.1303,2.1411,1.9903,1.9463,1.9168,1.9036,1.9136,1.9527,1.9996,2.0406,2.0564,2.0604,2.1051,2.1404,2.1561,2.2011,2.2445,2.2445,2.2774,2.303,2.3106,2.408,2.5506,2.7304,2.8461,2.9661,2.369,2.3845,2.4419,2.4399,2.3945,2.3749,2.3535,2.3303,2.3365,2.3097,2.2556,2.2676,2.272,2.2736,2.2871,2.3136,2.3518,2.4837,2.6018,2.6994,2.8093,2.9189,3.0248,2.9997,2.9898,2.9815,2.9121,2.8769,2.875,2.8251,2.8271,2.8763,2.8613,2.8522,2.8442,2.8914,2.8873,2.8338,2.812,2.7741,2.7264,2.7291,2.748,2.7839,2.6705,2.6053,2.5947,2.4342,2.3186,2.2587,2.0536,1.9229,1.8965,1.6448,0.0,0.0,0.0,0.0,0.0,0.0,0.0,0.0,0.0,1.3145,1.3404,0.0,1.4074,0.0,1.5601,1.6429,1.6839,1.6941,0.0,0.0,1.682,1.7108,1.745,1.9758,2.0796,1.9406,2.1133,2.1934,2.0613,2.0226,2.049,2.1561,2.1096,2.0414,2.0002,2.0503,2.0745,2.0229,2.0346,2.054,2.038,2.0426,2.051,2.0741,2.1,2.1215,2.1331,2.1594,2.1912,2.2125,2.2264,2.2465,2.2719,2.3468,2.4176,2.4447,2.4771,2.5797,2.8345,2.9136,2.9822,2.379,2.3964,2.4228,2.4104,2.3778,2.3621,2.3545,2.353,2.3226,2.2829,2.238,2.2364,2.2445,2.2571,2.287,2.3323,2.4007,2.5612,2.69,2.7884,2.9183,3.0065,3.0586,3.0341,3.0098,2.9902,2.91,2.8789,2.8879,2.8361,2.8291,2.8652,2.8859,2.8883,2.875,2.938,2.9556,2.9239,2.8705,2.7776,2.6423,2.6503,2.6282,2.5581,2.4883,2.4193,2.3478,2.2161,2.1042,2.0122,1.8588,1.7587,1.7236,1.5341,1.4059,0.0,0.0,0.0,0.0,0.0,0.0,0.0,0.0,0.0,0.0,0.0,1.479,1.5185,1.6111,1.6822,1.7132,1.7265,1.7305,1.716,1.7526,1.7896,1.8209,2.0284,2.1347,2.0487,2.1785,2.2417,2.1376,2.0869,2.0702,2.1051,2.0761,2.0487,2.0375,2.0637,2.0771,2.0626,2.0876,2.1086,2.1048,2.1149,2.1215,2.126,2.1496,2.1694,2.1777,2.1903,2.2044,2.2191,2.2218,2.2438,2.3036,2.3746,2.4627,2.6057,2.6551,2.7292,2.8936,2.9805,3.0617,2.3633,2.39,2.4017,2.4028,2.4012,2.4074,2.4058,2.3985,2.3343,2.2932,2.2649,2.2377,2.2546,2.312,2.3697,2.4437,2.5349,2.6918,2.7982,2.8653,2.9991,3.049,3.0236,3.0206,3.0028,2.9648,2.8934,2.8683,2.8824,2.8211,2.8049,2.8342,2.8812,2.9058,2.906,2.9345,2.9668,3.0001,2.8908,2.7345,2.5361,2.5577,2.4783,2.2945,2.2888,2.2048,2.0287,1.9709,1.8605,1.682,1.61,1.5545,1.5097,1.4088,1.3484,0.0,1.2846,0.0,0.0,0.0,0.0,0.0,0.0,0.0,0.0,1.5303,1.5603,1.6164,1.6678,1.7094,1.7332,1.7409,1.7516,1.7761,1.8274,1.8721,1.9081,2.0572,2.1714,2.2017,2.2294,2.2463,2.2298,2.1587,2.1056,2.1096,2.1077,2.1032,2.1077,2.1117,2.1144,2.1122,2.1109,2.1104,2.1197,2.1403,2.1609,2.1662,2.1817,2.201,2.1977,2.201,2.2024,2.2024,2.2169,2.2564,2.342,2.4021,2.5296,2.7536,2.8343,2.8847,2.9498,3.038,3.135,2.402,2.3927,2.4205,2.419,2.3986,2.4009,2.3879,2.3591,2.3168,2.3002,2.2992,2.2935,2.2981,2.3089,2.3241,2.3383,2.3666,2.5012,2.613,2.7034,2.8564,2.967,3.0325,3.0256,3.0156,3.0059,2.934,2.8834,2.8562,2.8164,2.8195,2.8593,2.8737,2.8762,2.8691,0.0,0.0,0.0,2.7292,2.5829,2.3777,2.3625,2.3202,2.2421,2.1059,0.0,1.9538,1.79,1.658,1.5709,1.4908,0.0,0.0,0.0,0.0,0.0,0.0,0.0,0.0,0.0,0.0,0.0,1.6267,1.6221,1.6138,1.6547,1.6972,1.7368,1.767,1.7975,1.8218,1.8443,1.8589,1.8658,1.9008,1.941,1.9929,2.0968,2.1608,2.1337,2.1875,2.2015,2.1483,2.1003,2.0855,2.1069,2.1109,2.1109,2.1109,2.1341,2.1395,2.1162,2.1136,2.1216,2.1462,2.1555,2.1716,2.1877,2.197,2.2037,2.2037,2.2037,2.1991,2.2024,2.2668,2.3322,2.3829,2.5286,2.6726,2.7904,2.8853,2.9717,3.0366,3.071,3.0904,2.4309,0.0,2.4121,2.3984,0.0,2.368,2.3528,2.3194,2.3059,2.2821,2.2577,2.2887,2.3028,2.3078,2.3604,2.3735,2.3699,2.5833,2.7008,2.7398,2.9293,3.0462,3.0936,3.0655,3.0441,3.0277,2.9556,2.8776,2.7909,2.7367,2.697,2.6721,2.6818,2.6806,2.6776,2.6644,2.6499,2.6324,2.5814,2.4474,2.2277,2.2272,2.1695,2.0427,1.9657,0.0,0.0,0.0,0.0,0.0,0.0,0.0,0.0,1.4041,0.0,1.4719,1.464,1.4938,1.5775,1.6107,1.661,1.7347,1.7686,1.7673,1.722,1.7588,1.7959,1.8242,1.8548,1.8858,1.9103,1.9279,1.9383,1.9517,1.9573,1.976,2.0191,2.0787,2.1115,2.0984,2.1333,2.1513,2.1145,2.0989,2.0949,2.1082,2.1109,2.1162,2.1328,2.1355,2.1296,2.1355,2.147,2.159,2.177,2.193,2.2004,2.2178,2.2325,2.2338,2.2218,2.2325,2.2372,2.217,2.293,2.3898,2.4511,2.5912,2.7359,2.8354,2.9167,2.9714,3.0167,3.0351,3.0567,2.4543,2.4235,2.4042,2.3749,2.338,2.3438,2.3268,2.296,0.0,0.0,0.0,2.3054,2.3351,2.3441,2.4308,2.4514,2.4384,2.6955,2.8122,2.8117,3.0258,3.1283,3.1306,3.1034,3.0586,2.9972,2.931,2.8243,2.6906,2.6201,2.5465,2.4721,2.476,2.4727,2.4596,2.4377,2.4269,2.4166,2.4286,2.3202,2.0962,2.1139,2.0257,1.8143,1.8303,1.7923,1.6862,1.5603,1.4595,1.3944,1.3571,1.3304,1.3197,1.3917,1.458,1.5159,1.5317,1.5895,1.7091,1.7429,1.7914,1.8676,1.8956,1.8884,1.8287,1.8537,1.8851,1.9103,1.9372,1.9613,1.9853,1.988,1.9943,2.017,2.0067,2.0054,2.0294,2.0575,2.0824,2.0775,2.0993,2.1096,2.1096,2.1096,2.1109,2.1109,2.1162,2.1269,2.1502,2.1416,2.1416,2.1636,2.1756,2.1871,2.197,2.2111,2.2352,2.2378,2.2645,2.28,2.2605,2.2659,2.2586,2.2071,2.3033,2.3998,2.4858,2.5988,2.7384,2.881,2.9289,2.9501,2.9519,2.9776,3.0039,2.485,2.4506,2.4245,2.4,2.375,2.3732,2.3522,2.3233,2.3317,2.3494,2.3772,2.4414,2.4726,2.4785,2.4964,2.4836,2.4628,2.594,2.6934,2.7739,2.9532,3.0485,3.0746,3.089,3.0065,2.8403,2.7943,2.688,2.534,2.4857,2.4585,2.4436,2.4454,2.4083,2.3329,2.2233,2.1389,2.0931,2.2483,2.2244,2.0042,2.0047,1.9024,1.6968,1.6702,1.5766,1.4069,1.3588,1.3041,1.2446,1.2134,1.2531,1.3792,1.4221,1.511,1.6712,1.735,1.7839,1.8223,1.8542,1.8935,1.9543,1.988,1.9797,1.9276,1.9466,1.9733,1.9983,2.0037,2.009,2.013,2.0144,2.017,2.0237,2.0428,2.0605,2.0615,2.0855,2.1029,2.1029,2.1082,2.1109,2.1109,2.1109,2.1109,2.1136,2.1328,2.1529,2.1596,2.177,2.189,2.1917,2.177,2.1676,2.1743,2.1871,2.2151,2.2345,2.2659,2.2827,2.2746,2.2565,2.2352,2.2031,2.2674,2.3591,2.4704,2.5839,2.7099,2.8529,2.8888,2.8984,2.8966,2.9021,2.9117,2.5384,2.5026,2.4623,2.4369,2.4209,2.3901,2.3701,2.3576,2.3651,2.3557,2.3482,2.4274,2.4689,2.4767,2.5144,2.5227,2.5149,2.6176,2.6905,2.7458,2.9495,2.993,2.91,2.9647,2.8775,2.6732,2.6503,2.5554,2.4055,2.3764,2.3335,2.2672,2.261,2.2403,2.1996,2.1411,2.0975,2.0708,2.1257,2.0916,1.9633,1.9571,1.9107,1.8119,1.735,1.6518,1.5652,1.417,1.3451,1.3567,1.3221,1.3712,1.5149,1.5835,1.6808,1.8224,1.8609,1.8942,1.9407,1.9508,1.9717,1.9983,2.013,2.0201,2.0124,2.0054,2.0064,2.0197,2.0344,2.0481,2.0468,2.0468,2.0535,2.0664,2.0695,2.0766,2.0895,2.1015,2.1096,2.1109,2.1109,2.1109,2.1109,2.1109,2.1109,2.1136,2.1363,2.1582,2.1641,2.1836,2.1924,2.1823,2.1796,2.1823,2.1823,2.2064,2.2258,2.2405,2.2525,2.2572,2.2465,2.2245,2.2017,2.1681,2.2414,2.3333,2.4007,2.5546,2.6815,2.7255,2.7788,2.7824,2.7664,2.7505,2.7623,2.5917,2.5571,2.4946,2.4666,2.4559,2.4088,2.3875,2.3906,2.3893,2.36,2.3286,2.4171,2.4728,2.4924,2.5319,2.5469,2.5525,2.6473,2.6986,2.7221,2.923,2.9298,2.7809,2.8348,2.7401,2.5372,2.5154,2.4377,2.3012,2.2855,2.2332,2.1405,2.1309,2.1309,2.1309,2.1309,2.1269,2.1189,2.0762,2.0241,1.9693,1.9335,1.9148,1.9076,1.7902,1.709,1.6734,1.5181,1.4421,1.4706,1.4695,1.5285,1.6576,1.7363,1.8261,1.9261,1.9462,1.9704,2.014,2.0264,2.0334,2.0304,2.0357,2.053,2.0846,2.0668,2.0464,2.0437,2.0655,2.0775,2.0806,2.0775,2.0869,2.1069,2.0922,2.0882,2.1069,2.1162,2.1162,2.1136,2.1216,2.1296,2.1229,2.1269,2.1363,2.147,2.1603,2.177,2.181,2.1943,2.189,2.1716,2.1783,2.1877,2.1911,2.2111,2.2271,2.2278,2.2392,2.2311,2.2111,2.1964,2.1783,2.1472,2.2088,2.2852,2.3228,2.4594,2.5846,2.6184,2.6453,2.6436,2.6217,2.5787,2.602,2.6212,2.5877,2.5291,2.4877,2.4586,2.4302,2.4168,2.4128,2.3919,2.3785,2.3851,2.4904,2.5696,2.6162,2.5703,2.5338,2.5169,2.6136,2.6586,2.6753,2.818,2.8389,2.7457,2.7294,2.6117,2.4324,2.4133,2.3425,2.2236,2.2146,2.2028,2.1911,2.1943,2.1884,2.1884,2.1884,2.1796,2.1555,2.1489,2.1181,2.0526,1.9078,1.8362,1.838,1.7116,1.5865,1.5051,1.5618,1.5608,1.4669,1.5607,1.6694,1.7655,1.807,1.8715,1.9698,2.0002,2.0153,2.0237,2.0481,2.0655,2.0655,2.0895,2.1149,2.1448,2.1462,2.1341,2.1109,2.1056,2.1096,2.1069,2.1082,2.1122,2.1176,2.1136,2.1082,2.1162,2.1349,2.1435,2.1136,2.1563,2.1804,2.1596,2.1689,2.1937,2.2084,2.2124,2.2178,2.2178,2.2071,2.1911,2.1689,2.1636,2.1649,2.1689,2.1877,2.2058,2.2084,2.2258,2.2218,2.2004,2.1783,2.1569,2.1467,2.141,2.1876,2.262,2.345,2.4022,2.4996,2.5226,2.5146,2.502,2.4425,2.4617,2.6587,2.6413,2.5877,2.5369,2.489,2.4546,2.4426,2.4399,2.4155,2.4165,2.4376,2.4676,2.5044,2.5468,2.5412,2.5321,2.5215,2.5426,2.5442,2.5452,2.6731,2.6537,2.5051,2.5616,2.4827,2.2944,2.2799,2.2536,2.2116,2.2164,2.2164,2.2017,2.2151,2.2164,2.2037,2.2024,2.1957,2.185,2.185,2.1777,2.1481,1.9693,1.9048,1.9631,1.786,1.6855,1.6945,1.6981,1.6846,1.6726,1.7402,1.8282,1.9425,1.9612,2.0002,2.0782,2.1112,2.1269,2.1269,2.1422,2.1489,2.1475,2.1563,2.1716,2.1823,2.1836,2.1783,2.1657,2.163,2.163,2.1617,2.163,2.163,2.163,2.163,2.1617,2.163,2.1737,2.1783,2.1657,2.183,2.1917,2.1676,2.1689,2.1877,2.2098,2.2178,2.2205,2.2164,2.2058,2.1951,2.1877,2.1836,2.1756,2.1676,2.1984,2.2098,2.2058,2.2071,2.2091,2.181,2.1483,2.1315,2.1328,2.1189,2.1235,2.174,2.2625,2.3355,2.3852,2.3716,2.358,2.3808,2.3081,2.3141,2.6894,2.668,2.6119,2.5583,2.5064,2.4733,2.4599,2.4572,2.4372,2.4498,2.4689,2.4471,2.4499,2.4734,2.4972,2.506,2.5102,2.4838,2.4552,2.4484,2.5449,2.4953,2.3479,2.4217,2.3921,2.2606,2.2505,2.2519,2.2498,2.2672,2.2672,2.2539,2.2686,2.2686,2.2498,2.2505,2.2505,2.2519,2.2505,2.2579,2.2468,2.0718,2.0195,2.1129,1.9063,1.8222,1.9039,1.8758,1.8621,1.8732,1.9253,2.0007,2.0901,2.101,2.1186,2.1657,2.1903,2.2024,2.2024,2.2024,2.2024,2.2024,2.2024,2.205,2.2084,2.2098,2.2151,2.2251,2.2231,2.2224,2.2024,2.2024,2.2024,2.2024,2.2024,2.2024,2.201,2.2044,2.2071,2.2004,2.2171,2.2151,2.1997,2.203,2.2117,2.2278,2.2291,2.2265,2.2238,2.2191,2.2111,2.2098,2.2044,2.193,2.177,2.1997,2.2138,2.201,2.189,2.1796,2.1542,2.1229,2.1109,2.1189,2.1122,2.1141,2.1362,2.2076,2.2446,2.2184,2.2172,2.2246,2.2186,2.1631,2.149,2.7122,2.6707,2.5853,2.5398,2.5115,2.4796,2.4613,2.4626,2.4586,2.4609,2.4619,2.4593,2.4583,2.4616,2.4467,2.4537,2.4742,2.4501,2.4328,2.4309,2.4451,2.4237,2.3893,2.3836,2.3633,2.322,2.3407,2.3603,2.3643,2.3696,2.375,2.3696,2.3683,2.371,2.3629,2.3603,2.3696,2.3603,2.3589,2.3683,2.3532,2.2162,2.1675,2.2142,2.0643,1.9787,2.005,2.1101,2.1213,1.9884,2.1093,2.1865,2.1931,2.1964,2.1944,2.2004,2.2004,2.2004,2.2017,2.2064,2.2031,2.205,2.2091,2.2111,2.2365,2.2405,2.2498,2.2813,2.2786,2.2599,2.2171,2.2131,2.2058,2.2058,2.2017,2.2064,2.2017,2.2271,2.2258,2.2164,2.2465,2.2679,2.276,2.284,2.2733,2.2773,2.2827,2.28,2.2733,2.2539,2.2432,2.2352,2.2205,2.1991,2.1964,2.2017,2.1897,2.177,2.1676,2.1542,2.1283,2.1077,2.1077,2.1109,2.1109,2.1109,2.1109,2.1137,2.1204,2.1226,2.1465,2.1479,2.1255,2.0588,2.054,2.7028,2.6507,2.6012,2.577,2.565,2.5317,2.5104,2.493,2.4917,2.4703,2.4396,2.4356,2.4319,2.4306,2.4286,2.4376,2.4632,2.4551,2.4403,2.4242,2.4228,2.4103,2.3846,2.3799,2.3763,2.3647,2.375,2.3817,2.383,2.3955,2.3955,2.387,2.3955,2.3968,2.3843,2.3817,2.3817,2.3817,2.3817,2.3861,2.4022,2.3347,2.3164,2.3461,2.1835,2.1296,2.2044,2.2778,2.2791,2.2112,2.2765,2.3161,2.3148,2.2953,2.2846,2.2832,2.2693,2.2586,2.2586,2.2572,2.2586,2.2586,2.2586,2.2565,2.2706,2.2733,2.2786,2.2867,2.2893,2.276,2.2666,2.2586,2.2586,2.2586,2.2572,2.2559,2.2586,2.2679,2.2693,2.2612,2.2653,2.2666,2.2813,2.2733,2.2659,2.2853,2.2893,2.2893,2.2893,2.2752,2.2686,2.2733,2.2639,2.2439,2.1991,2.1991,2.1943,2.1716,2.1569,2.1435,2.1216,2.1091,2.1109,2.1109,2.1109,2.1109,2.1096,2.0975,2.0869,2.0815,2.106,2.1047,2.0619,2.033,2.0307,2.6987,2.6507,2.6158,2.5998,2.5957,2.5638,2.5344,2.509,2.5077,2.4796,2.4409,2.4342,2.4359,2.4449,2.4382,2.4502,2.4706,2.4653,2.4529,2.4356,2.4306,2.4182,2.4017,2.4138,2.4142,2.4088,2.4191,2.4195,2.4195,2.4289,2.4235,2.4088,2.4249,2.4249,2.4075,2.4048,2.4124,2.4191,2.4102,2.4235,2.4529,2.4249,2.4195,2.4236,2.3188,2.2747,2.3465,2.3696,2.3688,2.3527,2.3696,2.3763,2.3621,2.3434,2.3252,2.3166,2.2979,2.2893,2.2893,2.2893,2.2893,2.2893,2.2893,2.2893,2.2893,2.2893,2.2893,2.2893,2.2893,2.2893,2.2893,2.2893,2.2893,2.2893,2.2893,2.2893,2.2893,2.2893,2.2893,2.284,2.2733,2.2699,2.2827,2.2719,2.2733,2.288,2.2893,2.2893,2.2893,2.2893,2.2893,2.288,2.276,2.2512,2.2218,2.2084,2.1777,2.1555,2.1462,2.1309,2.1243,2.1162,2.1109,2.1109,2.1109,2.1109,2.1042,2.0922,2.0815,2.0708,2.0842,2.0935,2.0615,2.033,2.0334,2.7094,2.6747,2.6252,2.6051,2.5998,2.5718,2.5384,2.5222,2.5181,2.4997,2.4679,2.4626,2.4823,2.497,2.4759,2.4823,2.4997,2.4773,2.4639,2.4636,2.4599,2.4479,2.4315,2.477,2.4863,2.4626,2.4917,2.5037,2.4997,2.4796,2.4626,2.4613,2.4626,2.4663,2.4586,2.4636,2.477,2.4877,2.473,2.4903,2.532,2.4879,2.477,2.4997,2.4634,2.4263,2.391,2.387,2.3834,2.3808,2.3857,2.3647,2.3479,2.3399,2.3247,2.3094,2.296,2.2934,2.2947,2.2974,2.3,2.3,2.2947,2.3,2.3027,2.3,2.3,2.3014,2.2987,2.296,2.2947,2.2974,2.296,2.2893,2.2893,2.2893,2.2893,2.2893,2.2893,2.2893,2.2853,2.2893,2.2893,2.2867,2.2867,2.288,2.2893,2.2893,2.2893,2.2893,2.2893,2.2853,2.2746,2.2525,2.2352,2.2151,2.171,2.1336,2.1296,2.1229,2.1243,2.1189,2.1122,2.1109,2.1109,2.1096,2.0975,2.0855,2.0828,2.0762,2.0869,2.0869,2.0628,2.0414,2.0361,2.7268,2.6827,2.6627,2.6426,2.6266,2.6159,2.5945,2.573,2.5717,2.5556,2.5239,2.5237,2.5253,2.5344,2.5239,2.5291,2.5358,2.5077,2.4943,2.4943,2.4943,2.4997,2.5117,2.5277,2.5331,2.5226,2.5331,2.5371,2.5358,2.5239,2.5237,2.5199,2.5186,2.513,2.4943,2.513,2.5224,2.509,2.5184,2.5306,2.5453,2.5344,2.5291,2.5358,2.5239,2.513,2.497,2.4583,2.4382,2.4332,2.4356,2.4279,2.4172,2.3999,2.3888,2.3781,2.3629,2.3522,2.3522,2.3509,2.3496,2.3522,2.3509,2.3522,2.3522,2.3509,2.3496,2.3509,2.3522,2.3455,2.326,2.3415,2.3335,2.2947,2.2893,2.292,2.292,2.2907,2.2893,2.2893,2.2893,2.2893,2.2893,2.2893,2.2893,2.2893,2.2893,2.2893,2.2893,2.2893,2.2893,2.288,2.2699,2.2565,2.2392,2.2298,2.2084,2.171,2.1537,2.1349,2.1323,2.1269,2.1189,2.1109,2.1109,2.1056,2.0922,2.0855,2.0828,2.0775,2.0802,2.0722,2.0588,2.0508,2.0468,2.7482,2.7148,2.7028,2.6814,2.656,2.6547,2.6359,2.6024,2.5998,2.5785,2.5545,2.5504,2.5585,2.5638,2.5571,2.5585,2.5638,2.5371,2.5304,2.5382,2.5181,2.5251,2.5504,2.5638,2.5745,2.5798,2.5732,2.5678,2.5665,2.5558,2.5451,2.5371,2.5358,2.5197,2.4957,2.509,2.5117,2.5104,2.5251,2.5464,2.5611,2.5571,2.5571,2.5625,2.5464,2.5358,2.5331,2.4983,2.4813,2.4943,2.4919,2.4839,2.4626,2.4449,2.4275,2.4048,2.3924,2.3803,2.3817,2.3777,2.3817,2.3817,2.3817,2.3803,2.3803,2.3817,2.3817,2.3817,2.379,2.3736,2.3567,2.3669,2.3603,2.3295,2.3255,2.3188,2.3094,2.296,2.2907,2.2893,2.2893,2.2893,2.2893,2.2893,2.2893,2.2893,2.2893,2.2893,2.2893,2.2893,2.2893,2.2893,2.2853,2.2693,2.2432,2.2425,2.2465,2.2198,2.1943,2.1703,2.1555,2.1448,2.1323,2.1162,2.1109,2.1096,2.0989,2.0949,2.0922,2.0842,2.0815,2.0842,2.0815,2.0668,2.0628,2.7736,2.7682,2.7456,2.7121,2.6814,2.6854,2.6573,2.6172,2.6118,2.5998,2.5705,2.5705,2.5798,2.5957,2.5785,2.5798,2.5944,2.5678,2.5692,2.5784,2.5529,2.5384,2.5665,2.5917,2.6131,2.6239,2.6118,2.6011,2.5931,2.5692,2.5398,2.5211,2.5184,2.4983,2.4823,2.4666,2.4917,2.5064,2.5117,2.5411,2.5877,2.5651,2.5625,2.5877,2.5462,2.5184,2.5184,2.513,2.5211,2.5438,2.5371,2.513,2.4706,2.4599,2.4369,2.4004,2.3884,2.391,2.3884,2.3915,2.3937,2.395,2.3915,2.3821,2.3901,2.3977,2.3977,2.3964,2.3937,2.3897,2.3821,2.3875,2.3848,2.3857,2.375,2.3581,2.3332,2.3113,2.3054,2.2974,2.2934,2.292,2.292,2.2893,2.2893,2.2893,2.2893,2.2893,2.2893,2.2893,2.2893,2.2893,2.2893,2.2712,2.2485,2.2626,2.2639,2.2392,2.2211,2.2064,2.1716,2.1555,2.1462,2.1269,2.1149,2.1136,2.1136,2.1136,2.1082,2.1015,2.1029,2.1064,2.1029,2.0869,2.0815,2.823,2.8045,2.775,2.7415,2.7161,2.7148,2.7068,2.6961,2.6934,2.6694,2.6507,2.644,2.6493,2.656,2.6293,2.6319,2.6413,2.6066,2.6038,2.6186,2.5944,2.5905,2.6119,2.6226,2.6319,2.6373,2.6293,2.6212,2.6011,2.5917,2.5692,2.5411,2.5398,2.5251,2.5024,2.5157,2.5184,2.5168,2.5304,2.5451,2.5598,2.5598,2.5545,2.5585,2.5478,2.5384,2.5384,2.5398,2.5304,2.5197,2.5197,2.5037,2.4666,2.4613,2.4532,2.4409,2.4382,2.4359,2.4346,2.4346,2.4359,2.4409,2.4342,2.4372,2.4372,2.4409,2.4409,2.4409,2.4409,2.4302,2.4182,2.4262,2.4369,2.4356,2.4062,2.3817,2.3661,2.3629,2.346,2.326,2.3207,2.3086,2.2987,2.2907,2.2893,2.2893,2.2893,2.2893,2.2893,2.2893,2.2893,2.2893,2.2867,2.2712,2.2632,2.2786,2.2773,2.2539,2.2432,2.2425,2.1997,2.1582,2.1515,2.1422,2.1323,2.1296,2.1422,2.1475,2.1368,2.1256,2.1323,2.1403,2.1203,2.1029,2.1015,2.8511,2.831,2.8058,2.775,2.751,2.7483,2.7416,2.7322,2.7296,2.7215,2.7028,2.7001,2.7001,2.6987,2.6867,2.6841,2.6934,2.6533,2.6426,2.6493,2.6305,2.6306,2.6507,2.6573,2.6573,2.6547,2.6453,2.6306,2.6212,2.6172,2.6011,2.5784,2.5705,2.5545,2.5291,2.5411,2.5438,2.5344,2.5545,2.5692,2.5705,2.5825,2.5892,2.5825,2.5678,2.5478,2.5358,2.5331,2.5291,2.5264,2.5251,2.513,2.4826,2.4823,2.4733,2.4626,2.4599,2.4586,2.4599,2.4599,2.4599,2.4599,2.4599,2.4599,2.4586,2.4599,2.4599,2.4572,2.4599,2.4506,2.4426,2.4506,2.4586,2.4532,2.4329,2.4088,2.4004,2.3821,2.3701,2.3541,2.3359,2.3238,2.3073,2.2987,2.292,2.2893,2.2893,2.2893,2.2893,2.2893,2.2893,2.2893,2.2893,2.2766,2.2726,2.2853,2.288,2.2672,2.2539,2.2586,2.2291,2.1764,2.1683,2.1676,2.1537,2.151,2.1676,2.177,2.1729,2.1657,2.1729,2.1649,2.1416,2.1296,2.1269,2.8684,2.8631,2.8323,2.8058,2.7776,2.7736,2.7655,2.7496,2.7469,2.7443,2.7416,2.7376,2.7349,2.7308,2.7242,2.7296,2.7281,2.6974,2.6867,2.68,2.6667,2.668,2.6921,2.6814,2.6787,2.6827,2.66,2.6507,2.6453,2.6426,2.6319,2.6078,2.6011,2.585,2.5585,2.5545,2.5518,2.5518,2.5717,2.5837,2.5864,2.5985,2.6066,2.6012,2.5718,2.5424,2.5251,2.5184,2.5264,2.5466,2.5491,2.5264,2.5037,2.501,2.4903,2.4653,2.4599,2.4613,2.4639,2.4639,2.4666,2.4719,2.4719,2.4666,2.4733,2.4746,2.4693,2.4706,2.4626,2.4586,2.4572,2.4599,2.4599,2.4586,2.4559,2.4452,2.4275,2.4022,2.3848,2.3808,2.3567,2.3447,2.33,2.3153,2.3014,2.3215,2.3148,2.302,2.2979,2.2947,2.2934,2.2893,2.2893,2.2893,2.288,2.2893,2.2893,2.2827,2.2645,2.2626,2.2532,2.2178,2.2058,2.1951,2.1817,2.1844,2.1977,2.2017,2.2004,2.1964,2.1937,2.185,2.1716,2.1617,2.1577,2.9152,2.8881,2.8631,2.8379,2.8112,2.8098,2.8192,2.8283,2.8085,2.7951,2.7938,2.7764,2.7615,2.7589,2.7428,2.7388,2.7549,2.7362,2.7215,2.7161,2.7162,2.7241,2.7335,2.7081,2.6974,2.7081,2.7148,2.6947,2.6787,2.6707,2.6587,2.6372,2.6198,2.5984,2.5931,2.5758,2.5518,2.5531,2.5638,2.5718,2.5732,2.5798,2.5852,2.5798,2.5586,2.5518,2.5451,2.5424,2.5451,2.5451,2.5317,2.5117,2.4853,2.4773,2.4746,2.4706,2.4653,2.4719,2.4903,2.4799,2.4813,2.5197,2.509,2.509,2.5291,2.5077,2.4997,2.4943,2.4746,2.4613,2.4599,2.4599,2.4599,2.4599,2.4599,2.4572,2.4506,2.4476,2.4315,2.4155,2.4035,2.3928,2.375,2.3607,2.3549,2.3576,2.3407,2.3247,2.314,2.3033,2.2979,2.2966,2.2907,2.2907,2.2893,2.292,2.2947,2.2947,2.2827,2.2752,2.2672,2.2519,2.2298,2.2191,2.2084,2.2164,2.2311,2.2311,2.2311,2.2231,2.2164,2.2084,2.2017,2.1951,2.183,2.9472,2.9362,2.8991,2.8804,2.8767,2.8526,2.8537,2.8684,2.8366,2.8272,2.8312,2.8085,2.7951,2.7938,2.7791,2.7817,2.7844,2.7602,2.7429,2.7336,2.7309,2.7415,2.7615,2.7428,2.7335,2.7496,2.7349,2.7202,2.7054,2.7028,2.7001,2.6854,2.668,2.6667,2.6613,2.6412,2.6386,2.6386,2.6333,2.6279,2.6159,2.6266,2.6146,2.5932,2.5798,2.5678,2.5518,2.5504,2.5504,2.5478,2.5371,2.5224,2.5053,2.5013,2.5013,2.5013,2.5013,2.5104,2.5197,2.517,2.5184,2.5491,2.5358,2.5384,2.5411,2.5251,2.5104,2.5024,2.4799,2.4599,2.4599,2.4599,2.4599,2.4599,2.4599,2.4599,2.4599,2.4599,2.4559,2.4372,2.4275,2.4142,2.4008,2.3928,2.3808,2.3736,2.371,2.3527,2.3447,2.334,2.318,2.31,2.2974,2.2907,2.2893,2.2934,2.2979,2.3014,2.2974,2.2979,2.3006,2.2766,2.2532,2.2465,2.2405,2.2532,2.2639,2.2605,2.2592,2.2579,2.2512,2.2418,2.2325,2.2231,2.2071,2.9673,2.9806,2.9312,2.9188,2.9312,2.8885,2.8804,2.8881,2.85,2.8406,2.8497,2.8312,2.8138,2.8165,2.8152,2.8179,2.8085,2.7871,2.7603,2.7563,2.7443,2.7615,2.7816,2.7883,2.7896,2.7856,2.7615,2.751,2.7563,2.7523,2.7657,2.7576,2.7443,2.7403,2.7416,2.7309,2.7162,2.7108,2.7108,2.7055,2.6867,2.7014,2.6881,2.6626,2.6346,2.6198,2.5985,2.5879,2.5798,2.5772,2.5692,2.5678,2.5678,2.5545,2.5518,2.5491,2.5438,2.5478,2.5531,2.5518,2.5504,2.5598,2.5598,2.5625,2.5598,2.5411,2.5224,2.505,2.4853,2.4599,2.4599,2.4599,2.4599,2.4599,2.4599,2.4599,2.4599,2.4599,2.4586,2.4559,2.4426,2.4329,2.4235,2.4155,2.4008,2.3888,2.3897,2.3857,2.379,2.3656,2.3474,2.3394,2.3308,2.3134,2.3073,2.306,2.3113,2.3166,2.3174,2.3247,2.3313,2.3086,2.2859,2.2813,2.2813,2.284,2.2827,2.28,2.2813,2.2893,2.284,2.2693,2.2565,2.2498,2.2352,2.974,2.9539,2.9446,2.9299,2.9125,2.8948,2.8948,2.8935,2.8684,2.8551,2.8577,2.8339,2.8232,2.8219,2.8234,2.8192,2.8192,2.7976,2.7924,2.7965,2.7884,2.7949,2.8337,2.8404,2.8481,2.8617,2.831,2.8152,2.8283,2.839,2.8364,2.8537,2.8272,2.8045,2.7871,2.7603,2.7416,2.7429,2.7403,2.7349,2.7322,2.7255,2.7309,2.7108,2.6988,2.6934,2.6894,2.6707,2.672,2.6907,2.6507,2.6413,2.6346,2.5919,2.5638,2.5585,2.5611,2.5705,2.5825,2.5678,2.5825,2.6039,2.6012,2.6012,2.6026,2.5758,2.5451,2.5237,2.4957,2.4613,2.4599,2.4599,2.4599,2.4599,2.4599,2.4599,2.4599,2.4599,2.4599,2.4586,2.4532,2.4492,2.4436,2.4382,2.4329,2.4222,2.4182,2.4142,2.4102,2.3928,2.3728,2.3688,2.371,2.3487,2.3327,2.33,2.3278,2.342,2.346,2.3603,2.3581,2.3394,2.3247,2.3174,2.3014,2.2907,2.2907,2.2934,2.2893,2.2893,2.2893,2.288,2.2786,2.2672,2.2712,2.9927,2.9945,2.9619,2.9499,2.9388,2.9121,2.9095,2.9219,2.8965,2.8925,2.8938,2.8751,2.8604,2.8604,2.8604,2.8604,2.8537,2.8484,2.8484,2.8551,2.8484,2.8511,2.8818,2.8788,2.8855,2.8881,2.8738,2.8671,2.8775,2.8775,2.8925,2.8881,2.8711,2.8537,2.8377,2.8136,2.7898,2.7817,2.7764,2.775,2.7737,2.7643,2.755,2.751,2.7403,2.7309,2.7282,2.7202,2.7108,2.7202,2.7028,2.6867,2.6707,2.648,2.6119,2.5999,2.5959,2.6012,2.6146,2.6039,2.6132,2.6306,2.6279,2.6279,2.6292,2.5999,2.5625,2.5304,2.513,2.4796,2.4626,2.4626,2.4599,2.4599,2.4599,2.4613,2.4599,2.4599,2.4599,2.4599,2.4572,2.4559,2.4572,2.4546,2.4572,2.4532,2.4452,2.4399,2.4396,2.4222,2.3995,2.3955,2.3915,2.3741,2.3594,2.3581,2.3545,2.3674,2.3768,2.3888,2.391,2.3714,2.3581,2.3496,2.3308,2.3054,2.3041,2.306,2.3,2.292,2.2947,2.296,2.292,2.2893,2.292,3.002,3.0199,2.974,2.9633,2.9615,2.9268,2.9179,2.9245,2.9032,2.9001,2.9245,2.9045,2.8895,2.8975,2.8975,2.8975,2.9001,2.8961,2.8935,2.8921,2.8921,2.8988,2.9068,2.9095,2.9179,2.9255,2.9202,2.9135,2.9125,2.9125,2.9152,2.9175,2.9148,2.9032,2.8818,2.8671,2.8524,2.846,2.8366,2.8366,2.8299,2.8096,2.7923,2.7883,2.7697,2.7603,2.7563,2.7443,2.7456,2.7469,2.7362,2.7175,2.7028,2.6947,2.68,2.66,2.6466,2.6426,2.6453,2.6373,2.6319,2.6386,2.6386,2.6386,2.6359,2.6131,2.577,2.5291,2.5157,2.5104,2.4906,2.4799,2.4799,2.4786,2.4773,2.473,2.4693,2.4666,2.4599,2.4599,2.4599,2.4599,2.4599,2.4599,2.4599,2.4599,2.4519,2.4519,2.4479,2.4399,2.4275,2.4209,2.4115,2.3955,2.3861,2.3875,2.3901,2.3981,2.4075,2.4182,2.4142,2.4048,2.3941,2.3834,2.3522,2.3308,2.326,2.3273,2.3308,2.3268,2.3134,2.3081,2.3108,2.3033,2.3006,2.978,2.9606,2.9793,2.9548,2.9188,2.9339,2.9138,2.8778,2.8764,2.8671,2.8898,2.8751,2.8898,2.9015,2.9055,2.9028,2.9028,2.9081,2.9108,2.9121,2.9095,2.9259,2.9406,2.9432,2.9539,2.9659,2.9726,2.9646,2.9499,2.9446,2.9579,2.97,2.9566,2.9419,2.9379,2.9112,2.8935,2.8881,2.8911,2.8898,2.8841,2.8788,2.8698,2.8524,2.8404,2.8257,2.8045,2.7871,2.7776,2.7951,2.7563,2.7415,2.7495,2.7348,2.7282,2.7068,2.6774,2.6507,2.6694,2.6573,2.644,2.644,2.6413,2.64,2.6333,2.6198,2.5904,2.5531,2.5464,2.5411,2.5331,2.5358,2.5384,2.5277,2.513,2.5064,2.501,2.4799,2.4719,2.4639,2.4666,2.4626,2.4599,2.4599,2.4599,2.4599,2.4599,2.4599,2.4572,2.4492,2.4452,2.4372,2.4356,2.4209,2.4155,2.4155,2.4182,2.4262,2.4329,2.4386,2.4332,2.4315,2.4356,2.4182,2.3834,2.3647,2.3714,2.3728,2.371,2.3603,2.3469,2.3388,2.3313,2.3247,2.3193,2.9847,2.9726,2.9686,2.9526,2.9325,2.9432,2.9352,2.9179,2.9285,2.9352,2.9352,2.9352,2.9432,2.9455,2.9495,2.9508,2.9495,2.9482,2.9495,2.9526,2.9482,2.9548,2.97,2.9726,2.9833,2.986,2.9913,2.9847,2.978,2.9945,3.0119,3.01,3.0047,3.0038,2.99,2.9513,2.9339,2.9285,2.9272,2.9148,2.9081,2.9165,2.9152,2.8871,2.8858,2.8684,2.8444,2.831,2.8163,2.8205,2.7884,2.7764,2.7696,2.7589,2.755,2.7468,2.7175,2.7015,2.7014,2.6787,2.6667,2.6573,2.6507,2.64,2.636,2.6279,2.6118,2.5837,2.5772,2.5705,2.5585,2.5518,2.5518,2.5464,2.5424,2.5371,2.5264,2.5037,2.4903,2.4786,2.4719,2.4706,2.4679,2.4653,2.4639,2.4599,2.4599,2.4599,2.4599,2.4572,2.4559,2.4559,2.4492,2.4426,2.4449,2.4449,2.4422,2.4439,2.4439,2.4506,2.4532,2.4519,2.4506,2.4519,2.4306,2.4222,2.4209,2.4022,2.387,2.383,2.3803,2.3688,2.3621,2.3567,2.3479,2.9913,2.9887,2.9686,2.9513,2.9379,2.9446,2.9432,2.9392,2.9553,2.9713,2.982,2.9833,2.9887,2.9913,2.9873,2.9847,2.99,2.998,2.9967,2.9953,2.998,2.9967,2.9913,2.99,2.99,2.9913,2.9913,2.99,3.002,3.0221,3.0453,3.0426,3.0408,3.048,3.0327,3.0052,2.9757,2.9593,2.9686,2.9579,2.9348,2.9486,2.9392,2.9245,2.9112,2.8961,2.8764,2.8698,2.8564,2.8366,2.8299,2.8152,2.7938,2.7871,2.7857,2.7776,2.7603,2.7536,2.7443,2.7201,2.6987,2.6854,2.6707,2.6573,2.664,2.656,2.6453,2.6252,2.6199,2.6039,2.5825,2.5772,2.5812,2.5785,2.5692,2.5651,2.5571,2.5344,2.5197,2.5157,2.5064,2.4879,2.4877,2.4796,2.473,2.4613,2.4599,2.4599,2.4599,2.4599,2.4599,2.4599,2.4572,2.4532,2.4546,2.4572,2.4586,2.4599,2.4599,2.4599,2.4586,2.4586,2.4572,2.4586,2.4562,2.4532,2.4386,2.4182,2.3995,2.4088,2.4142,2.4008,2.3928,2.379,2.3018,2.9913,2.9913,2.9887,2.9535,2.9095,2.9366,2.9339,2.9148,2.9121,2.9352,2.9619,2.978,2.9913,2.9913,2.9913,2.9927,2.994,3.0207,3.0167,3.0127,3.0154,3.0181,3.01,3.0007,2.9967,2.998,2.9993,2.998,3.0074,3.0555,3.0555,3.0434,3.0675,3.0742,3.0702,3.0533,3.0167,3.006,3.0127,3.0114,2.9927,2.9887,2.9766,2.9553,2.9446,2.9312,2.8988,2.8961,2.8885,2.8591,2.8564,2.8484,2.8286,2.8232,2.8232,2.8138,2.8112,2.8031,2.7898,2.7563,2.7309,2.7148,2.7001,2.6881,2.7014,2.6881,2.6787,2.672,2.668,2.6587,2.6426,2.6319,2.6253,2.6186,2.6066,2.5945,2.5838,2.5638,2.5504,2.5491,2.5371,2.5197,2.5117,2.5064,2.4796,2.4666,2.4599,2.4599,2.4599,2.4599,2.4599,2.4599,2.4599,2.4586,2.4586,2.4599,2.4599,2.4599,2.4599,2.4599,2.4599,2.4599,2.4599,2.4414,2.4364,2.4488,2.4327,2.3456,2.3195,2.4172,2.4479,2.4133,2.3515,2.3026,2.174,2.9913,2.9913,2.9913,2.9793,2.9535,2.97,2.9686,2.9593,2.9535,2.9633,2.974,2.986,2.9913,2.9913,2.9927,3.0034,3.0181,3.0333,3.0413,3.0474,3.0555,3.0541,3.0421,3.0301,3.0274,3.0354,3.0301,3.0314,3.0528,3.0835,3.0955,3.0969,3.0996,3.1183,3.1169,3.0996,3.0715,3.0528,3.0541,3.0541,3.0515,3.0434,3.0314,3.006,3.0065,2.9753,2.9406,2.9325,2.9138,2.8965,2.8841,2.8764,2.8657,2.8644,2.8551,2.8473,2.846,2.8366,2.8165,2.7804,2.7482,2.7309,2.7161,2.7161,2.7362,2.7148,2.7108,2.7094,2.7094,2.7001,2.7001,2.676,2.6627,2.6573,2.6453,2.6279,2.6131,2.5892,2.585,2.5785,2.5611,2.5424,2.5384,2.5344,2.5024,2.4706,2.4639,2.4599,2.4599,2.4599,2.4599,2.4599,2.4599,2.4599,2.4599,2.4599,2.4599,2.4562,2.4562,2.429,2.4216,2.4562,2.4525,2.4327,2.3698,2.324,2.2707,2.2111,2.2334,2.3314,2.387,2.404,2.3284,2.2129,2.0635,2.9967,3.0047,3.0047,2.9993,2.9927,2.9913,2.9913,2.9913,2.99,2.9913,2.9913,2.9913,2.9913,2.9927,3.0034,3.014,3.0413,3.0587,3.0721,3.0768,3.0849,3.0849,3.0742,3.0681,3.0568,3.0715,3.0648,3.0608,3.0742,3.1076,3.1156,3.1196,3.133,3.149,3.153,3.1463,3.1169,3.0889,3.0889,3.0849,3.0808,3.0755,3.0702,3.0488,3.0461,3.0279,2.99,2.9766,2.9553,2.9312,2.9121,2.9081,2.9028,2.8961,2.8885,2.8751,2.8657,2.8551,2.8245,2.8005,2.7791,2.767,2.7483,2.7496,2.7536,2.7496,2.7402,2.7388,2.7429,2.7416,2.7349,2.7054,2.6867,2.6774,2.6667,2.6507,2.6333,2.6159,2.6158,2.6118,2.5919,2.5798,2.5598,2.5545,2.5251,2.4879,2.4666,2.4626,2.4599,2.4599,2.4599,2.4599,2.4599,2.4599,2.4599,2.4613,2.4576,2.4304,2.4142,2.3661,2.3624,2.3809,2.3314,2.2372,2.1812,2.155,2.1251,2.0864,2.1513,2.2521,2.2595,2.236,2.1291,2.003,1.935,3.0087,3.0386,3.04,3.0194,2.998,2.9927,2.994,2.9953,2.9927,2.9913,2.9913,2.9913,2.994,2.9993,3.0194,3.0413,3.0568,3.0915,3.1076,3.0982,3.1129,3.1049,3.0929,3.0849,3.0849,3.0808,3.0795,3.0822,3.0875,3.1169,3.1263,3.133,3.149,3.1623,3.1711,3.1711,3.1403,3.0942,3.1129,3.1062,3.0969,3.0929,3.0889,3.0808,3.0782,3.0595,3.0341,3.0226,2.9998,2.9646,2.9499,2.9392,2.9175,2.9135,2.8975,2.8764,2.8895,2.8751,2.8299,2.8219,2.8165,2.8045,2.7817,2.7817,2.7991,2.7924,2.7696,2.7737,2.7696,2.7562,2.7456,2.7309,2.7121,2.6947,2.6841,2.664,2.6466,2.6346,2.6319,2.6292,2.6293,2.6253,2.5959,2.5718,2.5451,2.5144,2.4823,2.4666,2.4679,2.4733,2.4786,2.4639,2.4653,2.4719,2.4733,2.4666,2.4528,2.4206,2.3687,2.3079,2.2172,2.1651,2.1052,2.0338,2.0037,1.9849,1.9822,1.9747,1.9876,1.9843,2.0135,1.9849,1.884,1.8082,1.7502,3.0381,3.0648,3.0648,3.0595,3.0474,3.0287,3.0207,3.0167,3.002,2.9913,2.9913,2.9913,3.0047,3.0239,3.0386,3.0581,3.0942,3.1022,3.1169,3.143,3.1463,3.1463,3.133,3.1169,3.1169,3.1263,3.1236,3.1196,3.1396,3.1463,3.149,3.1617,3.1631,3.1711,3.1724,3.1711,3.1564,3.147,3.1524,3.151,3.1383,3.1343,3.1263,3.1102,3.1089,3.0942,3.0662,3.0574,3.0319,3.0007,2.9887,2.97,2.9579,2.9566,2.9446,2.9232,2.9312,2.9165,2.8845,2.8711,2.8567,2.8326,2.8152,2.8125,2.8152,2.8112,2.8045,2.8018,2.7991,2.7911,2.7924,2.7697,2.7455,2.7202,2.6974,2.668,2.648,2.6413,2.636,2.6346,2.6373,2.6426,2.6266,2.6092,2.5838,2.5665,2.5398,2.5077,2.501,2.5079,2.5146,2.4853,2.4746,2.489,2.4893,2.4618,2.4043,2.3518,2.2916,2.2265,2.1264,1.9946,1.9687,1.9388,1.8767,1.8196,1.817,1.7971,1.7057,1.6834,1.7626,1.8093,1.7664,1.6788,1.588,3.0721,3.0929,3.0942,3.1009,3.1022,3.0675,3.0507,3.0373,3.006,2.9913,2.9927,3.002,3.0212,3.0413,3.0608,3.0782,3.1189,3.1356,3.1423,3.1711,3.1711,3.1684,3.157,3.149,3.1476,3.157,3.153,3.149,3.1657,3.1698,3.1698,3.1698,3.1724,3.1724,3.1724,3.1711,3.1711,3.1657,3.1671,3.1684,3.1671,3.1657,3.1557,3.1436,3.1343,3.1249,3.0982,3.0755,3.06,3.0381,3.0194,3.0007,2.9967,2.9887,2.9766,2.9579,2.9352,2.9285,2.9192,2.8975,2.8791,2.8564,2.8457,2.8446,2.8379,2.831,2.8259,2.8219,2.8219,2.8192,2.8152,2.7924,2.775,2.7469,2.7228,2.6947,2.6774,2.676,2.6734,2.6667,2.6653,2.6693,2.6667,2.6466,2.6293,2.6146,2.5999,2.5665,2.5306,2.522,2.5197,2.4919,2.4798,2.4931,2.4719,2.434,2.3719,2.2906,2.1942,2.089,1.9699,1.8348,1.8424,1.8336,1.7508,1.6808,1.6605,1.6182,1.5889,1.5741,1.6012,1.6311,1.6345,1.5705,1.4761,3.0982,3.1223,3.1236,3.1396,3.153,3.0996,3.0667,3.0386,3.006,2.9953,2.9953,3.0279,3.044,3.0574,3.0969,3.1209,3.1303,3.153,3.161,3.1711,3.1724,3.1724,3.1724,3.1684,3.1671,3.1698,3.1684,3.1597,3.1724,3.1724,3.1724,3.1724,3.1724,3.1724,3.1724,3.1724,3.1724,3.1724,3.1724,3.1724,3.1724,3.1711,3.1698,3.1583,3.157,3.1463,3.1276,3.1129,3.0835,3.0595,3.04,3.0167,3.002,2.9913,2.9726,2.9526,2.9228,2.9352,2.9419,2.9272,2.9148,2.9028,2.9028,2.8868,2.8711,2.8604,2.8524,2.8419,2.8353,2.8286,2.8205,2.8112,2.8005,2.7831,2.7642,2.7428,2.7269,2.7202,2.7202,2.7175,2.7162,2.7148,2.7081,2.6948,2.6707,2.6653,2.6493,2.6239,2.5763,2.4984,2.4933,2.4738,2.4737,2.4943,2.4585,2.37,2.2594,2.1574,2.0053,1.8887,1.7717,1.7011,1.6939,1.6686,1.5962,1.5559,1.5733,1.5622,1.5305,1.5217,1.5146,1.5074,1.5282,1.4833,1.4121,3.1276,3.153,3.1543,3.1644,3.157,3.1049,3.0667,3.04,3.0261,3.0234,3.0279,3.0373,3.0581,3.0982,3.1109,3.1343,3.1503,3.161,3.1698,3.1724,3.1724,3.1724,3.1724,3.1724,3.1724,3.1724,3.1724,3.1724,3.1724,3.1724,3.1724,3.1724,3.1724,3.1724,3.1724,3.1724,3.1724,3.1724,3.1724,3.1724,3.1724,3.1724,3.1724,3.1724,3.1724,3.1583,3.1517,3.133,3.1036,3.0755,3.052,3.0234,2.9953,2.9913,2.9833,2.982,2.9713,2.9713,2.9766,2.9713,2.9575,2.9548,2.9606,2.9308,2.9055,2.8868,2.8871,2.8684,2.8537,2.8484,2.8446,2.8339,2.8179,2.7976,2.7829,2.771,2.7523,2.7469,2.7469,2.7469,2.7456,2.7456,2.7416,2.7296,2.7081,2.7094,2.6987,2.672,2.6109,2.5255,2.4606,2.4416,2.387,2.3891,2.3333,2.2497,2.1294,2.0097,1.8717,1.7492,1.6694,1.6103,1.5688,1.5473,1.5369,1.5297,1.5248,1.5094,1.4933,1.461,1.4506,1.4346,1.4154,1.387,1.3713,3.1503,3.1711,3.1724,3.1657,3.1463,3.1236,3.0915,3.0587,3.0287,3.0234,3.0413,3.0533,3.0795,3.1169,3.1343,3.1503,3.1698,3.1711,3.1724,3.1724,3.1724,3.1724,3.1724,3.1724,3.1724,3.1724,3.1724,3.1724,3.1724,3.1724,3.1724,3.1724,3.1724,3.1724,3.1724,3.1724,3.1724,3.1724,3.1724,3.1724,3.1724,3.1724,3.1724,3.1724,3.1724,3.1724,3.1711,3.145,3.1249,3.1009,3.0755,3.0501,3.0167,3.0007,2.9913,2.9887,2.9873,2.986,2.9873,2.9887,2.99,2.9913,2.9913,2.9726,2.9499,2.9312,2.9108,2.8935,2.8828,2.8751,2.8644,2.8524,2.831,2.8096,2.7963,2.7857,2.7764,2.7697,2.7684,2.7684,2.7697,2.7697,2.7643,2.7536,2.7469,2.7388,2.7281,2.7081,2.629,2.5225,2.4457,2.3973,2.3119,2.2476,2.1818,2.1195,2.029,1.9149,1.7868,1.673,1.5861,1.5651,1.5659,1.5489,1.527,1.513,1.5011,1.4824,1.4612,1.4326,1.4088,1.4016,1.3853,1.3549,1.3436,3.1711,3.1724,3.1724,3.1503,3.1289,3.1476,3.1263,3.0768,3.0274,3.0167,3.052,3.0715,3.0996,3.133,3.1517,3.1657,3.1724,3.1724,3.1724,3.1724,3.1724,3.1724,3.1724,3.1724,3.1724,3.1724,3.1724,3.1724,3.1724,3.1724,3.1724,3.1724,3.1724,3.1724,3.1724,3.1724,3.1724,3.1724,3.1724,3.1724,3.1724,3.1724,3.1724,3.1724,3.1724,3.1724,3.1724,3.1657,3.153,3.133,3.1129,3.0875,3.0434,3.014,3.002,2.9913,2.9913,2.998,2.9967,2.9967,2.9967,2.9953,2.9882,2.9873,2.9713,2.9606,2.9402,2.9268,2.9205,2.9098,2.8991,2.8804,2.8604,2.8444,2.831,2.8203,2.811,2.8072,2.8005,2.7991,2.7978,2.7991,2.7938,2.7844,2.7777,2.7682,2.7615,2.7483,2.6095,2.4882,2.3987,2.3217,2.2015,2.098,2.0292,1.9716,1.9209,1.8187,1.7106,1.6526,1.604,1.59,1.5817,1.5577,1.5254,1.4965,1.4795,1.4546,1.4331,1.4081,1.3915,1.3783,1.359,1.3335,1.3272,3.1724,3.1724,3.1724,3.149,3.1249,3.1303,3.1142,3.0795,3.0662,3.0742,3.0996,3.1102,3.1263,3.153,3.161,3.1724,3.1724,3.1724,3.1724,3.1724,3.1724,3.1724,3.1724,3.1724,3.1724,3.1724,3.1724,3.1724,3.1724,3.1724,3.1724,3.1724,3.1724,3.1724,3.1724,3.1724,3.1724,3.1724,3.1724,3.1724,3.1724,3.1724,3.1724,3.1724,3.1724,3.1724,3.1724,3.1711,3.149,3.1243,3.1189,3.0902,3.0453,3.0346,3.014,2.9967,2.9967,3.006,3.0154,3.0127,3.0114,3.0127,3.01,2.9967,2.9887,2.9833,2.9753,2.9633,2.9539,2.9432,2.9312,2.9055,2.8881,2.8804,2.8684,2.8577,2.8497,2.8446,2.8339,2.8172,2.8145,2.8021,2.7926,2.7872,2.8098,2.8072,2.8058,2.7436,2.5364,2.3888,2.281,2.1906,2.0557,1.9542,1.8857,1.8521,1.8226,1.7796,1.6877,1.6466,1.6218,1.6001,1.5766,1.5547,1.5305,1.49,1.4498,1.4182,1.3949,1.3839,1.3749,1.3624,1.3541,1.3363,1.3282,3.1276,3.1303,3.1423,3.1303,3.1102,3.1303,3.1263,3.1049,3.1116,3.1263,3.137,3.1316,3.1396,3.1637,3.1724,3.1724,3.1724,3.1724,3.1724,3.1724,3.1724,3.1724,3.1724,3.1724,3.1724,3.1724,3.1724,3.1724,3.1724,3.1724,3.1724,3.1724,3.1724,3.1724,3.1724,3.1724,3.1724,3.1724,3.1724,3.1724,3.1724,3.1724,3.1724,3.1724,3.1724,3.1724,3.1724,3.1724,3.1631,3.141,3.1316,3.1156,3.0755,3.0501,3.0426,3.0287,3.0261,3.0234,3.0394,3.0421,3.0354,3.0394,3.0333,3.0212,3.01,3.0047,2.9887,2.9766,2.9753,2.9673,2.9593,2.9419,2.9285,2.9165,2.8978,2.8788,2.8791,2.8751,2.7934,2.6866,2.6644,2.6087,2.5769,2.4978,2.5148,2.5249,2.5689,2.5903,2.4155,2.2834,2.1789,2.0707,1.941,1.8374,1.7716,1.7545,1.7545,1.7058,1.6657,1.6374,1.6108,1.5889,1.5701,1.5326,1.4978,1.4543,1.4166,1.3993,1.3812,1.3705,1.3581,1.3478,1.3437,1.3397,1.3329,3.0808,3.0835,3.1116,3.1089,3.0955,3.1423,3.1517,3.1343,3.1543,3.1698,3.1671,3.1396,3.1463,3.1597,3.1724,3.1724,3.1724,3.1724,3.1724,3.1724,3.1724,3.1724,3.1724,3.1724,3.1724,3.1724,3.1724,3.1724,3.1724,3.1724,3.1724,3.1724,3.1724,3.1724,3.1724,3.1724,3.1724,3.1724,3.1724,3.1724,3.1724,3.1724,3.1724,3.1724,3.1724,3.1724,3.1724,3.1724,3.1711,3.1631,3.1436,3.1276,3.1089,3.0795,3.0688,3.0608,3.0501,3.0595,3.0742,3.0755,3.0768,3.0755,3.0587,3.0453,3.04,3.0207,3.0034,2.9967,2.9953,2.9873,2.9793,2.9726,2.9593,2.9384,2.9184,2.8649,2.8592,2.8478,2.7183,2.5769,2.5058,2.4445,2.3736,2.2859,2.2696,2.2738,2.2693,2.2639,2.2389,2.1574,2.069,1.9622,1.8462,1.753,1.6893,1.6977,1.7254,1.699,1.6698,1.6328,1.5992,1.5607,1.528,1.493,1.4557,1.4312,1.4155,1.3996,1.3817,1.3688,1.3612,1.3551,1.3431,1.3397,1.3397,3.0795,3.0822,3.1102,3.1183,3.1196,3.1517,3.1637,3.1644,3.1637,3.1724,3.1698,3.1684,3.1684,3.1724,3.1724,3.1724,3.1724,3.1724,3.1724,3.1724,3.1724,3.1724,3.1724,3.1724,3.1724,3.1724,3.1724,3.1724,3.1724,3.1724,3.1724,3.1724,3.1724,3.1724,3.1724,3.1724,3.1724,3.1724,3.1724,3.1724,3.1724,3.1724,3.1724,3.1724,3.1724,3.1724,3.1724,3.1724,3.1724,3.1698,3.1597,3.145,3.1276,3.1089,3.0982,3.0889,3.0795,3.0902,3.1009,3.0996,3.1009,3.1102,3.0902,3.0715,3.0595,3.0453,3.0274,3.0181,3.0114,2.994,2.986,2.986,2.9766,2.9432,2.9154,2.8004,2.732,2.6753,2.5801,2.4639,2.3687,2.3202,2.2807,2.2314,2.227,2.2264,2.222,2.2033,2.0866,2.0147,1.956,1.8609,1.7582,1.7277,1.6914,1.7061,1.7234,1.6988,1.6645,1.6212,1.5715,1.5198,1.4822,1.4662,1.45,1.4322,1.415,1.4027,1.396,1.3851,1.3774,1.3687,1.3539,1.3451,1.3498]},{"header":{"parameterUnit":"m.s-1","parameterCategory":1,"la1":31.0,"la2":29.5877,"lo1":-88.7671,"lo2":-86.6584,"dy":0.0162,"dx":0.0185,"nx":115,"ny":88,"refTime":"2024-02-29T18:00:00:Z","depth":0,"parameterNumber":3,"parameterNumberName":"V-component_of_WINDS"},"data":[0.0,0.0,0.0,0.0,0.0,0.0,0.0,0.0,0.0,0.0,0.0,0.0,0.0,0.0,0.0,0.0,0.0,0.0,0.0,0.0,0.0,0.0,0.0,0.0,0.0,0.0,0.0,0.0,0.0,0.0,0.0,0.0,0.0,0.0,0.0,0.0,0.0,0.0,0.0,0.0,0.0,0.0,0.0,0.0,0.0,0.0,0.0,0.0,0.0,0.0,0.0,0.0,0.0,0.0,0.0,0.0,0.0,0.0,0.0,0.0,0.0,0.0,0.0,0.0,0.0,0.0,0.0,0.0,0.0,0.0,0.0,0.0,0.0,0.0,0.0,0.0,0.0,0.0,0.0,0.0,0.0,0.0,0.0,0.0,0.0,0.0,0.0,0.0,0.0,0.0,0.0,0.0,0.0,0.0,0.0,0.0,0.0,0.0,0.0,0.0,0.0,0.0,0.0,0.0,0.0,0.0,0.0,0.0,0.0,0.0,0.0,0.0,0.0,0.0,0.0,0.0,0.0,0.0,0.0,0.0,0.0,0.0,0.0,0.0,0.0,0.0,0.0,0.0,0.0,0.0,0.0,0.0,0.0,0.0,0.0,0.0,0.0,0.0,0.0,0.0,0.0,0.0,0.0,0.0,0.0,0.0,0.0,0.0,0.0,0.0,0.0,0.0,0.0,0.0,0.0,0.0,0.0,0.0,0.0,0.0,0.0,0.0,0.0,0.0,0.0,0.0,0.0,0.0,0.0,0.0,0.0,0.0,0.0,0.0,0.0,0.0,0.0,0.0,0.0,0.0,0.0,0.0,0.0,0.0,0.0,0.0,0.0,0.0,0.0,0.0,0.0,0.0,0.0,0.0,0.0,0.0,0.0,0.0,0.0,0.0,0.0,0.0,0.0,0.0,0.0,0.0,0.0,0.0,0.0,0.0,0.0,0.0,0.0,0.0,0.0,0.0,0.0,0.0,0.0,0.0,0.0,0.0,0.0,0.0,0.0,0.0,0.0,0.0,0.0,0.0,0.0,0.0,0.0,0.0,0.0,0.0,0.0,0.0,0.0,0.0,0.0,0.0,0.0,0.0,0.0,0.0,0.0,0.0,0.0,0.0,0.0,0.0,0.0,0.0,0.0,0.0,0.0,0.0,0.0,0.0,0.0,0.0,0.0,0.0,0.0,0.0,0.0,0.0,0.0,0.0,0.0,0.0,0.0,0.0,0.0,0.0,0.0,0.0,0.0,0.0,0.0,0.0,0.0,0.0,0.0,0.0,0.0,0.0,0.0,0.0,0.0,0.0,0.0,0.0,0.0,0.0,0.0,0.0,0.0,0.0,0.0,0.0,0.0,0.0,0.0,0.0,0.0,0.0,0.0,0.0,0.0,0.0,0.0,0.0,0.0,0.0,0.0,0.0,0.0,0.0,0.0,0.0,0.0,0.0,0.0,0.0,0.0,0.0,0.0,0.0,0.0,0.0,0.0,0.0,0.0,0.0,0.0,0.0,0.0,0.0,0.0,0.0,0.0,0.0,0.0,0.0,0.0,0.0,0.0,0.0,0.0,0.0,0.0,0.0,0.0,0.0,0.0,0.0,0.0,0.0,0.0,0.0,0.0,0.0,0.0,0.0,0.0,0.0,0.0,0.0,0.0,0.0,0.0,0.0,0.0,0.0,0.0,0.0,0.0,0.0,0.0,0.0,0.0,0.0,0.0,0.0,0.0,0.0,0.0,0.0,0.0,0.0,0.0,0.0,0.0,0.0,0.0,0.0,0.0,0.0,0.0,0.0,0.0,0.0,0.0,0.0,0.0,0.0,0.0,0.0,0.0,0.0,0.0,0.0,0.0,0.0,0.0,0.0,0.0,0.0,0.0,0.0,0.0,0.0,0.0,0.0,0.0,0.0,0.0,0.0,0.0,0.0,0.0,0.0,0.0,0.0,0.0,0.0,0.0,0.0,0.0,0.0,0.0,0.0,0.0,0.0,0.0,0.0,0.0,0.0,0.0,0.0,0.0,0.0,0.0,0.0,0.0,0.0,0.0,0.0,0.0,0.0,0.0,0.0,0.0,0.0,0.0,0.0,0.0,0.0,0.0,0.0,0.0,0.0,0.0,0.0,0.0,0.0,0.0,0.0,0.0,0.0,0.0,0.0,0.0,0.0,0.0,0.0,0.0,0.0,0.0,0.0,0.0,0.0,0.0,0.0,0.0,0.0,0.0,0.0,0.0,0.0,0.0,0.0,0.0,0.0,0.0,0.0,0.0,0.0,0.0,0.0,0.0,0.0,0.0,0.0,0.0,0.0,0.0,0.0,0.0,0.0,0.0,0.0,0.0,0.0,0.0,0.0,0.0,0.0,0.0,0.0,0.0,0.0,0.0,0.0,0.0,0.0,0.0,0.0,0.0,0.0,0.0,0.0,0.0,0.0,0.0,0.0,0.0,0.0,0.0,0.0,0.0,0.0,0.0,0.0,0.0,0.0,0.0,0.0,0.0,0.0,0.0,0.0,0.0,0.0,0.0,0.0,0.0,0.0,0.0,0.0,0.0,0.0,0.0,0.0,0.0,0.0,0.0,0.0,0.0,0.0,0.0,0.0,0.0,0.0,0.0,0.0,0.0,0.0,0.0,0.0,0.0,0.0,0.0,0.0,0.0,0.0,0.0,0.0,0.0,0.0,0.0,0.0,0.0,0.0,0.0,0.0,0.0,0.0,0.0,0.0,0.0,0.0,0.0,0.0,0.0,0.0,0.0,0.0,0.0,0.0,0.0,0.0,0.0,0.0,0.0,0.0,0.0,0.0,0.0,0.0,0.0,0.0,0.0,0.0,0.0,0.0,0.0,0.0,0.0,0.0,0.0,0.0,0.0,0.0,0.0,0.0,0.0,0.0,0.0,0.0,0.0,0.0,0.0,0.0,0.0,0.0,0.0,0.0,0.0,0.0,0.0,0.0,0.0,0.0,0.0,0.0,0.0,0.0,0.0,0.0,0.0,0.0,0.0,0.0,0.0,0.0,0.0,0.0,0.0,0.0,0.0,0.0,0.0,0.0,0.0,0.0,0.0,0.0,0.0,0.0,0.0,0.0,0.0,0.0,0.0,0.0,0.0,0.0,0.0,0.0,0.0,0.0,0.0,0.0,0.0,0.0,0.0,0.0,0.0,0.0,0.0,0.0,0.0,0.0,0.0,0.0,0.0,0.0,0.0,0.0,0.0,0.0,0.0,0.0,0.0,0.0,0.0,0.0,0.0,0.0,0.0,0.0,0.0,0.0,0.0,0.0,0.0,0.0,0.0,0.0,0.0,0.0,0.0,0.0,0.0,0.0,0.0,0.0,0.0,0.0,0.0,0.0,0.0,0.0,0.0,0.0,0.0,0.0,0.0,0.0,0.0,0.0,0.0,0.0,0.0,0.0,0.0,0.0,0.0,0.0,0.0,0.0,0.0,0.0,0.0,0.0,0.0,0.0,0.0,0.0,0.0,0.0,0.0,0.0,0.0,0.0,0.0,0.0,0.0,0.0,0.0,0.0,0.0,0.0,0.0,0.0,0.0,0.0,0.0,0.0,0.0,0.0,0.0,0.0,0.0,0.0,0.0,0.0,0.0,0.0,0.0,0.0,0.0,0.0,0.0,0.0,0.0,0.0,0.0,0.0,0.0,0.0,0.0,0.0,0.0,0.0,0.0,0.0,0.0,0.0,0.0,0.0,0.0,0.0,0.0,0.0,0.0,0.0,0.0,0.0,0.0,0.0,0.0,0.0,0.0,0.0,0.0,0.0,0.0,0.0,0.0,0.0,0.0,0.0,0.0,0.0,0.0,0.0,0.0,0.0,0.0,0.0,0.0,0.0,0.0,0.0,0.0,0.0,0.0,0.0,0.0,0.0,0.0,0.0,0.0,0.0,0.0,0.0,0.0,0.0,0.0,0.0,0.0,0.0,0.0,0.0,0.0,0.0,0.0,0.0,0.0,0.0,0.0,0.0,0.0,0.0,0.0,0.0,0.0,0.0,0.0,0.0,0.0,0.0,0.0,0.0,0.0,0.0,0.0,0.0,0.0,0.0,0.0,0.0,0.0,0.0,0.0,0.0,0.0,0.0,0.0,0.0,0.0,0.0,0.0,0.0,0.0,0.0,0.0,0.0,0.0,0.0,0.0,0.0,0.0,0.0,0.0,0.0,0.0,0.0,0.0,0.0,0.0,0.0,0.0,0.0,0.0,0.0,0.0,0.0,0.0,0.0,0.0,0.0,0.0,0.0,0.0,0.0,0.0,0.0,0.0,0.0,0.0,0.0,2.7896,0.0,0.0,0.0,0.0,0.0,0.0,0.0,0.0,0.0,0.0,0.0,0.0,0.0,0.0,0.0,0.0,0.0,0.0,0.0,0.0,0.0,0.0,0.0,0.0,0.0,0.0,0.0,0.0,0.0,0.0,0.0,0.0,0.0,0.0,0.0,0.0,0.0,0.0,0.0,0.0,0.0,0.0,0.0,0.0,0.0,0.0,0.0,0.0,0.0,0.0,0.0,0.0,0.0,0.0,0.0,0.0,0.0,0.0,0.0,0.0,0.0,0.0,0.0,0.0,0.0,0.0,0.0,0.0,0.0,0.0,0.0,0.0,0.0,0.0,0.0,0.0,0.0,0.0,0.0,0.0,0.0,0.0,0.0,0.0,0.0,0.0,0.0,0.0,0.0,0.0,0.0,0.0,0.0,0.0,0.0,0.0,0.0,0.0,0.0,0.0,0.0,0.0,0.0,0.0,0.0,0.0,0.0,0.0,0.0,0.0,2.916,2.9212,2.909,2.8687,2.7937,0.0,0.0,0.0,0.0,0.0,0.0,0.0,0.0,0.0,0.0,0.0,0.0,0.0,0.0,0.0,0.0,0.0,0.0,0.0,0.0,0.0,0.0,0.0,0.0,0.0,0.0,0.0,0.0,0.0,0.0,0.0,0.0,0.0,0.0,0.0,0.0,0.0,0.0,0.0,0.0,0.0,0.0,0.0,0.0,0.0,0.0,0.0,0.0,0.0,0.0,0.0,0.0,0.0,0.0,0.0,0.0,0.0,0.0,0.0,0.0,0.0,0.0,0.0,0.0,0.0,0.0,0.0,0.0,0.0,0.0,0.0,0.0,0.0,0.0,0.0,0.0,0.0,0.0,0.0,0.0,0.0,0.0,0.0,0.0,0.0,0.0,0.0,0.0,0.0,0.0,0.0,0.0,0.0,0.0,0.0,0.0,0.0,0.0,0.0,0.0,0.0,0.0,0.0,0.0,0.0,0.0,0.0,0.0,0.0,0.0,0.0,0.0,2.924,2.895,2.8096,0.0,0.0,0.0,0.0,0.0,0.0,0.0,0.0,0.0,0.0,0.0,0.0,0.0,0.0,0.0,0.0,0.0,0.0,0.0,0.0,0.0,0.0,0.0,0.0,0.0,0.0,0.0,0.0,0.0,0.0,0.0,0.0,0.0,0.0,0.0,0.0,0.0,0.0,0.0,0.0,0.0,0.0,0.0,0.0,0.0,0.0,0.0,0.0,0.0,0.0,0.0,0.0,0.0,0.0,0.0,0.0,0.0,0.0,0.0,0.0,0.0,0.0,0.0,0.0,0.0,0.0,0.0,0.0,0.0,0.0,0.0,0.0,0.0,0.0,0.0,0.0,0.0,0.0,0.0,0.0,0.0,0.0,0.0,0.0,0.0,0.0,0.0,0.0,0.0,0.0,0.0,0.0,0.0,0.0,0.0,0.0,0.0,0.0,0.0,0.0,0.0,0.0,0.0,0.0,0.0,0.0,0.0,0.0,0.0,0.0,2.8842,2.8842,2.9006,0.0,2.854,0.0,0.0,0.0,0.0,0.0,0.0,0.0,0.0,0.0,0.0,0.0,0.0,0.0,0.0,0.0,0.0,0.0,0.0,0.0,0.0,0.0,0.0,0.0,0.0,0.0,0.0,0.0,0.0,0.0,0.0,0.0,0.0,0.0,0.0,0.0,0.0,0.0,0.0,0.0,0.0,0.0,0.0,0.0,0.0,0.0,0.0,0.0,0.0,0.0,0.0,0.0,0.0,0.0,0.0,0.0,0.0,0.0,0.0,0.0,0.0,0.0,0.0,0.0,0.0,0.0,0.0,0.0,0.0,0.0,0.0,0.0,0.0,0.0,0.0,0.0,0.0,0.0,0.0,0.0,0.0,0.0,0.0,0.0,0.0,0.0,0.0,0.0,0.0,0.0,0.0,0.0,0.0,0.0,0.0,0.0,0.0,0.0,0.0,0.0,0.0,0.0,0.0,0.0,0.0,0.0,0.0,0.0,0.0,0.0,0.0,2.8681,2.8681,2.8422,2.8416,0.0,0.0,0.0,0.0,0.0,0.0,0.0,0.0,0.0,0.0,0.0,0.0,0.0,0.0,0.0,0.0,0.0,0.0,0.0,0.0,0.0,0.0,0.0,0.0,0.0,0.0,0.0,0.0,0.0,0.0,0.0,0.0,0.0,0.0,0.0,0.0,0.0,0.0,0.0,0.0,0.0,0.0,0.0,0.0,0.0,0.0,0.0,0.0,0.0,0.0,0.0,0.0,0.0,0.0,0.0,0.0,0.0,0.0,0.0,0.0,0.0,0.0,0.0,0.0,0.0,0.0,0.0,0.0,0.0,0.0,0.0,0.0,0.0,0.0,0.0,0.0,0.0,0.0,0.0,0.0,0.0,0.0,0.0,0.0,0.0,0.0,0.0,0.0,0.0,0.0,0.0,0.0,0.0,0.0,0.0,0.0,0.0,0.0,0.0,0.0,0.0,0.0,0.0,0.0,0.0,0.0,0.0,0.0,0.0,0.0,2.8697,2.8665,2.8707,2.8062,2.8038,2.8736,0.0,0.0,0.0,0.0,0.0,0.0,0.0,0.0,0.0,0.0,0.0,0.0,0.0,0.0,0.0,0.0,0.0,0.0,0.0,0.0,0.0,0.0,0.0,0.0,0.0,0.0,0.0,0.0,0.0,0.0,0.0,0.0,0.0,0.0,0.0,0.0,0.0,0.0,0.0,0.0,0.0,0.0,0.0,0.0,0.0,0.0,0.0,0.0,0.0,0.0,0.0,0.0,0.0,0.0,0.0,0.0,0.0,0.0,0.0,0.0,0.0,0.0,0.0,0.0,0.0,0.0,0.0,0.0,0.0,0.0,0.0,0.0,0.0,0.0,0.0,0.0,0.0,0.0,0.0,0.0,0.0,0.0,0.0,0.0,0.0,0.0,0.0,0.0,0.0,0.0,0.0,0.0,0.0,0.0,0.0,0.0,0.0,0.0,0.0,0.0,0.0,0.0,0.0,0.0,0.0,0.0,0.0,0.0,2.9069,2.8777,2.8777,2.9053,2.8183,2.798,0.0,0.0,0.0,0.0,0.0,0.0,0.0,0.0,0.0,0.0,0.0,0.0,0.0,0.0,0.0,0.0,0.0,0.0,0.0,0.0,0.0,0.0,0.0,0.0,0.0,0.0,0.0,0.0,0.0,0.0,0.0,0.0,0.0,0.0,0.0,0.0,0.0,0.0,0.0,0.0,0.0,0.0,0.0,0.0,0.0,0.0,0.0,0.0,0.0,0.0,0.0,0.0,0.0,0.0,0.0,0.0,0.0,0.0,0.0,0.0,0.0,0.0,0.0,0.0,0.0,0.0,0.0,0.0,0.0,0.0,0.0,0.0,0.0,0.0,0.0,0.0,0.0,0.0,0.0,0.0,0.0,0.0,0.0,0.0,0.0,0.0,0.0,0.0,0.0,0.0,0.0,0.0,0.0,0.0,0.0,0.0,0.0,0.0,0.0,0.0,0.0,0.0,0.0,0.0,0.0,0.0,0.0,0.0,0.0,2.8894,2.8729,2.8761,2.9042,2.8183,2.8024,0.0,0.0,0.0,0.0,0.0,0.0,0.0,0.0,0.0,0.0,0.0,0.0,0.0,0.0,0.0,0.0,0.0,0.0,0.0,0.0,0.0,0.0,0.0,0.0,0.0,0.0,0.0,0.0,0.0,0.0,0.0,0.0,0.0,0.0,0.0,0.0,0.0,0.0,0.0,0.0,0.0,0.0,0.0,0.0,0.0,0.0,0.0,0.0,0.0,0.0,0.0,0.0,0.0,0.0,0.0,0.0,0.0,0.0,0.0,0.0,0.0,0.0,0.0,0.0,0.0,0.0,0.0,0.0,0.0,0.0,0.0,0.0,0.0,0.0,0.0,0.0,0.0,0.0,0.0,0.0,0.0,0.0,0.0,0.0,0.0,0.0,0.0,0.0,0.0,0.0,0.0,0.0,0.0,0.0,0.0,0.0,0.0,0.0,0.0,0.0,0.0,0.0,0.0,0.0,0.0,0.0,0.0,0.0,0.0,2.8798,0.0,2.8826,2.9058,2.8243,2.8068,0.0,0.0,0.0,0.0,0.0,0.0,0.0,0.0,0.0,0.0,0.0,0.0,0.0,0.0,0.0,0.0,0.0,0.0,0.0,0.0,0.0,0.0,0.0,0.0,0.0,0.0,0.0,0.0,0.0,0.0,0.0,0.0,0.0,0.0,0.0,0.0,0.0,0.0,0.0,0.0,0.0,0.0,0.0,0.0,0.0,0.0,0.0,0.0,0.0,0.0,0.0,0.0,0.0,0.0,0.0,0.0,0.0,0.0,0.0,0.0,0.0,0.0,0.0,0.0,0.0,0.0,0.0,0.0,0.0,0.0,0.0,0.0,0.0,0.0,0.0,0.0,0.0,0.0,0.0,0.0,0.0,0.0,0.0,0.0,0.0,0.0,0.0,0.0,0.0,0.0,0.0,0.0,0.0,0.0,0.0,0.0,0.0,0.0,0.0,0.0,0.0,0.0,0.0,0.0,0.0,0.0,0.0,0.0,2.8583,2.8814,2.8837,2.8977,2.9085,2.8376,2.8139,0.0,0.0,0.0,0.0,0.0,0.0,0.0,0.0,0.0,0.0,0.0,0.0,0.0,0.0,0.0,0.0,0.0,0.0,0.0,0.0,0.0,0.0,0.0,0.0,0.0,0.0,0.0,0.0,0.0,0.0,0.0,0.0,0.0,0.0,0.0,0.0,0.0,0.0,0.0,0.0,0.0,0.0,0.0,0.0,0.0,0.0,0.0,0.0,0.0,0.0,0.0,0.0,0.0,0.0,0.0,0.0,0.0,0.0,0.0,0.0,0.0,0.0,0.0,0.0,0.0,0.0,0.0,0.0,0.0,0.0,0.0,0.0,0.0,0.0,0.0,0.0,0.0,0.0,0.0,0.0,0.0,0.0,0.0,0.0,0.0,0.0,0.0,0.0,0.0,0.0,0.0,0.0,0.0,0.0,0.0,0.0,0.0,0.0,0.0,0.0,0.0,0.0,0.0,0.0,0.0,0.0,0.0,0.0,0.0,2.9639,3.0036,3.0135,2.993,2.9463,2.9022,0.0,0.0,0.0,0.0,0.0,0.0,0.0,0.0,0.0,0.0,0.0,0.0,0.0,0.0,0.0,0.0,0.0,0.0,0.0,0.0,0.0,0.0,0.0,0.0,0.0,0.0,0.0,0.0,0.0,0.0,0.0,0.0,0.0,0.0,0.0,0.0,0.0,0.0,0.0,0.0,0.0,0.0,0.0,0.0,0.0,0.0,0.0,0.0,0.0,0.0,0.0,0.0,0.0,0.0,0.0,0.0,0.0,0.0,0.0,0.0,0.0,0.0,0.0,0.0,0.0,0.0,0.0,0.0,0.0,0.0,0.0,0.0,0.0,0.0,0.0,0.0,0.0,0.0,0.0,0.0,0.0,0.0,0.0,0.0,0.0,0.0,0.0,0.0,0.0,0.0,0.0,0.0,0.0,0.0,0.0,0.0,0.0,0.0,0.0,0.0,0.0,0.0,0.0,0.0,0.0,0.0,0.0,0.0,0.0,3.2185,3.2236,3.2043,3.1572,3.132,3.0462,2.9016,0.0,0.0,0.0,0.0,0.0,0.0,0.0,0.0,0.0,0.0,0.0,0.0,0.0,0.0,0.0,0.0,0.0,0.0,0.0,0.0,0.0,0.0,0.0,0.0,0.0,0.0,0.0,0.0,0.0,0.0,0.0,0.0,0.0,0.0,0.0,0.0,0.0,0.0,0.0,0.0,0.0,0.0,0.0,0.0,0.0,0.0,0.0,0.0,0.0,0.0,0.0,0.0,0.0,0.0,0.0,0.0,0.0,0.0,0.0,0.0,0.0,0.0,0.0,0.0,0.0,0.0,0.0,0.0,0.0,0.0,0.0,0.0,0.0,0.0,0.0,0.0,0.0,0.0,0.0,0.0,0.0,0.0,0.0,0.0,0.0,0.0,0.0,0.0,0.0,0.0,0.0,0.0,0.0,0.0,0.0,0.0,0.0,0.0,0.0,0.0,0.0,0.0,0.0,0.0,0.0,0.0,0.0,0.0,3.6014,3.5419,3.4726,3.3916,3.3689,3.2331,0.0,0.0,0.0,0.0,0.0,0.0,0.0,0.0,0.0,0.0,0.0,0.0,0.0,0.0,0.0,0.0,0.0,0.0,0.0,0.0,0.0,0.0,0.0,0.0,0.0,0.0,0.0,0.0,0.0,0.0,0.0,0.0,0.0,0.0,0.0,0.0,0.0,0.0,0.0,0.0,0.0,0.0,0.0,0.0,0.0,0.0,0.0,0.0,0.0,0.0,0.0,0.0,0.0,0.0,0.0,0.0,0.0,0.0,0.0,0.0,0.0,0.0,0.0,0.0,0.0,0.0,0.0,0.0,0.0,0.0,0.0,0.0,0.0,0.0,0.0,0.0,0.0,0.0,0.0,0.0,0.0,0.0,0.0,0.0,0.0,0.0,0.0,0.0,0.0,0.0,0.0,0.0,0.0,0.0,0.0,0.0,0.0,0.0,0.0,0.0,0.0,0.0,0.0,0.0,0.0,0.0,0.0,0.0,0.0,3.7732,3.9985,3.9673,3.6565,3.5448,3.355,0.0,0.0,0.0,0.0,0.0,0.0,0.0,0.0,0.0,0.0,0.0,0.0,0.0,0.0,0.0,0.0,0.0,0.0,0.0,0.0,0.0,0.0,0.0,0.0,0.0,0.0,0.0,0.0,0.0,0.0,0.0,0.0,0.0,0.0,0.0,0.0,0.0,0.0,0.0,0.0,0.0,0.0,0.0,0.0,0.0,0.0,0.0,0.0,0.0,0.0,0.0,0.0,0.0,0.0,0.0,0.0,0.0,0.0,0.0,0.0,0.0,0.0,0.0,0.0,0.0,0.0,0.0,0.0,0.0,0.0,0.0,0.0,0.0,0.0,0.0,0.0,0.0,0.0,0.0,0.0,0.0,0.0,0.0,0.0,0.0,0.0,0.0,0.0,0.0,0.0,0.0,0.0,0.0,0.0,0.0,0.0,0.0,0.0,0.0,0.0,0.0,0.0,0.0,0.0,0.0,0.0,0.0,0.0,3.7232,3.915,4.2737,4.3306,4.0715,3.842,3.5756,0.0,0.0,0.0,0.0,0.0,0.0,0.0,0.0,0.0,0.0,0.0,0.0,0.0,0.0,0.0,0.0,0.0,0.0,0.0,0.0,0.0,0.0,0.0,0.0,0.0,0.0,0.0,0.0,0.0,0.0,0.0,0.0,0.0,0.0,0.0,0.0,0.0,0.0,0.0,0.0,0.0,0.0,0.0,0.0,0.0,0.0,0.0,0.0,0.0,0.0,0.0,0.0,0.0,0.0,0.0,0.0,0.0,0.0,0.0,0.0,0.0,0.0,0.0,0.0,0.0,0.0,0.0,0.0,0.0,0.0,0.0,0.0,0.0,0.0,0.0,0.0,0.0,0.0,0.0,0.0,0.0,0.0,0.0,0.0,0.0,0.0,0.0,0.0,0.0,0.0,0.0,0.0,0.0,0.0,0.0,0.0,0.0,0.0,0.0,0.0,0.0,0.0,0.0,0.0,0.0,0.0,0.0,0.0,3.9062,4.0441,4.4118,4.5772,4.5122,4.1627,3.826,0.0,0.0,0.0,0.0,0.0,0.0,0.0,0.0,0.0,0.0,0.0,0.0,0.0,0.0,0.0,0.0,0.0,0.0,0.0,0.0,0.0,0.0,0.0,0.0,0.0,0.0,0.0,0.0,0.0,0.0,0.0,0.0,0.0,0.0,0.0,0.0,0.0,0.0,0.0,0.0,0.0,0.0,0.0,0.0,0.0,0.0,0.0,0.0,0.0,0.0,0.0,0.0,0.0,0.0,0.0,0.0,0.0,0.0,0.0,0.0,0.0,0.0,0.0,0.0,0.0,0.0,0.0,0.0,0.0,0.0,0.0,0.0,0.0,0.0,0.0,0.0,0.0,0.0,0.0,0.0,0.0,0.0,0.0,0.0,0.0,0.0,0.0,0.0,0.0,0.0,0.0,0.0,0.0,0.0,0.0,0.0,0.0,0.0,0.0,0.0,0.0,0.0,0.0,0.0,0.0,0.0,0.0,0.0,3.9995,4.199,4.4531,4.5801,4.5719,4.2005,3.8817,0.0,0.0,0.0,0.0,0.0,0.0,0.0,0.0,0.0,0.0,0.0,0.0,0.0,0.0,0.0,0.0,0.0,0.0,0.0,0.0,0.0,0.0,0.0,0.0,0.0,0.0,0.0,0.0,0.0,0.0,0.0,0.0,0.0,0.0,0.0,0.0,0.0,0.0,0.0,0.0,0.0,0.0,0.0,0.0,0.0,0.0,0.0,0.0,3.8846,0.0,0.0,0.0,0.0,0.0,0.0,0.0,0.0,0.0,0.0,0.0,0.0,0.0,0.0,0.0,0.0,0.0,0.0,0.0,0.0,0.0,0.0,0.0,0.0,0.0,0.0,0.0,0.0,0.0,0.0,0.0,0.0,0.0,0.0,0.0,0.0,0.0,0.0,0.0,0.0,0.0,0.0,0.0,0.0,0.0,0.0,0.0,0.0,0.0,0.0,0.0,0.0,0.0,0.0,0.0,0.0,0.0,0.0,0.0,4.003,4.197,4.4172,4.5382,4.5385,4.2612,3.9933,0.0,0.0,0.0,0.0,0.0,0.0,0.0,0.0,0.0,0.0,0.0,0.0,0.0,0.0,0.0,0.0,0.0,0.0,0.0,0.0,0.0,0.0,0.0,0.0,0.0,0.0,0.0,0.0,0.0,0.0,0.0,0.0,0.0,0.0,0.0,0.0,0.0,0.0,0.0,0.0,0.0,0.0,0.0,0.0,0.0,0.0,0.0,0.0,0.0,0.0,0.0,0.0,0.0,0.0,0.0,0.0,0.0,0.0,0.0,0.0,0.0,0.0,0.0,0.0,0.0,0.0,0.0,0.0,0.0,0.0,0.0,0.0,0.0,0.0,0.0,0.0,0.0,0.0,0.0,0.0,0.0,0.0,0.0,0.0,0.0,0.0,0.0,0.0,0.0,0.0,0.0,0.0,0.0,0.0,0.0,0.0,0.0,0.0,0.0,0.0,0.0,0.0,0.0,0.0,0.0,0.0,0.0,3.7355,3.9922,4.1733,4.3619,4.4707,4.4805,4.3041,4.0879,3.8427,0.0,0.0,0.0,0.0,0.0,0.0,0.0,0.0,0.0,0.0,0.0,0.0,0.0,0.0,0.0,0.0,0.0,0.0,0.0,0.0,0.0,0.0,0.0,0.0,0.0,0.0,0.0,0.0,0.0,0.0,0.0,0.0,0.0,0.0,0.0,0.0,0.0,0.0,3.791,3.9136,0.0,0.0,0.0,0.0,0.0,0.0,0.0,0.0,4.0684,0.0,0.0,0.0,0.0,0.0,0.0,0.0,0.0,0.0,0.0,0.0,0.0,0.0,0.0,0.0,0.0,0.0,0.0,0.0,0.0,0.0,0.0,0.0,0.0,0.0,0.0,0.0,0.0,0.0,0.0,0.0,0.0,0.0,0.0,0.0,0.0,0.0,0.0,0.0,0.0,0.0,0.0,0.0,0.0,0.0,0.0,0.0,0.0,0.0,0.0,0.0,0.0,0.0,0.0,0.0,0.0,3.5671,3.7914,4.0408,4.3235,4.367,4.3961,4.4089,4.2441,4.0452,3.8127,0.0,0.0,0.0,0.0,0.0,0.0,0.0,0.0,0.0,0.0,0.0,0.0,0.0,0.0,0.0,0.0,0.0,0.0,0.0,0.0,0.0,0.0,0.0,0.0,0.0,0.0,0.0,0.0,0.0,0.0,0.0,0.0,0.0,0.0,0.0,0.0,0.0,0.0,0.0,4.1475,4.1885,0.0,0.0,0.0,0.0,0.0,0.0,0.0,0.0,4.2813,0.0,0.0,0.0,0.0,0.0,0.0,0.0,0.0,0.0,0.0,0.0,0.0,0.0,0.0,0.0,0.0,0.0,0.0,0.0,0.0,0.0,0.0,0.0,0.0,0.0,0.0,0.0,0.0,0.0,0.0,0.0,0.0,0.0,0.0,0.0,0.0,0.0,0.0,0.0,0.0,0.0,0.0,0.0,0.0,0.0,0.0,0.0,0.0,0.0,0.0,0.0,0.0,0.0,0.0,0.0,3.6136,3.813,4.04,4.3008,4.3152,4.3247,4.3497,4.1883,4.013,0.0,0.0,0.0,0.0,0.0,0.0,0.0,0.0,0.0,0.0,0.0,0.0,0.0,0.0,0.0,0.0,0.0,0.0,0.0,0.0,0.0,0.0,0.0,0.0,0.0,0.0,0.0,0.0,0.0,0.0,0.0,0.0,0.0,0.0,0.0,0.0,0.0,0.0,0.0,0.0,4.3731,4.4368,4.5935,0.0,0.0,0.0,0.0,0.0,0.0,4.4329,4.3348,0.0,0.0,0.0,0.0,0.0,0.0,0.0,0.0,0.0,0.0,0.0,0.0,0.0,0.0,0.0,0.0,0.0,0.0,0.0,0.0,0.0,0.0,0.0,0.0,0.0,0.0,0.0,0.0,0.0,0.0,0.0,0.0,0.0,0.0,0.0,0.0,0.0,0.0,0.0,0.0,0.0,0.0,0.0,0.0,0.0,0.0,0.0,0.0,0.0,0.0,0.0,0.0,0.0,0.0,0.0,3.6198,3.8354,4.0483,4.2558,4.2686,4.2988,4.3521,4.1469,3.9823,0.0,0.0,0.0,0.0,0.0,0.0,0.0,0.0,0.0,0.0,0.0,0.0,0.0,0.0,0.0,0.0,0.0,0.0,0.0,0.0,0.0,0.0,0.0,0.0,0.0,0.0,0.0,0.0,0.0,0.0,0.0,0.0,0.0,0.0,0.0,0.0,0.0,0.0,0.0,0.0,0.0,4.6589,4.8402,4.7624,0.0,0.0,0.0,0.0,4.6797,4.5891,0.0,0.0,0.0,0.0,0.0,0.0,0.0,0.0,0.0,0.0,0.0,0.0,0.0,0.0,0.0,0.0,0.0,0.0,0.0,0.0,0.0,0.0,0.0,0.0,0.0,0.0,0.0,0.0,0.0,0.0,0.0,0.0,0.0,0.0,0.0,0.0,0.0,0.0,0.0,0.0,0.0,0.0,0.0,0.0,0.0,0.0,0.0,0.0,0.0,0.0,0.0,0.0,0.0,0.0,0.0,0.0,3.5736,3.8758,4.1151,4.2774,4.2988,4.3735,4.5089,4.1409,3.9487,0.0,0.0,0.0,0.0,0.0,0.0,0.0,0.0,0.0,0.0,0.0,0.0,0.0,0.0,0.0,0.0,0.0,0.0,0.0,0.0,0.0,0.0,0.0,0.0,0.0,0.0,0.0,0.0,0.0,0.0,0.0,0.0,0.0,0.0,0.0,0.0,0.0,0.0,0.0,0.0,0.0,4.7157,4.8506,4.8121,4.7097,0.0,0.0,4.9012,4.9189,5.0999,0.0,0.0,0.0,0.0,0.0,0.0,0.0,0.0,0.0,0.0,0.0,0.0,0.0,0.0,0.0,0.0,0.0,0.0,0.0,0.0,0.0,0.0,0.0,0.0,0.0,0.0,0.0,0.0,0.0,0.0,0.0,0.0,0.0,0.0,0.0,0.0,0.0,0.0,0.0,0.0,0.0,0.0,0.0,0.0,0.0,0.0,0.0,0.0,0.0,0.0,0.0,0.0,0.0,0.0,0.0,3.4863,3.697,3.9779,4.2012,4.3575,4.4023,4.4707,4.5623,4.1983,3.9993,0.0,0.0,0.0,0.0,0.0,0.0,0.0,0.0,0.0,0.0,0.0,0.0,0.0,0.0,0.0,0.0,0.0,0.0,0.0,0.0,0.0,0.0,0.0,0.0,0.0,0.0,0.0,0.0,0.0,0.0,0.0,0.0,0.0,0.0,0.0,0.0,0.0,0.0,0.0,0.0,0.0,0.0,4.8698,4.9947,0.0,0.0,0.0,5.0896,5.0553,0.0,0.0,0.0,0.0,0.0,0.0,0.0,0.0,0.0,0.0,0.0,0.0,0.0,0.0,0.0,0.0,0.0,0.0,0.0,0.0,0.0,0.0,0.0,0.0,0.0,0.0,0.0,0.0,0.0,0.0,0.0,0.0,0.0,0.0,0.0,0.0,0.0,0.0,0.0,0.0,0.0,0.0,0.0,0.0,0.0,0.0,0.0,0.0,0.0,0.0,0.0,0.0,0.0,0.0,0.0,0.0,0.0,3.7785,4.0685,4.2833,4.4209,4.4948,4.5586,4.606,4.2706,0.0,0.0,0.0,0.0,0.0,0.0,0.0,0.0,0.0,0.0,0.0,0.0,0.0,0.0,0.0,0.0,0.0,0.0,0.0,0.0,0.0,0.0,0.0,0.0,0.0,0.0,0.0,2.9015,0.0,0.0,0.0,0.0,0.0,0.0,0.0,0.0,0.0,0.0,0.0,0.0,0.0,0.0,4.9844,4.9703,5.179,5.2934,0.0,0.0,5.293,5.2373,5.2653,5.1881,0.0,0.0,0.0,0.0,0.0,0.0,0.0,0.0,0.0,0.0,0.0,0.0,0.0,0.0,0.0,0.0,0.0,0.0,0.0,0.0,0.0,0.0,0.0,0.0,0.0,0.0,0.0,0.0,0.0,0.0,0.0,0.0,0.0,0.0,0.0,0.0,0.0,0.0,0.0,0.0,0.0,0.0,0.0,0.0,0.0,0.0,0.0,0.0,0.0,0.0,0.0,0.0,0.0,0.0,3.6534,3.7361,4.1162,4.3591,4.44,4.5391,4.6274,4.6899,4.3517,4.1244,0.0,0.0,0.0,0.0,0.0,0.0,0.0,0.0,0.0,0.0,0.0,0.0,0.0,0.0,0.0,0.0,0.0,0.0,0.0,0.0,0.0,0.0,0.0,0.0,0.0,0.0,0.0,0.0,0.0,0.0,0.0,0.0,0.0,0.0,0.0,0.0,0.0,0.0,0.0,0.0,0.0,5.0708,5.2201,5.327,5.4444,0.0,0.0,5.5768,5.5354,5.7912,5.781,5.143,0.0,0.0,0.0,0.0,0.0,0.0,0.0,0.0,0.0,0.0,0.0,0.0,0.0,0.0,0.0,0.0,0.0,0.0,0.0,0.0,0.0,0.0,0.0,0.0,0.0,0.0,0.0,0.0,0.0,0.0,0.0,0.0,0.0,0.0,0.0,0.0,0.0,0.0,0.0,0.0,0.0,0.0,0.0,0.0,0.0,0.0,0.0,0.0,0.0,0.0,0.0,0.0,0.0,3.6954,3.9282,4.1966,4.4169,4.5824,4.6761,4.7257,4.7303,4.4553,4.2275,0.0,0.0,0.0,0.0,0.0,0.0,0.0,0.0,0.0,0.0,0.0,0.0,0.0,0.0,0.0,0.0,0.0,0.0,0.0,0.0,0.0,0.0,0.0,0.0,0.0,0.0,0.0,0.0,3.2466,3.2516,3.2032,0.0,0.0,0.0,0.0,0.0,0.0,0.0,0.0,0.0,0.0,5.2383,5.4229,5.6024,0.0,0.0,5.8211,5.834,5.718,5.7439,5.6372,5.2089,4.9791,0.0,0.0,0.0,0.0,0.0,0.0,0.0,0.0,0.0,0.0,0.0,0.0,0.0,0.0,0.0,0.0,0.0,0.0,0.0,0.0,0.0,0.0,0.0,0.0,0.0,0.0,0.0,0.0,0.0,0.0,0.0,0.0,0.0,0.0,0.0,0.0,0.0,0.0,0.0,0.0,0.0,0.0,0.0,0.0,0.0,0.0,0.0,0.0,0.0,0.0,0.0,0.0,3.7226,4.0581,4.249,4.4556,4.6761,4.7671,4.781,4.708,4.5369,4.3232,0.0,0.0,0.0,0.0,0.0,0.0,0.0,0.0,0.0,0.0,0.0,0.0,0.0,0.0,0.0,0.0,0.0,0.0,0.0,0.0,0.0,0.0,0.0,0.0,0.0,0.0,0.0,0.0,3.3299,3.3354,3.301,0.0,0.0,0.0,0.0,0.0,0.0,0.0,0.0,0.0,0.0,5.4002,5.58,5.7704,5.895,5.8894,5.9128,5.9015,5.8273,5.707,5.5341,5.2906,0.0,0.0,0.0,0.0,0.0,0.0,0.0,0.0,0.0,0.0,0.0,0.0,0.0,0.0,0.0,0.0,0.0,0.0,0.0,0.0,0.0,0.0,0.0,0.0,0.0,0.0,0.0,0.0,0.0,0.0,3.1424,0.0,0.0,0.0,0.0,0.0,0.0,0.0,0.0,0.0,0.0,0.0,0.0,0.0,0.0,0.0,0.0,0.0,0.0,0.0,0.0,0.0,0.0,3.7328,4.0567,4.2662,4.4712,4.673,4.7918,4.7765,4.6377,4.5885,4.4108,4.0883,0.0,0.0,0.0,0.0,0.0,0.0,0.0,0.0,0.0,0.0,0.0,0.0,0.0,0.0,0.0,0.0,0.0,0.0,0.0,0.0,0.0,0.0,0.0,0.0,0.0,0.0,3.3204,3.2854,3.3101,0.0,0.0,0.0,0.0,0.0,0.0,0.0,0.0,0.0,0.0,5.1941,5.5403,5.6869,5.78,5.8964,6.0447,5.8719,5.7529,5.8612,5.7532,5.5972,0.0,0.0,0.0,0.0,0.0,0.0,0.0,0.0,0.0,0.0,0.0,0.0,0.0,0.0,0.0,0.0,0.0,0.0,0.0,0.0,0.0,0.0,0.0,0.0,0.0,0.0,0.0,3.6645,3.6292,0.0,0.0,0.0,0.0,0.0,0.0,0.0,0.0,0.0,0.0,0.0,4.2163,4.1039,0.0,0.0,0.0,0.0,0.0,0.0,0.0,0.0,0.0,0.0,0.0,0.0,3.7825,4.0765,4.3296,4.5293,4.6815,4.7558,4.7404,4.6344,4.5428,4.3274,3.9737,0.0,0.0,0.0,0.0,0.0,0.0,0.0,0.0,0.0,0.0,0.0,0.0,0.0,0.0,0.0,0.0,0.0,0.0,0.0,0.0,0.0,0.0,0.0,0.0,0.0,3.621,0.0,0.0,0.0,0.0,0.0,0.0,0.0,0.0,0.0,0.0,0.0,4.6751,5.0447,5.3496,5.6004,5.779,5.9126,6.0172,0.0,0.0,0.0,0.0,0.0,0.0,0.0,0.0,0.0,0.0,0.0,0.0,0.0,0.0,5.0031,4.795,4.7843,4.8062,4.8038,0.0,0.0,0.0,0.0,0.0,0.0,0.0,0.0,0.0,0.0,0.0,0.0,0.0,0.0,4.007,0.0,3.9415,0.0,0.0,0.0,0.0,0.0,0.0,0.0,0.0,4.2138,4.3824,4.5478,4.4564,4.4461,0.0,4.3198,4.0497,0.0,0.0,0.0,0.0,0.0,0.0,0.0,0.0,3.8636,4.131,4.3572,4.5453,4.6937,4.7378,4.7347,4.6736,4.5592,4.3586,4.0629,3.9543,3.8072,0.0,0.0,0.0,0.0,0.0,0.0,0.0,0.0,0.0,0.0,0.0,0.0,0.0,0.0,0.0,0.0,0.0,0.0,0.0,0.0,0.0,0.0,0.0,3.7305,0.0,0.0,0.0,0.0,0.0,0.0,0.0,0.0,0.0,4.5721,4.6735,4.8972,5.3105,5.4991,5.6599,5.8239,0.0,0.0,0.0,0.0,0.0,0.0,0.0,5.7087,5.6133,5.5483,5.5055,5.4985,5.5472,5.5825,5.5754,0.0,0.0,5.2344,5.185,5.1998,5.2159,5.2221,5.2229,5.2241,5.21,5.2268,0.0,0.0,0.0,0.0,0.0,0.0,0.0,0.0,4.2429,4.1956,0.0,4.2544,0.0,0.0,0.0,0.0,0.0,4.2332,0.0,0.0,4.8459,5.013,4.8864,4.912,4.8956,4.8099,4.5347,4.3562,4.2731,4.1177,0.0,0.0,0.0,0.0,0.0,0.0,3.9782,4.2189,4.3517,4.5149,4.7128,4.7456,4.7576,4.7509,4.6378,4.5012,4.349,4.2176,4.0454,3.8246,3.7054,0.0,0.0,0.0,0.0,0.0,0.0,0.0,0.0,0.0,0.0,0.0,0.0,0.0,0.0,0.0,0.0,0.0,0.0,0.0,0.0,3.6592,0.0,0.0,0.0,0.0,0.0,0.0,0.0,0.0,0.0,0.0,4.8427,4.9483,5.1596,5.5445,0.0,0.0,0.0,0.0,5.8779,5.8508,5.8009,5.7717,5.7968,5.7342,5.6874,5.6892,0.0,0.0,5.6503,5.7233,5.7849,5.7821,5.8736,5.8795,5.64,5.5261,5.488,5.5429,5.5553,5.5579,5.555,5.5125,5.4971,5.0619,0.0,0.0,0.0,0.0,4.5444,4.6259,4.7349,4.8335,4.7754,4.6044,4.7025,0.0,0.0,0.0,0.0,0.0,0.0,4.5514,4.7161,4.838,5.0138,5.226,5.1163,5.101,5.1561,4.9351,4.7876,4.7169,4.6148,4.3431,3.9074,0.0,0.0,0.0,0.0,4.1099,4.2997,4.4363,4.5748,4.7301,4.712,4.7031,4.7016,4.6688,4.6041,4.5094,4.4155,4.2962,4.1409,3.9801,0.0,0.0,0.0,0.0,0.0,0.0,0.0,0.0,0.0,0.0,0.0,0.0,0.0,0.0,0.0,0.0,0.0,0.0,0.0,3.8302,3.9145,3.9803,0.0,0.0,0.0,0.0,0.0,0.0,0.0,0.0,0.0,5.2592,5.2408,5.3047,0.0,0.0,5.696,5.6661,5.7636,5.8185,5.7523,5.778,0.0,5.9086,5.915,5.9368,6.0134,6.008,5.9682,5.8925,5.98,6.0584,6.0467,6.0756,6.0907,6.0798,5.9623,5.8792,5.8941,5.8966,5.8823,5.8443,5.8259,5.8146,5.5607,5.2215,4.9578,4.8635,4.8911,4.9286,5.0091,5.122,5.2056,5.1249,4.9442,5.0756,4.9486,4.6309,4.6496,0.0,0.0,0.0,4.841,5.0175,5.0302,5.133,5.2926,5.2317,5.1925,5.1849,5.0394,4.9424,4.8984,4.7545,4.5503,4.2863,0.0,0.0,4.1229,4.2058,4.3086,4.4327,4.5395,4.6477,4.7502,4.7612,4.7665,4.7665,4.768,4.7446,4.6959,4.6496,4.5596,4.4167,4.2579,4.0902,0.0,0.0,0.0,0.0,0.0,0.0,0.0,0.0,0.0,0.0,0.0,3.5758,3.6271,0.0,0.0,0.0,3.7851,3.9487,4.1378,4.1733,0.0,0.0,0.0,0.0,0.0,0.0,0.0,4.7511,4.9764,5.222,5.4602,5.4681,5.5136,5.6879,5.6922,5.6816,5.6819,0.0,5.787,5.7652,5.8061,5.8639,5.9229,5.9446,5.9736,6.0275,6.0555,6.0503,5.9917,6.0635,6.126,6.1262,6.141,6.1741,6.2254,6.1765,6.1325,6.1361,6.1152,6.0895,6.0588,6.0159,5.9708,5.898,5.8462,5.4474,5.2699,5.2512,5.2318,5.2984,5.4226,5.4108,5.3099,5.1673,5.3677,5.2222,4.8232,4.8826,0.0,5.0306,5.0983,5.1769,5.2735,5.3421,5.3134,5.2087,5.2735,5.207,5.0286,4.9458,4.9086,4.9003,4.6686,4.62,4.7557,4.6128,4.5106,4.4607,4.5075,4.5593,4.6054,4.6671,4.72,4.7619,4.8416,4.8834,4.8917,4.8895,4.8824,4.8789,4.8701,4.795,4.6383,4.5113,4.3376,4.1135,0.0,0.0,0.0,0.0,0.0,0.0,0.0,0.0,0.0,0.0,0.0,0.0,0.0,0.0,0.0,3.9837,0.0,4.4562,4.4236,0.0,0.0,0.0,4.5919,4.4995,4.7264,4.9238,5.0162,0.0,0.0,5.5042,5.6327,5.7367,5.8172,5.7193,5.6791,5.7949,5.7842,5.7844,5.8215,5.8487,5.8667,5.8915,5.9006,5.9001,5.8802,5.9158,5.9723,5.9626,6.0174,6.0547,6.0781,6.1201,6.1667,6.1667,6.2254,6.2743,6.2631,6.2222,6.1862,6.1688,6.0775,5.9981,6.1116,6.0342,5.9226,5.8007,5.6842,5.6204,5.6124,5.6433,5.6407,5.5503,5.412,5.517,5.4348,5.2133,5.2287,5.2426,5.2513,5.281,5.3197,5.3628,5.3326,5.3136,5.3125,5.2684,5.2245,5.1707,5.0439,4.983,4.9796,4.8686,4.8539,4.9382,4.9063,4.812,4.6755,4.7885,4.8411,4.8228,4.8401,4.7988,4.7045,4.721,4.7597,4.8157,4.7992,4.8172,4.8672,4.8097,4.7538,4.709,4.5588,4.4159,4.291,4.0583,0.0,0.0,0.0,0.0,0.0,0.0,0.0,0.0,0.0,3.8934,4.0207,0.0,4.0516,0.0,4.2791,4.4235,4.5416,4.592,0.0,0.0,4.7335,4.8061,4.8437,4.9524,5.0832,5.2338,5.3308,5.4544,5.6348,5.682,5.7265,5.7955,5.796,5.7748,5.7478,5.7799,5.7879,5.7523,5.7855,5.8408,5.9084,5.9852,5.9989,5.9289,5.9819,6.0116,5.9412,5.994,6.0614,6.1202,6.1483,6.1826,6.2316,6.2455,6.2268,6.2162,6.1992,6.1614,6.07,6.0237,5.9814,6.2793,6.2225,6.1703,6.0996,6.0075,5.8834,5.8275,5.8239,5.794,5.7131,5.6006,5.6055,5.5728,5.5171,5.547,5.5196,5.4561,5.4691,5.4548,5.414,5.3539,5.3139,5.2976,5.2486,5.2131,5.1792,5.0722,5.018,5.0083,4.9434,4.9249,4.9627,5.0365,5.0216,4.9299,5.0379,5.1,5.1092,5.0542,4.9407,4.7791,4.8059,4.8092,4.7671,4.7864,4.7998,4.8004,4.7593,4.733,4.7262,4.6079,4.5006,4.4179,4.2221,4.0975,0.0,0.0,0.0,0.0,0.0,0.0,0.0,0.0,0.0,0.0,0.0,4.2955,4.4099,4.5182,4.6296,4.7472,4.8005,4.8281,4.8375,4.9405,5.0103,5.0115,5.1249,5.2506,5.381,5.4604,5.5571,5.6982,5.7336,5.7562,5.7935,5.8122,5.8054,5.7637,5.7876,5.7952,5.7548,5.7749,5.813,5.8725,5.9518,5.9909,5.952,5.9975,6.0319,5.9832,6.0077,6.0566,6.097,6.1043,6.1129,6.1407,6.1262,6.0955,6.074,6.0611,6.041,6.0074,5.9779,5.9367,6.4061,6.3711,6.2874,6.2493,6.2248,6.063,5.9921,5.974,5.907,5.8309,5.7497,5.6806,5.6781,5.7224,5.7833,5.7397,5.6273,5.6276,5.5667,5.4532,5.3897,5.3212,5.2502,5.2384,5.1945,5.1352,5.0817,5.0375,5.0114,4.961,4.9388,4.94,5.0796,5.1689,5.2091,5.2737,5.3317,5.3847,5.2354,5.0626,4.8848,4.9396,4.8969,4.7437,4.7985,4.8033,4.7361,4.7436,4.746,4.7417,4.6759,4.604,4.5366,4.4011,4.326,0.0,4.2597,0.0,0.0,0.0,0.0,0.0,0.0,0.0,0.0,4.3976,4.5154,4.653,4.7343,4.8356,4.9805,5.0026,5.0071,5.0068,5.1337,5.1965,5.1376,5.2731,5.4169,5.51,5.5704,5.6394,5.734,5.7737,5.785,5.796,5.8008,5.7983,5.8008,5.8118,5.8192,5.8033,5.7997,5.8081,5.8338,5.8804,5.9269,5.9416,5.9942,6.037,6.0382,6.037,6.0407,6.0407,6.0396,6.0249,5.9838,5.9641,5.9324,5.9051,5.8842,5.8901,5.9408,5.9225,5.8806,6.4459,6.3785,6.3471,6.3017,6.2384,6.204,6.1504,6.0861,6.0061,5.9246,5.8369,5.8224,5.7785,5.7237,5.7344,5.7244,5.6959,5.6509,5.5957,5.5352,5.4579,5.3941,5.3396,5.267,5.2232,5.2063,5.1529,5.0963,5.0354,5.0354,5.0605,5.1188,5.1511,5.2835,5.5041,0.0,0.0,0.0,5.1805,4.9749,4.8683,4.8105,4.7703,4.7472,4.7579,0.0,4.8434,4.8439,4.8494,4.8619,4.8012,0.0,0.0,0.0,0.0,0.0,0.0,0.0,0.0,0.0,0.0,0.0,4.8353,4.7956,4.6622,4.7803,4.8772,4.9047,4.9727,5.0323,5.0568,5.1193,5.1597,5.1614,5.2401,5.3419,5.4477,5.4713,5.5387,5.7163,5.6708,5.6612,5.7651,5.7412,5.7299,5.7886,5.7997,5.7997,5.7997,5.8535,5.8682,5.8143,5.807,5.829,5.8866,5.9123,5.9563,6.0003,6.026,6.0444,6.0444,6.0444,6.0419,6.0407,6.0127,5.9876,5.9634,5.9031,5.8307,5.8013,5.7634,5.7545,5.8177,5.8217,5.7893,6.5893,0.0,6.4087,6.3513,0.0,6.2709,6.2307,6.1932,6.1065,6.0236,5.9493,5.9332,5.9026,5.8587,5.8883,5.8746,5.8381,5.7768,5.7185,5.6565,5.5166,5.4395,5.4127,5.3297,5.2925,5.2974,5.244,5.2114,5.2008,5.181,5.2017,5.2585,5.3061,5.3985,5.5435,5.6017,5.587,5.4958,5.3296,5.1599,4.9816,4.9733,4.9305,4.849,4.8807,0.0,0.0,0.0,0.0,0.0,0.0,0.0,0.0,4.7214,0.0,4.713,4.6786,4.702,4.8104,4.8489,4.902,4.9675,5.0467,5.043,4.9223,4.9839,5.0453,5.0809,5.1571,5.2165,5.2574,5.2968,5.3345,5.3712,5.3775,5.4289,5.5379,5.5784,5.6287,5.7169,5.7248,5.7348,5.79,5.7666,5.7556,5.7923,5.7997,5.8143,5.8499,5.8572,5.851,5.8572,5.8988,5.9318,5.971,6.015,6.0456,6.0933,6.1337,6.1374,6.1043,6.1337,6.1361,6.0603,6.0027,5.9522,5.8722,5.769,5.6801,5.6792,5.6555,5.6402,5.6736,5.7081,5.7187,6.743,6.6586,6.4951,6.4268,6.4237,6.3425,6.3071,6.2976,0.0,0.0,0.0,6.0649,6.0535,6.0375,6.0831,6.0579,5.9789,5.9062,5.8385,5.7649,5.5801,5.4873,5.4635,5.4025,5.3787,5.3863,5.3425,5.3468,5.3891,5.3499,5.3464,5.3855,5.4567,5.5053,5.5326,5.6147,5.6066,5.5003,5.495,5.3762,5.1398,5.1832,5.1344,4.9764,5.0372,5.0176,4.9058,4.9391,4.9372,4.8829,4.8934,4.9008,4.9036,4.8837,4.8928,4.9488,4.9521,4.9749,5.0259,5.0887,5.1298,5.14,5.2171,5.2238,5.1373,5.1367,5.1793,5.2574,5.3225,5.3885,5.4546,5.462,5.4887,5.5511,5.5133,5.5097,5.5757,5.6528,5.7019,5.7079,5.7581,5.796,5.796,5.796,5.7997,5.7997,5.8143,5.8437,5.8976,5.8841,5.8841,5.9343,5.9673,6.0089,6.026,6.075,6.141,6.1484,6.2218,6.2536,6.2108,6.2254,6.1949,6.0639,5.9904,5.8934,5.7684,5.6454,5.5529,5.564,5.5522,5.5409,5.5444,5.5927,5.6273,6.8274,6.7444,6.6499,6.5715,6.5141,6.4982,6.4517,6.3833,6.2887,6.232,6.2131,6.2679,6.2472,6.1734,6.1788,6.1376,6.0575,5.9216,5.834,5.7832,5.6805,5.5855,5.5042,5.4737,5.466,5.4707,5.4768,5.4732,5.4731,5.478,5.4817,5.4884,5.5004,5.5636,5.676,5.7449,5.7018,5.5521,5.4785,5.3869,5.2726,5.2054,5.148,5.1084,5.1212,5.1467,5.1714,5.1842,5.1942,5.1968,5.2041,5.1947,5.1586,5.1389,5.1216,5.0962,5.0749,5.0993,5.1728,5.1822,5.2469,5.3786,5.462,5.4483,5.3052,5.3482,5.4216,5.4997,5.5144,5.5291,5.5401,5.5438,5.5511,5.5695,5.6124,5.6517,5.6638,5.7299,5.7776,5.7776,5.7923,5.7997,5.7997,5.7997,5.7997,5.807,5.8499,5.9049,5.9233,5.971,6.004,6.0114,5.971,5.9453,5.9636,6.0089,6.086,6.1496,6.2254,6.2609,6.2389,6.1998,6.141,6.0529,5.9456,5.8298,5.69,5.6049,5.5408,5.4949,5.4762,5.4799,5.4765,5.4868,5.4905,6.9743,6.8875,6.765,6.6953,6.6512,6.5668,6.5118,6.4664,6.3679,6.3006,6.27,6.3235,6.3284,6.2876,6.2726,6.244,6.205,6.0562,5.9813,5.9475,5.7966,5.7038,5.6501,5.5685,5.535,5.5499,5.5565,5.575,5.6074,5.6155,5.6335,5.6647,5.6672,5.6964,5.7582,5.7844,5.7629,5.6895,5.5648,5.4399,5.3129,5.2694,5.2407,5.2343,5.2521,5.2789,5.3052,5.3466,5.3451,5.2937,5.3025,5.29,5.2507,5.2304,5.241,5.2927,5.2917,5.3213,5.396,5.3965,5.4263,5.4997,5.5401,5.55,5.5196,5.5097,5.5218,5.5585,5.5989,5.6271,5.6235,5.6235,5.6418,5.687,5.6859,5.6957,5.7409,5.774,5.796,5.7997,5.7997,5.7997,5.7997,5.7997,5.7997,5.807,5.8694,5.9196,5.9258,5.9893,6.0236,5.9857,5.9783,5.9857,5.9857,6.0517,6.1153,6.1557,6.1887,6.1912,6.1618,6.1117,6.0493,5.9368,5.8677,5.8023,5.6901,5.6055,5.5285,5.459,5.4759,5.4828,5.4515,5.4421,5.4361,7.1087,7.0257,6.8655,6.7884,6.759,6.6182,6.5595,6.5459,6.4548,6.3865,6.3439,6.3693,6.3898,6.3989,6.3665,6.3437,6.3078,6.171,6.106,6.087,5.9192,5.8285,5.8058,5.7013,5.6651,5.6819,5.683,5.7168,5.7773,5.7835,5.8081,5.8512,5.8547,5.8547,5.8547,5.8547,5.8437,5.8217,5.7042,5.5611,5.4106,5.3944,5.3886,5.387,5.419,5.441,5.4521,5.4974,5.4895,5.4172,5.4134,5.3971,5.3589,5.3339,5.3699,5.4675,5.477,5.4974,5.5522,5.5768,5.5868,5.5879,5.6025,5.6503,5.7178,5.6785,5.6319,5.6246,5.6748,5.7079,5.7068,5.7079,5.7336,5.7886,5.7483,5.7373,5.7886,5.8143,5.8143,5.807,5.829,5.851,5.8327,5.8437,5.8694,5.8988,5.9355,5.971,5.982,6.0187,6.004,5.9563,5.9747,6.0003,6.0199,6.075,6.119,6.1312,6.152,6.13,6.075,6.0346,5.9747,5.8696,5.83,5.792,5.7223,5.6479,5.5745,5.5284,5.546,5.5424,5.4966,5.4522,5.4324,7.1894,7.0977,6.9486,6.8348,6.7664,6.6769,6.6402,6.6292,6.5495,6.5128,6.4979,6.4667,6.4819,6.5264,6.4732,6.412,6.3389,6.1853,6.1235,6.1163,6.0346,5.9686,5.9218,5.9121,5.9181,5.918,5.9174,5.9374,5.9871,6.0029,6.0114,6.0199,6.0187,6.0126,6.0126,6.0126,5.9783,5.9123,5.8939,5.8095,5.6587,5.6102,5.5889,5.5842,5.6201,5.6608,5.6789,5.6676,5.6639,5.6849,5.6517,5.6247,5.5993,5.582,5.5731,5.5722,5.5614,5.5559,5.5695,5.6271,5.6748,5.6748,5.7409,5.8107,5.8829,5.8866,5.8535,5.7997,5.785,5.796,5.7886,5.7923,5.8033,5.818,5.807,5.7923,5.8143,5.8657,5.8792,5.807,5.9245,5.9905,5.9233,5.949,6.0272,6.0676,6.0786,6.0933,6.0933,6.0639,6.0199,5.949,5.9343,5.938,5.949,6.0003,6.0603,6.0676,6.1153,6.1043,6.0456,5.9747,5.9159,5.8781,5.8427,5.7837,5.7424,5.6964,5.6937,5.6473,5.6328,5.615,5.5949,5.5102,5.4331,7.3046,7.2569,7.0977,6.9582,6.8385,6.7554,6.7223,6.715,6.6366,6.5946,6.5743,6.5131,6.5241,6.5915,6.5559,6.5218,6.484,6.3833,6.3069,6.2602,6.1939,6.1214,6.0571,6.0164,6.0029,6.0064,6.0077,6.0176,6.0456,6.0896,6.0896,6.0493,6.086,6.0896,6.0444,6.0407,6.0224,5.993,5.993,5.9832,5.9524,5.8328,5.7555,5.7317,5.7853,5.7828,5.7435,5.7791,5.7912,5.7499,5.7707,5.7762,5.7429,5.7365,5.7478,5.7783,5.8203,5.8437,5.8437,5.8756,5.8939,5.8902,5.9245,5.9563,5.9857,5.9893,5.9747,5.9501,5.9428,5.9428,5.9391,5.9428,5.9428,5.9428,5.9428,5.9391,5.9428,5.9722,5.9747,5.9501,5.9979,6.0114,5.9453,5.949,6.0003,6.0713,6.0933,6.1006,6.0896,6.0603,6.0309,6.0003,5.9893,5.9673,5.9453,6.0297,6.0713,6.0603,6.0639,6.0591,5.982,5.9024,5.8462,5.8499,5.8217,5.795,5.7763,5.7254,5.7087,5.6881,5.6557,5.6233,5.6688,5.5637,5.4934,7.3891,7.3428,7.1762,7.0169,6.8862,6.8068,6.77,6.7627,6.7076,6.674,6.6586,6.6,6.6073,6.6486,6.6021,6.582,6.593,6.5236,6.4592,6.3991,6.3487,6.2844,6.2075,6.1875,6.1613,6.1483,6.1728,6.1765,6.1814,6.2291,6.2291,6.1924,6.2328,6.2328,6.1814,6.1728,6.1728,6.1765,6.1728,6.2034,6.2365,6.1362,6.0137,5.9152,5.944,5.9254,5.838,5.9045,5.917,5.852,5.8927,5.9046,5.8819,5.8821,5.9007,5.9501,6.0077,6.0407,6.0407,6.0407,6.0407,6.0407,6.0407,6.0481,6.0676,6.0713,6.086,6.1031,6.108,6.0958,6.0407,6.0407,6.0407,6.0407,6.0407,6.0407,6.037,6.0566,6.0639,6.0456,6.0811,6.086,6.0334,6.0322,6.0664,6.1104,6.1141,6.1068,6.0994,6.097,6.075,6.0713,6.0566,6.015,5.971,6.0334,6.0823,6.037,6.004,5.9783,5.9086,5.8327,5.7997,5.8217,5.8033,5.7985,5.7904,5.751,5.7073,5.6588,5.6467,5.6564,5.6503,5.5714,5.535,7.439,7.3377,7.1152,6.9779,6.8885,6.8128,6.7737,6.7774,6.7664,6.7614,6.7527,6.7453,6.754,6.7403,6.5877,6.5517,6.6066,6.553,6.5178,6.5018,6.4965,6.4503,6.3798,6.461,6.4602,6.3796,6.431,6.4738,6.4848,6.4995,6.5141,6.4995,6.4958,6.5031,6.4811,6.4738,6.4995,6.4738,6.4701,6.4958,6.5096,6.5286,6.3966,6.1777,6.114,6.1012,6.0803,6.0529,6.0531,6.0857,6.0614,6.0382,6.0358,6.0346,6.0394,6.0456,6.0456,6.0456,6.0493,6.0517,6.0529,6.0481,6.0591,6.075,6.1447,6.1557,6.1814,6.2572,6.2499,6.1985,6.0811,6.0701,6.0603,6.0603,6.0493,6.0517,6.0493,6.119,6.1153,6.0896,6.1618,6.2205,6.2426,6.2646,6.2352,6.2462,6.2609,6.2536,6.2352,6.1924,6.163,6.141,6.1006,6.0419,6.0346,6.0493,6.0162,5.971,5.9453,5.9086,5.8474,5.8008,5.8008,5.7997,5.7997,5.7997,5.7997,5.7778,5.7379,5.7246,5.7699,5.7736,5.6568,5.5899,5.5584,7.4133,7.2826,7.1468,7.0683,7.0353,6.9559,6.8972,6.8495,6.8458,6.7871,6.7026,6.6916,6.693,6.6893,6.6276,6.641,6.7106,6.6886,6.6483,6.6043,6.6006,6.5553,6.4856,6.5165,6.5178,6.4971,6.5141,6.5325,6.5362,6.5815,6.5815,6.5472,6.5815,6.5852,6.5398,6.5325,6.5325,6.5325,6.5325,6.5558,6.5999,6.5702,6.5186,6.4789,6.4325,6.3764,6.3013,6.3333,6.337,6.2989,6.3296,6.3527,6.349,6.3062,6.2768,6.2732,6.2242,6.1949,6.1949,6.1912,6.1949,6.1949,6.1949,6.1998,6.2279,6.2352,6.2499,6.2719,6.2793,6.2426,6.2169,6.1949,6.1949,6.1949,6.1912,6.1875,6.1949,6.2205,6.2242,6.2022,6.2132,6.2169,6.2572,6.2352,6.2254,6.2683,6.2793,6.2793,6.2793,6.2511,6.2328,6.2352,6.2095,6.1545,6.0419,6.0419,6.0187,5.9563,5.9159,5.8792,5.829,5.8045,5.7997,5.7997,5.7997,5.7997,5.796,5.7629,5.7336,5.7189,5.7765,5.7728,5.6554,5.5952,5.5794,7.4147,7.2826,7.1747,7.1307,7.1197,7.044,6.9633,6.8935,6.8898,6.8128,6.7063,6.688,6.704,6.7173,6.699,6.732,6.7994,6.7847,6.7393,6.6916,6.6893,6.6439,6.5875,6.6206,6.6329,6.6182,6.6352,6.6476,6.6476,6.6733,6.6586,6.6182,6.6623,6.6623,6.6145,6.6072,6.6169,6.6352,6.6219,6.6586,6.7393,6.6623,6.6476,6.7043,6.6751,6.5829,6.458,6.4995,6.5081,6.464,6.4995,6.5178,6.4897,6.4383,6.3992,6.3649,6.3135,6.2793,6.2793,6.2793,6.2793,6.2793,6.2793,6.2793,6.2793,6.2793,6.2793,6.2793,6.2793,6.2793,6.2793,6.2793,6.2793,6.2793,6.2793,6.2793,6.2793,6.2793,6.2793,6.2646,6.2352,6.2365,6.2609,6.2316,6.2352,6.2756,6.2793,6.2793,6.2793,6.2793,6.2793,6.2756,6.2426,6.1851,6.1043,6.0676,5.9832,5.9123,5.8866,5.8547,5.8364,5.8143,5.7997,5.7997,5.7997,5.7997,5.7813,5.7483,5.7189,5.6895,5.7262,5.7519,5.6638,5.5952,5.5868,7.4441,7.3487,7.2004,7.1454,7.1307,7.066,6.9743,6.9178,6.9068,6.8678,6.7921,6.7774,6.8201,6.8605,6.8141,6.8201,6.8678,6.8178,6.7811,6.7687,6.77,6.737,6.6806,6.8054,6.8311,6.7774,6.8458,6.8788,6.8678,6.8128,6.7774,6.7737,6.7774,6.776,6.7664,6.7687,6.8054,6.8348,6.7944,6.8421,6.9683,6.8471,6.8054,6.8678,6.8145,6.7116,6.5582,6.5472,6.5485,6.5411,6.5435,6.4971,6.4617,6.4396,6.387,6.3343,6.2976,6.2903,6.2939,6.3013,6.3086,6.3086,6.2939,6.3086,6.316,6.3086,6.3086,6.3123,6.305,6.2976,6.2939,6.3013,6.2976,6.2793,6.2793,6.2793,6.2793,6.2793,6.2793,6.2793,6.2683,6.2793,6.2793,6.2719,6.2719,6.2756,6.2793,6.2793,6.2793,6.2793,6.2793,6.2683,6.2389,6.1887,6.141,6.086,5.9648,5.8621,5.851,5.8327,5.8364,5.8217,5.8033,5.7997,5.7997,5.796,5.7629,5.7299,5.7226,5.7042,5.7336,5.7336,5.6675,5.6088,5.5941,7.4918,7.3707,7.3156,7.2606,7.2165,7.1872,7.1284,7.0573,7.0536,7.0096,6.9463,6.9339,6.9499,6.9633,6.9463,6.9486,6.9669,6.8898,6.8531,6.8531,6.8531,6.8678,6.9009,6.9449,6.9596,6.9426,6.9596,6.9706,6.9669,6.9463,6.9339,6.9353,6.9316,6.9045,6.8531,6.9045,6.9302,6.8935,6.9192,6.9646,7.005,6.9633,6.9486,6.9669,6.9463,6.9045,6.8605,6.754,6.699,6.6966,6.6916,6.6819,6.6526,6.6048,6.5632,6.5338,6.4811,6.4517,6.4517,6.4481,6.4444,6.4517,6.4481,6.4517,6.4517,6.4481,6.4444,6.4481,6.4517,6.4334,6.3906,6.4224,6.4004,6.2939,6.2793,6.2866,6.2866,6.2829,6.2793,6.2793,6.2793,6.2793,6.2793,6.2793,6.2793,6.2793,6.2793,6.2793,6.2793,6.2793,6.2793,6.2756,6.2365,6.1998,6.152,6.1263,6.0676,5.9648,5.9171,5.8657,5.8584,5.8437,5.8217,5.7997,5.7997,5.785,5.7483,5.7299,5.7226,5.7079,5.7152,5.6932,5.6565,5.6345,5.6235,7.5506,7.4588,7.4258,7.367,7.2973,7.2936,7.2298,7.138,7.1307,7.0844,7.0183,7.0073,7.0293,7.044,7.0257,7.0293,7.044,6.9706,6.9522,6.9619,6.9068,6.9376,7.0073,7.044,7.0734,7.0881,7.0697,7.055,7.0513,7.022,6.9926,6.9706,6.9669,6.9229,6.8568,6.8935,6.9009,6.8972,6.9376,6.9963,7.0367,7.0257,7.0257,7.0403,6.9963,6.9669,6.9596,6.8641,6.8288,6.8531,6.8582,6.8361,6.7774,6.7173,6.6696,6.6072,6.5618,6.5288,6.5325,6.5215,6.5325,6.5325,6.5325,6.5288,6.5288,6.5325,6.5325,6.5325,6.5251,6.5105,6.4751,6.4921,6.4738,6.3894,6.3783,6.36,6.3343,6.2976,6.2829,6.2793,6.2793,6.2793,6.2793,6.2793,6.2793,6.2793,6.2793,6.2793,6.2793,6.2793,6.2793,6.2793,6.2683,6.2242,6.163,6.1508,6.1618,6.0884,6.0187,5.9526,5.9123,5.8829,5.8584,5.8143,5.7997,5.796,5.7666,5.7556,5.7483,5.7262,5.7189,5.7262,5.7189,5.6785,5.6675,7.6203,7.6056,7.5307,7.4515,7.3795,7.378,7.301,7.1784,7.1637,7.1307,7.0624,7.0624,7.0881,7.1197,7.0844,7.0881,7.116,7.055,7.0587,7.072,7.0022,6.9743,7.0513,7.1087,7.1674,7.2092,7.1637,7.1344,7.1123,7.0587,6.9779,6.9265,6.9192,6.8641,6.8201,6.7884,6.8458,6.8862,6.9009,6.9816,7.0977,7.0477,7.0403,7.0977,6.9839,6.9192,6.9192,6.9045,6.9265,6.9889,6.9706,6.9045,6.7994,6.77,6.6953,6.5839,6.5508,6.5582,6.5508,6.5705,6.5655,6.5692,6.5705,6.5448,6.5668,6.5765,6.5765,6.5729,6.5655,6.5545,6.5448,6.5595,6.5521,6.5435,6.5141,6.4787,6.4213,6.3503,6.3233,6.3013,6.2903,6.2866,6.2866,6.2793,6.2793,6.2793,6.2793,6.2793,6.2793,6.2793,6.2793,6.2793,6.2793,6.2401,6.1777,6.2059,6.2095,6.152,6.0921,6.0517,5.9563,5.9123,5.8866,5.8437,5.8107,5.807,5.807,5.807,5.7923,5.774,5.7776,5.7971,5.7776,5.7336,5.7189,7.7561,7.6922,7.6114,7.5322,7.4625,7.4588,7.4368,7.3949,7.3876,7.334,7.2826,7.2767,7.2789,7.2973,7.2239,7.2312,7.2569,7.1615,7.1417,7.1945,7.116,7.1174,7.1762,7.2055,7.2312,7.2459,7.2239,7.1894,7.1344,7.1087,7.0587,6.9816,6.9779,6.9376,6.8752,6.9119,6.9192,6.9032,6.9522,6.9926,7.033,7.033,7.0183,7.0293,7.0,6.9743,6.9743,6.9779,6.9522,6.9229,6.9229,6.8788,6.7884,6.7737,6.7517,6.7063,6.699,6.704,6.7003,6.7003,6.704,6.7063,6.688,6.7076,6.7076,6.7063,6.7063,6.7063,6.7063,6.6769,6.6439,6.6659,6.6953,6.6916,6.6109,6.5325,6.5007,6.4811,6.4457,6.3906,6.3759,6.3429,6.305,6.2829,6.2793,6.2793,6.2793,6.2793,6.2793,6.2793,6.2793,6.2793,6.2719,6.2401,6.2181,6.2499,6.2462,6.1924,6.163,6.1508,6.0334,5.9196,5.9013,5.8756,5.8584,5.851,5.8756,5.8902,5.8609,5.84,5.8584,5.8804,5.8253,5.7776,5.774,7.8332,7.7781,7.6959,7.6114,7.5454,7.538,7.5197,7.494,7.4867,7.4647,7.4258,7.4184,7.4184,7.4147,7.3692,7.3744,7.4001,7.2899,7.2606,7.2789,7.2151,7.2275,7.2826,7.301,7.301,7.2936,7.2679,7.2275,7.1894,7.1784,7.1344,7.072,7.0624,7.0183,6.9486,6.9816,6.9889,6.9633,7.0183,7.0587,7.0624,7.0954,7.1138,7.0954,7.055,7.0,6.9669,6.9596,6.9486,6.9412,6.9376,6.9045,6.8325,6.8201,6.8068,6.7774,6.77,6.7664,6.77,6.77,6.77,6.77,6.77,6.77,6.7664,6.77,6.77,6.7627,6.77,6.7444,6.7223,6.7444,6.7664,6.7517,6.6843,6.6182,6.5839,6.5448,6.5118,6.4677,6.4286,6.3956,6.3392,6.305,6.2866,6.2793,6.2793,6.2793,6.2793,6.2793,6.2793,6.2793,6.2793,6.2548,6.2438,6.2683,6.2756,6.2291,6.1924,6.1949,6.1141,5.9795,5.9575,5.9453,5.9171,5.9098,5.9453,5.971,5.96,5.9501,5.96,5.938,5.8841,5.851,5.8437,7.8809,7.8662,7.7818,7.6959,7.6313,7.6203,7.5983,7.5417,7.5344,7.527,7.5197,7.5087,7.5014,7.5028,7.472,7.4867,7.4955,7.4111,7.3817,7.3634,7.3266,7.3303,7.3964,7.367,7.3722,7.3707,7.3083,7.2826,7.2679,7.2606,7.2188,7.1527,7.1344,7.0903,7.0293,7.0183,7.011,7.011,7.0536,7.0866,7.094,7.1394,7.1615,7.1468,7.066,6.9853,6.9376,6.9192,6.9412,7.0087,7.0036,6.9412,6.8788,6.8715,6.8421,6.7847,6.77,6.7737,6.7811,6.7811,6.7884,6.8031,6.8031,6.7884,6.8068,6.8104,6.7958,6.7994,6.7774,6.7664,6.7627,6.77,6.77,6.7664,6.759,6.7297,6.6696,6.5999,6.5521,6.5411,6.4751,6.442,6.4016,6.3613,6.3123,6.3673,6.349,6.3246,6.3135,6.2939,6.2903,6.2793,6.2793,6.2793,6.2756,6.2793,6.2793,6.2609,6.2218,6.2059,6.1802,6.0933,6.0603,6.0309,5.9942,6.0015,6.0382,6.0493,6.0456,6.0346,6.0272,5.993,5.9563,5.9391,5.9281,8.0094,7.9486,7.8662,7.7839,7.7105,7.7069,7.7326,7.7708,7.7032,7.6665,7.6628,7.6151,7.5873,7.5799,7.5359,7.5249,7.5689,7.505,7.4647,7.4625,7.45,7.4845,7.5102,7.4404,7.4111,7.4404,7.4463,7.4037,7.3597,7.3377,7.3046,7.2334,7.1857,7.127,7.1123,7.077,7.011,7.0146,7.044,7.066,7.0697,7.0881,7.1027,7.0881,7.0417,7.011,6.9926,6.9853,6.9926,6.9926,6.9559,6.9009,6.8398,6.8178,6.8104,6.7994,6.7847,6.8031,6.8421,6.8251,6.8288,6.9229,6.8935,6.8935,6.9486,6.8898,6.8678,6.8531,6.8104,6.7737,6.77,6.77,6.77,6.77,6.77,6.7627,6.7444,6.7247,6.6806,6.6366,6.6035,6.5742,6.5141,6.4861,6.4591,6.4664,6.431,6.387,6.3576,6.3282,6.3135,6.3099,6.2829,6.2829,6.2793,6.2866,6.2939,6.2939,6.2609,6.2511,6.2291,6.1765,6.1263,6.097,6.0676,6.0896,6.13,6.13,6.13,6.108,6.0896,6.0676,6.0493,6.0309,5.9979,8.0975,8.0807,7.9653,7.914,7.8904,7.8243,7.8405,7.8809,7.7803,7.7546,7.7656,7.7032,7.6665,7.6628,7.6225,7.6298,7.6371,7.5836,7.5234,7.4977,7.4903,7.5322,7.5873,7.5359,7.5102,7.5417,7.5014,7.461,7.4331,7.4258,7.4059,7.3656,7.3179,7.3142,7.2995,7.2445,7.2496,7.2496,7.2349,7.2202,7.1872,7.2165,7.1835,7.1248,7.0881,7.055,7.011,7.0073,7.0073,7.0,6.9706,6.9302,6.8949,6.8839,6.8839,6.8839,6.8839,6.8972,6.9229,6.9155,6.9192,7.0036,6.9669,6.9743,6.9816,6.9376,6.8972,6.8752,6.8251,6.77,6.77,6.77,6.77,6.77,6.77,6.77,6.77,6.77,6.759,6.7076,6.6696,6.6329,6.5962,6.5742,6.5411,6.5105,6.5031,6.464,6.442,6.4127,6.3686,6.3466,6.3013,6.2829,6.2793,6.2903,6.3135,6.3123,6.3013,6.3135,6.3209,6.2548,6.1802,6.1618,6.1557,6.1802,6.2095,6.2108,6.2071,6.2034,6.1851,6.1594,6.1337,6.108,6.0639,8.1525,8.1893,8.0534,8.033,8.0534,7.936,7.914,7.9486,7.817,7.7913,7.8295,7.7656,7.7179,7.7252,7.7215,7.7289,7.7032,7.6445,7.5711,7.5601,7.527,7.5873,7.6423,7.6607,7.6644,7.6533,7.5873,7.5454,7.5601,7.5491,7.5858,7.5637,7.527,7.516,7.5197,7.4903,7.45,7.4353,7.4353,7.4206,7.3817,7.4221,7.3854,7.3032,7.2386,7.1857,7.1394,7.1101,7.0881,7.0807,7.0587,7.055,7.055,7.0183,7.011,7.0036,6.9889,7.0,7.0146,7.011,7.0073,7.033,7.033,7.0403,7.033,6.9816,6.9302,6.8825,6.8398,6.77,6.77,6.77,6.77,6.77,6.77,6.77,6.77,6.77,6.7664,6.759,6.7223,6.6843,6.6586,6.6366,6.5962,6.5632,6.5545,6.5435,6.5251,6.4884,6.4494,6.4273,6.393,6.3453,6.3392,6.3356,6.3503,6.3649,6.3563,6.387,6.4053,6.3429,6.2805,6.2572,6.2572,6.2646,6.2609,6.2536,6.2572,6.2793,6.2646,6.2242,6.1998,6.1814,6.141,8.1709,8.1158,8.0901,8.0498,8.0021,7.9669,7.9669,7.9633,7.8809,7.8442,7.8516,7.7729,7.7436,7.7399,7.731,7.7326,7.7326,7.6864,7.6592,7.6702,7.6481,7.679,7.7855,7.8038,7.8384,7.8626,7.7781,7.7215,7.7708,7.8002,7.7928,7.8405,7.7546,7.6922,7.6445,7.5711,7.5197,7.5234,7.516,7.5014,7.494,7.4882,7.4903,7.4353,7.4023,7.3876,7.3766,7.3377,7.3413,7.3927,7.2826,7.2569,7.2386,7.1211,7.044,7.0293,7.0367,7.0624,7.0954,7.055,7.0954,7.1541,7.1468,7.1468,7.1505,7.077,6.9926,6.9339,6.8568,6.7737,6.77,6.77,6.77,6.77,6.77,6.77,6.77,6.77,6.77,6.7664,6.7517,6.7407,6.7136,6.699,6.6843,6.6549,6.6439,6.6329,6.6219,6.5742,6.5191,6.5081,6.5031,6.453,6.409,6.4016,6.4066,6.4347,6.4457,6.4738,6.4787,6.4273,6.387,6.3563,6.3123,6.2829,6.2829,6.2903,6.2793,6.2793,6.2793,6.2756,6.2499,6.2291,6.2401,8.2223,8.2133,8.1379,8.1048,8.0881,8.0147,8.0073,8.0277,7.958,7.947,7.9507,7.8993,7.8589,7.8589,7.8589,7.8589,7.8405,7.8259,7.8259,7.8442,7.8259,7.8332,7.9176,7.9229,7.9412,7.9486,7.8956,7.8772,7.9192,7.9192,7.947,7.9486,7.8883,7.8405,7.7965,7.7304,7.6518,7.6298,7.6151,7.6114,7.6078,7.5821,7.5564,7.5454,7.516,7.4903,7.483,7.461,7.4478,7.461,7.4133,7.3817,7.3377,7.2753,7.1762,7.1431,7.1321,7.1468,7.1835,7.1541,7.1798,7.2275,7.2078,7.2078,7.2114,7.1431,7.0403,6.9522,6.9045,6.8128,6.7774,6.7774,6.77,6.77,6.77,6.7737,6.77,6.77,6.77,6.77,6.7627,6.759,6.7627,6.7554,6.7627,6.7517,6.7297,6.715,6.7026,6.6549,6.5925,6.5815,6.5705,6.5228,6.4824,6.4787,6.48,6.5044,6.5301,6.5632,6.5582,6.5154,6.4787,6.4444,6.393,6.3233,6.3196,6.3356,6.3086,6.2866,6.2939,6.2976,6.2866,6.2793,6.2866,8.248,8.283,8.1709,8.1415,8.1505,8.055,8.0167,8.0351,7.9764,7.9816,8.0351,7.98,7.9522,7.9743,7.9743,7.9743,7.9816,7.9706,7.9633,7.9596,7.9596,7.9779,8.0,8.0073,8.0167,8.0514,8.0367,8.0183,8.0021,8.0021,8.0094,8.0293,8.022,7.9764,7.9176,7.8772,7.8369,7.806,7.7803,7.7803,7.7619,7.7194,7.6717,7.6607,7.5968,7.5711,7.5601,7.527,7.5307,7.5344,7.505,7.4661,7.4258,7.4037,7.3634,7.3083,7.2716,7.2606,7.2679,7.2459,7.2312,7.2496,7.2496,7.2496,7.2298,7.1674,7.0683,6.9486,6.9119,6.8972,6.8545,6.8251,6.8251,6.8214,6.8178,6.7944,6.7958,6.7884,6.77,6.77,6.77,6.77,6.77,6.77,6.77,6.77,6.748,6.748,6.737,6.715,6.6696,6.6512,6.6256,6.5815,6.5558,6.5595,6.5668,6.5888,6.6145,6.6439,6.6329,6.6072,6.5778,6.5485,6.4517,6.393,6.3906,6.3943,6.393,6.382,6.3453,6.3306,6.338,6.3282,6.3209,8.1819,8.1342,8.1856,8.1321,8.033,8.0608,8.0057,7.9066,7.9029,7.8772,7.9396,7.8993,7.9396,7.9853,7.9963,7.989,7.989,8.0036,8.011,8.0147,8.0073,8.0388,8.0791,8.0865,8.1158,8.1489,8.1672,8.1452,8.1048,8.0901,8.1269,8.1599,8.1232,8.0828,8.0718,7.9984,7.9633,7.9486,7.9433,7.9396,7.9376,7.9229,7.8846,7.8369,7.8038,7.7635,7.6922,7.6445,7.6313,7.6665,7.5601,7.5322,7.5542,7.5139,7.483,7.4243,7.356,7.2826,7.334,7.301,7.2642,7.2642,7.2569,7.2532,7.2349,7.1857,7.105,7.0146,6.9963,6.9816,6.9596,6.9669,6.9743,6.9449,6.9045,6.8862,6.8715,6.8251,6.8031,6.7811,6.7884,6.7774,6.77,6.77,6.77,6.77,6.77,6.77,6.7627,6.7407,6.7297,6.7076,6.6916,6.6512,6.6366,6.6366,6.6439,6.6659,6.6843,6.7113,6.6966,6.6806,6.6916,6.6439,6.5485,6.4971,6.5154,6.5191,6.5031,6.4738,6.4371,6.415,6.4053,6.387,6.3723,8.2003,8.1672,8.1562,8.1122,8.0571,8.0865,8.0645,8.0167,8.0461,8.0645,8.0645,8.0645,8.0865,8.1064,8.1175,8.1211,8.1175,8.1138,8.1175,8.1122,8.1138,8.1321,8.1599,8.1672,8.1966,8.2039,8.2186,8.2003,8.1819,8.2133,8.261,8.27,8.2553,8.239,8.215,8.1085,8.0608,8.0461,8.0424,8.022,8.0036,8.0131,8.0094,7.9323,7.9286,7.8809,7.8148,7.7781,7.7378,7.7362,7.6481,7.6151,7.6093,7.5799,7.5564,7.5469,7.4536,7.4096,7.4221,7.3597,7.3266,7.301,7.2826,7.2532,7.2422,7.2202,7.1637,7.0866,7.0807,7.0624,7.0293,7.011,7.011,6.9963,6.9853,6.9706,6.9412,6.8788,6.8421,6.8214,6.8031,6.7994,6.7921,6.7847,6.7811,6.77,6.77,6.77,6.77,6.7627,6.759,6.759,6.7407,6.7223,6.7173,6.7173,6.71,6.726,6.726,6.7444,6.7517,6.748,6.7444,6.748,6.6893,6.6549,6.6512,6.5999,6.5472,6.5362,6.5288,6.5081,6.4897,6.4751,6.4617,8.2186,8.2113,8.1562,8.1085,8.0718,8.0901,8.0865,8.0755,8.1195,8.1636,8.1929,8.1966,8.2113,8.2186,8.2076,8.2003,8.215,8.237,8.2333,8.2296,8.237,8.2333,8.2186,8.215,8.215,8.2186,8.2186,8.215,8.248,8.303,8.3528,8.3454,8.3544,8.3601,8.3324,8.2427,8.1619,8.1305,8.1562,8.1269,8.0771,8.1012,8.0755,8.0351,7.9984,7.9706,7.9029,7.8846,7.8479,7.7803,7.7619,7.7215,7.6628,7.6445,7.6408,7.6313,7.5711,7.5527,7.527,7.4735,7.4147,7.378,7.3377,7.301,7.3193,7.2973,7.2679,7.2004,7.1982,7.1541,7.0954,7.0807,7.0917,7.0844,7.0587,7.0477,7.0257,6.9633,6.9229,6.9119,6.8862,6.8471,6.8348,6.8128,6.7944,6.7737,6.77,6.77,6.77,6.77,6.77,6.77,6.7627,6.7517,6.7554,6.7627,6.7664,6.77,6.77,6.77,6.7664,6.7664,6.7627,6.7664,6.7714,6.7517,6.7113,6.6439,6.5925,6.6182,6.6329,6.5962,6.5742,6.5584,6.5569,8.2186,8.2186,8.2113,8.1285,8.0073,8.0681,8.0608,8.022,8.0147,8.0645,8.1379,8.1819,8.2186,8.2186,8.2186,8.2223,8.226,8.2994,8.2884,8.2774,8.2847,8.292,8.27,8.2443,8.2333,8.237,8.2406,8.237,8.2627,8.3948,8.3948,8.3618,8.4278,8.4462,8.4352,8.3748,8.2884,8.259,8.2774,8.2737,8.2223,8.2113,8.1782,8.1195,8.0901,8.0534,7.9779,7.9706,7.936,7.8552,7.8479,7.8259,7.7582,7.7436,7.7436,7.7179,7.7105,7.6885,7.6518,7.5601,7.4903,7.4588,7.4184,7.3854,7.4221,7.3854,7.3597,7.3413,7.3303,7.3046,7.2606,7.2312,7.2129,7.1945,7.1615,7.1284,7.0991,7.044,7.0073,7.0036,6.9706,6.9229,6.9009,6.8862,6.8128,6.7884,6.77,6.77,6.77,6.77,6.77,6.77,6.77,6.7664,6.7664,6.77,6.77,6.77,6.77,6.77,6.77,6.77,6.77,6.7767,6.7744,6.7741,6.7757,6.7402,6.7245,6.7439,6.737,6.6872,6.6636,6.6518,6.6538,8.2186,8.2186,8.2186,8.1856,8.1285,8.1599,8.1562,8.1305,8.1285,8.1415,8.1709,8.2039,8.2186,8.2186,8.2223,8.2517,8.292,8.3197,8.3418,8.3728,8.3948,8.3911,8.3581,8.3251,8.3177,8.3398,8.3251,8.3287,8.3875,8.4719,8.5049,8.5086,8.5159,8.5673,8.5637,8.5159,8.4389,8.3875,8.3911,8.3911,8.3838,8.3618,8.3287,8.259,8.2463,8.1746,8.0791,8.0571,8.0057,7.958,7.9376,7.9029,7.8736,7.8699,7.8442,7.8096,7.806,7.7803,7.7252,7.6261,7.5506,7.4903,7.4625,7.4625,7.505,7.4588,7.4478,7.4441,7.4441,7.4184,7.4059,7.3523,7.3156,7.301,7.2679,7.2202,7.1674,7.1138,7.0903,7.0844,7.0367,6.9853,6.9743,6.9633,6.8752,6.7994,6.7811,6.77,6.77,6.77,6.77,6.77,6.77,6.77,6.77,6.77,6.77,6.7714,6.7714,6.777,6.7797,6.7714,6.7727,6.7757,6.798,6.8096,6.8235,6.843,6.8358,6.8071,6.7878,6.7652,6.7503,6.748,6.7625,8.2333,8.2553,8.2553,8.2406,8.2223,8.2186,8.2186,8.2186,8.215,8.2186,8.2186,8.2186,8.2186,8.2223,8.2517,8.281,8.3418,8.3895,8.4262,8.4535,8.4756,8.4756,8.4462,8.4152,8.3985,8.4389,8.4205,8.4095,8.4462,8.538,8.56,8.571,8.6077,8.6518,8.6628,8.6444,8.5637,8.4866,8.4866,8.4756,8.4646,8.4499,8.4352,8.3765,8.3691,8.3051,8.215,8.1782,8.1195,8.0534,8.0147,8.0036,7.989,7.9706,7.936,7.8993,7.8736,7.8442,7.7472,7.6812,7.6225,7.5894,7.538,7.5417,7.5527,7.5417,7.5285,7.5249,7.5234,7.5197,7.5014,7.4331,7.3817,7.356,7.3266,7.2826,7.2349,7.1872,7.1747,7.1637,7.1211,7.0881,7.033,7.0183,6.9376,6.8471,6.7884,6.7774,6.77,6.77,6.77,6.77,6.77,6.77,6.77,6.7737,6.7751,6.7807,6.7823,6.7993,6.8006,6.7941,6.8071,6.8346,6.8526,6.8609,6.8702,6.878,6.8621,6.8297,6.8272,6.8308,6.8567,6.858,6.8897,8.2663,8.3344,8.3381,8.2957,8.237,8.2223,8.226,8.2296,8.2223,8.2186,8.2186,8.2186,8.226,8.2406,8.2957,8.3418,8.3985,8.4939,8.538,8.5123,8.5527,8.5306,8.4976,8.4756,8.4756,8.4646,8.4609,8.4682,8.4829,8.5637,8.5894,8.6077,8.6518,8.6885,8.6978,8.6978,8.6133,8.5013,8.5527,8.5343,8.5086,8.4976,8.4866,8.4646,8.4572,8.4058,8.3361,8.2904,8.228,8.1452,8.1048,8.0755,8.0293,8.0183,7.9743,7.9029,7.9522,7.8993,7.7619,7.7399,7.7252,7.6922,7.6298,7.6298,7.6775,7.6592,7.6093,7.6078,7.6093,7.5726,7.5307,7.4903,7.4515,7.4037,7.3744,7.3193,7.2716,7.2386,7.2188,7.2114,7.2239,7.2129,7.1321,7.066,6.9926,6.9082,6.8201,6.7884,6.7921,6.8068,6.8214,6.7811,6.7847,6.8031,6.8068,6.7884,6.7851,6.7884,6.8067,6.8357,6.8493,6.8536,6.8723,6.8937,6.9025,6.908,6.9128,6.915,6.9316,6.9488,6.9078,6.908,6.9402,6.9604,6.9711,8.3471,8.4205,8.4205,8.4058,8.3728,8.3214,8.2994,8.2884,8.248,8.2186,8.2186,8.2186,8.2553,8.2941,8.3344,8.4022,8.5013,8.5233,8.5637,8.6207,8.6444,8.6444,8.6077,8.5637,8.5637,8.5894,8.582,8.571,8.6261,8.6444,8.6518,8.6721,8.6757,8.6978,8.7014,8.6978,8.6574,8.6317,8.6464,8.6427,8.6224,8.6114,8.5894,8.5453,8.5416,8.5013,8.4242,8.3858,8.3161,8.2443,8.2113,8.1599,8.1269,8.1232,8.0901,8.0314,8.0534,8.0131,7.925,7.8883,7.8353,7.7693,7.7215,7.7142,7.7215,7.7105,7.6922,7.6848,7.6775,7.6555,7.6592,7.5968,7.5432,7.461,7.4111,7.3303,7.2753,7.2569,7.2422,7.2386,7.2459,7.2606,7.2165,7.1688,7.0991,7.0513,6.9779,6.8898,6.8715,6.9022,6.9206,6.8398,6.8104,6.8385,6.8508,6.8566,6.8728,6.891,6.8989,6.9037,6.9148,6.9418,6.937,6.9616,6.9584,6.9574,6.9944,7.0278,7.0706,7.0799,7.0365,6.9803,6.9711,6.9927,7.0179,8.4262,8.4976,8.5013,8.5196,8.5233,8.4278,8.3675,8.3308,8.259,8.2186,8.2223,8.248,8.2867,8.3418,8.4095,8.4572,8.5837,8.6151,8.6334,8.6978,8.6978,8.6904,8.6738,8.6518,8.6481,8.6738,8.6628,8.6518,8.6831,8.6941,8.6941,8.6941,8.7014,8.7014,8.7014,8.6978,8.6978,8.6831,8.6867,8.6904,8.6867,8.6831,8.6701,8.6371,8.6114,8.5857,8.5123,8.4499,8.3931,8.3471,8.2957,8.2443,8.2333,8.2113,8.1782,8.1269,8.0645,8.0461,8.0204,7.9743,7.9103,7.8479,7.8185,7.8023,7.7839,7.7781,7.7509,7.7399,7.7399,7.7326,7.7215,7.6592,7.6114,7.5344,7.4808,7.4037,7.356,7.3399,7.3325,7.3266,7.323,7.3215,7.3142,7.2716,7.2239,7.1835,7.1431,7.0513,6.9646,6.9885,7.006,6.9288,6.8833,6.9201,6.9442,6.9576,6.9749,6.9979,7.0124,7.0241,7.0584,7.0947,7.0604,7.0425,7.0877,7.1207,7.1215,7.1512,7.1858,7.193,7.167,7.1002,7.0272,7.0298,7.0582,8.5123,8.5783,8.582,8.6261,8.6628,8.5159,8.4115,8.3344,8.259,8.2296,8.2296,8.3051,8.3491,8.3858,8.5086,8.5747,8.6004,8.6628,8.6848,8.6978,8.7014,8.7014,8.7014,8.6904,8.6867,8.6941,8.6904,8.6811,8.7014,8.7014,8.7014,8.7014,8.7014,8.7014,8.7014,8.7014,8.7014,8.7014,8.7014,8.7014,8.7014,8.6978,8.6941,8.6775,8.6738,8.6444,8.593,8.5527,8.4719,8.4058,8.3381,8.2884,8.248,8.2186,8.1672,8.1122,8.044,8.0645,8.0828,8.0424,8.022,7.989,7.989,7.9449,7.8883,7.8589,7.8369,7.7949,7.7766,7.7582,7.7362,7.7105,7.6812,7.6335,7.5946,7.5359,7.4793,7.461,7.461,7.4536,7.45,7.4463,7.428,7.3913,7.3377,7.323,7.2789,7.2092,7.1267,7.0799,7.0776,7.0223,6.9975,7.0192,7.0401,7.0704,7.0983,7.1259,7.1702,7.1896,7.2234,7.2243,7.1939,7.1918,7.2562,7.2809,7.2652,7.2716,7.2983,7.2961,7.2816,7.2273,7.151,7.0926,7.0992,8.593,8.6628,8.6664,8.6794,8.6738,8.5306,8.4115,8.3381,8.3141,8.3067,8.3051,8.3308,8.4022,8.5123,8.5617,8.6114,8.6554,8.6848,8.6941,8.7014,8.7014,8.7014,8.7014,8.7014,8.7014,8.7014,8.7014,8.7014,8.7014,8.7014,8.7014,8.7014,8.7014,8.7014,8.7014,8.7014,8.7014,8.7014,8.7014,8.7014,8.7014,8.7014,8.7014,8.7014,8.7014,8.6775,8.6591,8.6077,8.527,8.4499,8.3711,8.3067,8.2296,8.2186,8.1966,8.1929,8.1636,8.1636,8.1782,8.1636,8.1395,8.1321,8.1342,8.0661,7.9963,7.9449,7.9323,7.8809,7.8405,7.8259,7.8023,7.7729,7.7289,7.6864,7.646,7.6004,7.5491,7.5344,7.5344,7.5344,7.5307,7.5307,7.5197,7.4867,7.4404,7.4441,7.4147,7.3413,7.2845,7.2319,7.1716,7.1162,7.1471,7.1793,7.1812,7.2037,7.2321,7.2622,7.303,7.3213,7.3038,7.3011,7.3021,7.3187,7.3488,7.3743,7.3912,7.3984,7.4016,7.4081,7.3982,7.3376,7.2817,7.2195,7.1589,8.6554,8.6978,8.7014,8.6831,8.6444,8.582,8.4939,8.3895,8.3214,8.3067,8.3418,8.3748,8.4609,8.5637,8.6114,8.6554,8.6941,8.6978,8.7014,8.7014,8.7014,8.7014,8.7014,8.7014,8.7014,8.7014,8.7014,8.7014,8.7014,8.7014,8.7014,8.7014,8.7014,8.7014,8.7014,8.7014,8.7014,8.7014,8.7014,8.7014,8.7014,8.7014,8.7014,8.7014,8.7014,8.7014,8.6978,8.6407,8.5857,8.5196,8.4499,8.3801,8.2884,8.2443,8.2186,8.2113,8.2076,8.2039,8.2076,8.2113,8.215,8.2186,8.2186,8.1672,8.1048,8.0534,8.011,7.9633,7.9339,7.8993,7.8699,7.8369,7.7781,7.7194,7.6827,7.6408,7.6151,7.5968,7.5931,7.5931,7.5968,7.5968,7.5821,7.5527,7.5344,7.5249,7.4955,7.4404,7.3983,7.3651,7.2963,7.2301,7.2907,7.3516,7.351,7.3611,7.3946,7.421,7.4247,7.4312,7.4023,7.4028,7.4265,7.4261,7.4227,7.4574,7.5037,7.4954,7.4956,7.5011,7.5096,7.4712,7.4067,7.3329,7.2714,8.6978,8.7014,8.7014,8.6554,8.5967,8.6481,8.5894,8.4535,8.3177,8.2884,8.3711,8.4389,8.5159,8.6077,8.6591,8.6831,8.7014,8.7014,8.7014,8.7014,8.7014,8.7014,8.7014,8.7014,8.7014,8.7014,8.7014,8.7014,8.7014,8.7014,8.7014,8.7014,8.7014,8.7014,8.7014,8.7014,8.7014,8.7014,8.7014,8.7014,8.7014,8.7014,8.7014,8.7014,8.7014,8.7014,8.7014,8.6831,8.6628,8.6077,8.5527,8.4829,8.3618,8.281,8.248,8.2186,8.2186,8.237,8.2333,8.2333,8.2333,8.2296,8.2239,8.2076,8.1636,8.1342,8.0918,8.055,8.0241,7.9947,7.9653,7.914,7.8589,7.8148,7.7781,7.7488,7.7231,7.6995,7.6812,7.6775,7.6738,7.6775,7.6628,7.6371,7.6188,7.6056,7.5873,7.538,7.5252,7.5045,7.4515,7.3777,7.447,7.5174,7.5403,7.5556,7.5807,7.5938,7.5789,7.5517,7.5263,7.5412,7.5629,7.5719,7.5824,7.5882,7.6114,7.6162,7.6163,7.5972,7.6002,7.5986,7.5386,7.444,7.3856,8.7014,8.7014,8.7014,8.6518,8.5857,8.6004,8.5563,8.4609,8.4242,8.4462,8.5159,8.5453,8.5894,8.6628,8.6848,8.7014,8.7014,8.7014,8.7014,8.7014,8.7014,8.7014,8.7014,8.7014,8.7014,8.7014,8.7014,8.7014,8.7014,8.7014,8.7014,8.7014,8.7014,8.7014,8.7014,8.7014,8.7014,8.7014,8.7014,8.7014,8.7014,8.7014,8.7014,8.7014,8.7014,8.7014,8.7014,8.6978,8.6518,8.5984,8.5837,8.4903,8.3528,8.3234,8.281,8.2333,8.2333,8.259,8.2847,8.2774,8.2737,8.2774,8.27,8.2333,8.2113,8.1966,8.1746,8.1415,8.1158,8.0865,8.0534,7.9963,7.9486,7.914,7.8809,7.8516,7.8295,7.8023,7.7729,7.7665,7.7592,7.7512,7.7381,7.7234,7.7069,7.6995,7.6959,7.6809,7.6778,7.6637,7.6394,7.5926,7.6222,7.677,7.7062,7.7144,7.7214,7.7274,7.712,7.6849,7.6503,7.6509,7.6637,7.728,7.7607,7.7327,7.7284,7.7701,7.7624,7.7008,7.6509,7.6293,7.607,7.5308,7.4846,8.593,8.6004,8.6334,8.6004,8.5453,8.6004,8.5894,8.5306,8.549,8.5894,8.6187,8.604,8.6261,8.6921,8.7014,8.7014,8.7014,8.7014,8.7014,8.7014,8.7014,8.7014,8.7014,8.7014,8.7014,8.7014,8.7014,8.7014,8.7014,8.7014,8.7014,8.7014,8.7014,8.7014,8.7014,8.7014,8.7014,8.7014,8.7014,8.7014,8.7014,8.7014,8.7014,8.7014,8.7014,8.7014,8.7014,8.7014,8.6757,8.6297,8.604,8.56,8.4499,8.3801,8.3454,8.3214,8.3141,8.3067,8.3508,8.3581,8.3398,8.3508,8.3197,8.2867,8.27,8.2553,8.2113,8.1782,8.1746,8.1525,8.1305,8.0828,8.0461,8.0131,7.9617,7.9229,7.9103,7.8993,7.8747,7.8581,7.8491,7.839,7.829,7.8177,7.8122,7.8582,7.848,7.841,7.8394,7.8341,7.8071,7.7961,7.8213,7.8222,7.8294,7.8332,7.8332,7.836,7.8366,7.7867,7.7444,7.7449,7.7607,7.816,7.8426,7.823,7.8339,7.8608,7.8084,7.7231,7.6777,7.6438,7.6207,7.5976,7.5592,8.4646,8.4719,8.549,8.5416,8.5049,8.6334,8.6591,8.6114,8.6664,8.6941,8.6867,8.6261,8.6444,8.6811,8.7014,8.7014,8.7014,8.7014,8.7014,8.7014,8.7014,8.7014,8.7014,8.7014,8.7014,8.7014,8.7014,8.7014,8.7014,8.7014,8.7014,8.7014,8.7014,8.7014,8.7014,8.7014,8.7014,8.7014,8.7014,8.7014,8.7014,8.7014,8.7014,8.7014,8.7014,8.7014,8.7014,8.7014,8.6978,8.6757,8.6371,8.593,8.5416,8.4609,8.4315,8.4095,8.3801,8.4058,8.4462,8.4499,8.4535,8.4499,8.3895,8.3528,8.3381,8.2994,8.2517,8.2333,8.2296,8.2076,8.1856,8.1672,8.1305,8.1007,8.0456,8.0068,8.0047,8.0004,7.9793,7.9605,7.9627,7.949,7.9338,7.9229,7.9479,7.9954,8.013,8.0104,8.0053,7.9993,7.9823,7.9811,7.9967,7.9896,7.9474,7.9656,7.9676,7.9294,7.9196,7.8715,7.8385,7.8463,7.8607,7.8873,7.9022,7.9146,7.9015,7.9123,7.8361,7.763,7.7445,7.7099,7.6169,7.5976,7.5976,8.4609,8.4682,8.5453,8.5673,8.571,8.6591,8.6921,8.6794,8.6921,8.7014,8.6941,8.6904,8.6904,8.7014,8.7014,8.7014,8.7014,8.7014,8.7014,8.7014,8.7014,8.7014,8.7014,8.7014,8.7014,8.7014,8.7014,8.7014,8.7014,8.7014,8.7014,8.7014,8.7014,8.7014,8.7014,8.7014,8.7014,8.7014,8.7014,8.7014,8.7014,8.7014,8.7014,8.7014,8.7014,8.7014,8.7014,8.7014,8.7014,8.6941,8.6811,8.6407,8.593,8.5416,8.5123,8.4866,8.4609,8.4903,8.5196,8.5159,8.5196,8.5453,8.4903,8.4389,8.4058,8.3528,8.3177,8.292,8.2737,8.226,8.2039,8.2039,8.1782,8.1696,8.1339,8.1329,8.1355,8.1132,8.0907,8.1065,8.1267,8.1081,8.0869,8.0804,8.0816,8.1141,8.1153,8.1164,8.123,8.1371,8.1474,8.1416,8.1404,8.0631,7.9789,8.0916,8.1079,8.0572,8.0245,8.0134,7.9915,7.9577,7.9728,7.9837,8.0184,8.0454,8.0246,7.9554,7.9169,7.8554,7.8369,7.7869,7.6784,7.6284,7.6553]}]]